[[{"header":{"parameterUnit":"m.s-1","parameterCategory":1,"la1":31.0,"la2":29.5877,"lo1":-88.7671,"lo2":-86.6584,"dy":0.0162,"dx":0.0185,"nx":115,"ny":88,"refTime":"2023-03-21T06:00:00:Z","depth":0,"parameterNumber":2,"parameterNumberName":"U-component_of_WINDS"},"data":[0.0,0.0,0.0,0.0,0.0,0.0,0.0,0.0,0.0,0.0,0.0,0.0,0.0,0.0,0.0,0.0,0.0,0.0,0.0,0.0,0.0,0.0,0.0,0.0,0.0,0.0,0.0,0.0,0.0,0.0,0.0,0.0,0.0,0.0,0.0,0.0,0.0,0.0,0.0,0.0,0.0,0.0,0.0,0.0,0.0,0.0,0.0,0.0,0.0,0.0,0.0,0.0,0.0,0.0,0.0,0.0,0.0,0.0,0.0,0.0,0.0,0.0,0.0,0.0,0.0,0.0,0.0,0.0,0.0,0.0,0.0,0.0,0.0,0.0,0.0,0.0,0.0,0.0,0.0,0.0,0.0,0.0,0.0,0.0,0.0,0.0,0.0,0.0,0.0,0.0,0.0,0.0,0.0,0.0,0.0,0.0,0.0,0.0,0.0,0.0,0.0,0.0,0.0,0.0,0.0,0.0,0.0,0.0,0.0,0.0,0.0,0.0,0.0,0.0,0.0,0.0,0.0,0.0,0.0,0.0,0.0,0.0,0.0,0.0,0.0,0.0,0.0,0.0,0.0,0.0,0.0,0.0,0.0,0.0,0.0,0.0,0.0,0.0,0.0,0.0,0.0,0.0,0.0,0.0,0.0,0.0,0.0,0.0,0.0,0.0,0.0,0.0,0.0,0.0,0.0,0.0,0.0,0.0,0.0,0.0,0.0,0.0,0.0,0.0,0.0,0.0,0.0,0.0,0.0,0.0,0.0,0.0,0.0,0.0,0.0,0.0,0.0,0.0,0.0,0.0,0.0,0.0,0.0,0.0,0.0,0.0,0.0,0.0,0.0,0.0,0.0,0.0,0.0,0.0,0.0,0.0,0.0,0.0,0.0,0.0,0.0,0.0,0.0,0.0,0.0,0.0,0.0,0.0,0.0,0.0,0.0,0.0,0.0,0.0,0.0,0.0,0.0,0.0,0.0,0.0,0.0,0.0,0.0,0.0,0.0,0.0,0.0,0.0,0.0,0.0,0.0,0.0,0.0,0.0,0.0,0.0,0.0,0.0,0.0,0.0,0.0,0.0,0.0,0.0,0.0,0.0,0.0,0.0,0.0,0.0,0.0,0.0,0.0,0.0,0.0,0.0,0.0,0.0,0.0,0.0,0.0,0.0,0.0,0.0,0.0,0.0,0.0,0.0,0.0,0.0,0.0,0.0,0.0,0.0,0.0,0.0,0.0,0.0,0.0,0.0,0.0,0.0,0.0,0.0,0.0,0.0,0.0,0.0,0.0,0.0,0.0,0.0,0.0,0.0,0.0,0.0,0.0,0.0,0.0,0.0,0.0,0.0,0.0,0.0,0.0,0.0,0.0,0.0,0.0,0.0,0.0,0.0,0.0,0.0,0.0,0.0,0.0,0.0,0.0,0.0,0.0,0.0,0.0,0.0,0.0,0.0,0.0,0.0,0.0,0.0,0.0,0.0,0.0,0.0,0.0,0.0,0.0,0.0,0.0,0.0,0.0,0.0,0.0,0.0,0.0,0.0,0.0,0.0,0.0,0.0,0.0,0.0,0.0,0.0,0.0,0.0,0.0,0.0,0.0,0.0,0.0,0.0,0.0,0.0,0.0,0.0,0.0,0.0,0.0,0.0,0.0,0.0,0.0,0.0,0.0,0.0,0.0,0.0,0.0,0.0,0.0,0.0,0.0,0.0,0.0,0.0,0.0,0.0,0.0,0.0,0.0,0.0,0.0,0.0,0.0,0.0,0.0,0.0,0.0,0.0,0.0,0.0,0.0,0.0,0.0,0.0,0.0,0.0,0.0,0.0,0.0,0.0,0.0,0.0,0.0,0.0,0.0,0.0,0.0,0.0,0.0,0.0,0.0,0.0,0.0,0.0,0.0,0.0,0.0,0.0,0.0,0.0,0.0,0.0,0.0,0.0,0.0,0.0,0.0,0.0,0.0,0.0,0.0,0.0,0.0,0.0,0.0,0.0,0.0,0.0,0.0,0.0,0.0,0.0,0.0,0.0,0.0,0.0,0.0,0.0,0.0,0.0,0.0,0.0,0.0,0.0,0.0,0.0,0.0,0.0,0.0,0.0,0.0,0.0,0.0,0.0,0.0,0.0,0.0,0.0,0.0,0.0,0.0,0.0,0.0,0.0,0.0,0.0,0.0,0.0,0.0,0.0,0.0,0.0,0.0,0.0,0.0,0.0,0.0,0.0,0.0,0.0,0.0,0.0,0.0,0.0,0.0,0.0,0.0,0.0,0.0,0.0,0.0,0.0,0.0,0.0,0.0,0.0,0.0,0.0,0.0,0.0,0.0,0.0,0.0,0.0,0.0,0.0,0.0,0.0,0.0,0.0,0.0,0.0,0.0,0.0,0.0,0.0,0.0,0.0,0.0,0.0,0.0,0.0,0.0,0.0,0.0,0.0,0.0,0.0,0.0,0.0,0.0,0.0,0.0,0.0,0.0,0.0,0.0,0.0,0.0,0.0,0.0,0.0,0.0,0.0,0.0,0.0,0.0,0.0,0.0,0.0,0.0,0.0,0.0,0.0,0.0,0.0,0.0,0.0,0.0,0.0,0.0,0.0,0.0,0.0,0.0,0.0,0.0,0.0,0.0,0.0,0.0,0.0,0.0,0.0,0.0,0.0,0.0,0.0,0.0,0.0,0.0,0.0,0.0,0.0,0.0,0.0,0.0,0.0,0.0,0.0,0.0,0.0,0.0,0.0,0.0,0.0,0.0,0.0,0.0,0.0,0.0,0.0,0.0,0.0,0.0,0.0,0.0,0.0,0.0,0.0,0.0,0.0,0.0,0.0,0.0,0.0,0.0,0.0,0.0,0.0,0.0,0.0,0.0,0.0,0.0,0.0,0.0,0.0,0.0,0.0,0.0,0.0,0.0,0.0,0.0,0.0,0.0,0.0,0.0,0.0,0.0,0.0,0.0,0.0,0.0,0.0,0.0,0.0,0.0,0.0,0.0,0.0,0.0,0.0,0.0,0.0,0.0,0.0,0.0,0.0,0.0,0.0,0.0,0.0,0.0,0.0,0.0,0.0,0.0,0.0,0.0,0.0,0.0,0.0,0.0,0.0,0.0,0.0,0.0,0.0,0.0,0.0,0.0,0.0,0.0,0.0,0.0,0.0,0.0,0.0,0.0,0.0,0.0,0.0,0.0,0.0,0.0,0.0,0.0,0.0,0.0,0.0,0.0,0.0,0.0,0.0,0.0,0.0,0.0,0.0,0.0,0.0,0.0,0.0,0.0,0.0,0.0,0.0,0.0,0.0,0.0,0.0,0.0,0.0,0.0,0.0,0.0,0.0,0.0,0.0,0.0,0.0,0.0,0.0,0.0,0.0,0.0,0.0,0.0,0.0,0.0,0.0,0.0,0.0,0.0,0.0,0.0,0.0,0.0,0.0,0.0,0.0,0.0,0.0,0.0,0.0,0.0,0.0,0.0,0.0,0.0,0.0,0.0,0.0,0.0,0.0,0.0,0.0,0.0,0.0,0.0,0.0,0.0,0.0,0.0,0.0,0.0,0.0,0.0,0.0,0.0,0.0,0.0,0.0,0.0,0.0,0.0,0.0,0.0,0.0,0.0,0.0,0.0,0.0,0.0,0.0,0.0,0.0,0.0,0.0,0.0,0.0,0.0,0.0,0.0,0.0,0.0,0.0,0.0,0.0,0.0,0.0,0.0,0.0,0.0,0.0,0.0,0.0,0.0,0.0,0.0,0.0,0.0,0.0,0.0,0.0,0.0,0.0,0.0,0.0,0.0,0.0,0.0,0.0,0.0,0.0,0.0,0.0,0.0,0.0,0.0,0.0,0.0,0.0,0.0,0.0,0.0,0.0,0.0,0.0,0.0,0.0,0.0,0.0,0.0,0.0,0.0,0.0,0.0,0.0,0.0,0.0,0.0,0.0,0.0,0.0,0.0,0.0,0.0,0.0,0.0,0.0,0.0,0.0,0.0,0.0,0.0,0.0,0.0,0.0,0.0,0.0,0.0,0.0,0.0,0.0,0.0,0.0,0.0,0.0,0.0,0.0,0.0,0.0,0.0,0.0,0.0,0.0,0.0,0.0,0.0,0.0,0.0,0.0,0.0,0.0,0.0,0.0,0.0,0.0,0.0,0.0,0.0,0.0,0.0,0.0,0.0,0.0,0.0,0.0,0.0,0.0,0.0,0.0,0.0,0.0,0.0,0.0,0.0,0.0,0.0,0.0,0.0,0.0,0.0,0.0,0.0,0.0,0.0,0.0,0.0,0.0,0.0,0.0,-6.2777,0.0,0.0,0.0,0.0,0.0,0.0,0.0,0.0,0.0,0.0,0.0,0.0,0.0,0.0,0.0,0.0,0.0,0.0,0.0,0.0,0.0,0.0,0.0,0.0,0.0,0.0,0.0,0.0,0.0,0.0,0.0,0.0,0.0,0.0,0.0,0.0,0.0,0.0,0.0,0.0,0.0,0.0,0.0,0.0,0.0,0.0,0.0,0.0,0.0,0.0,0.0,0.0,0.0,0.0,0.0,0.0,0.0,0.0,0.0,0.0,0.0,0.0,0.0,0.0,0.0,0.0,0.0,0.0,0.0,0.0,0.0,0.0,0.0,0.0,0.0,0.0,0.0,0.0,0.0,0.0,0.0,0.0,0.0,0.0,0.0,0.0,0.0,0.0,0.0,0.0,0.0,0.0,0.0,0.0,0.0,0.0,0.0,0.0,0.0,0.0,0.0,0.0,0.0,0.0,0.0,0.0,0.0,0.0,0.0,0.0,-6.5426,-6.4989,-6.4905,-6.4499,-6.3651,0.0,0.0,0.0,0.0,0.0,0.0,0.0,0.0,0.0,0.0,0.0,0.0,0.0,0.0,0.0,0.0,0.0,0.0,0.0,0.0,0.0,0.0,0.0,0.0,0.0,0.0,0.0,0.0,0.0,0.0,0.0,0.0,0.0,0.0,0.0,0.0,0.0,0.0,0.0,0.0,0.0,0.0,0.0,0.0,0.0,0.0,0.0,0.0,0.0,0.0,0.0,0.0,0.0,0.0,0.0,0.0,0.0,0.0,0.0,0.0,0.0,0.0,0.0,0.0,0.0,0.0,0.0,0.0,0.0,0.0,0.0,0.0,0.0,0.0,0.0,0.0,0.0,0.0,0.0,0.0,0.0,0.0,0.0,0.0,0.0,0.0,0.0,0.0,0.0,0.0,0.0,0.0,0.0,0.0,0.0,0.0,0.0,0.0,0.0,0.0,0.0,0.0,0.0,0.0,0.0,0.0,0.0,0.0,0.0,0.0,0.0,0.0,-6.5811,-6.5403,-6.4521,0.0,0.0,0.0,0.0,0.0,0.0,0.0,0.0,0.0,0.0,0.0,0.0,0.0,0.0,0.0,0.0,0.0,0.0,0.0,0.0,0.0,0.0,0.0,0.0,0.0,0.0,0.0,0.0,0.0,0.0,0.0,0.0,0.0,0.0,0.0,0.0,0.0,0.0,0.0,0.0,0.0,0.0,0.0,0.0,0.0,0.0,0.0,0.0,0.0,0.0,0.0,0.0,0.0,0.0,0.0,0.0,0.0,0.0,0.0,0.0,0.0,0.0,0.0,0.0,0.0,0.0,0.0,0.0,0.0,0.0,0.0,0.0,0.0,0.0,0.0,0.0,0.0,0.0,0.0,0.0,0.0,0.0,0.0,0.0,0.0,0.0,0.0,0.0,0.0,0.0,0.0,0.0,0.0,0.0,0.0,0.0,0.0,0.0,0.0,0.0,0.0,0.0,0.0,0.0,0.0,0.0,0.0,0.0,0.0,0.0,-6.6759,-6.668,-6.6678,0.0,-6.5383,0.0,0.0,0.0,0.0,0.0,0.0,0.0,0.0,0.0,0.0,0.0,0.0,0.0,0.0,0.0,0.0,0.0,0.0,0.0,0.0,0.0,0.0,0.0,0.0,0.0,0.0,0.0,0.0,0.0,0.0,0.0,0.0,0.0,0.0,0.0,0.0,0.0,0.0,0.0,0.0,0.0,0.0,0.0,0.0,0.0,0.0,0.0,0.0,0.0,0.0,0.0,0.0,0.0,0.0,0.0,0.0,0.0,0.0,0.0,0.0,0.0,0.0,0.0,0.0,0.0,0.0,0.0,0.0,0.0,0.0,0.0,0.0,0.0,0.0,0.0,0.0,0.0,0.0,0.0,0.0,0.0,0.0,0.0,0.0,0.0,0.0,0.0,0.0,0.0,0.0,0.0,0.0,0.0,0.0,0.0,0.0,0.0,0.0,0.0,0.0,0.0,0.0,0.0,0.0,0.0,0.0,0.0,0.0,0.0,0.0,-6.6798,-6.6798,-6.6787,-6.6382,0.0,0.0,0.0,0.0,0.0,0.0,0.0,0.0,0.0,0.0,0.0,0.0,0.0,0.0,0.0,0.0,0.0,0.0,0.0,0.0,0.0,0.0,0.0,0.0,0.0,0.0,0.0,0.0,0.0,0.0,0.0,0.0,0.0,0.0,0.0,0.0,0.0,0.0,0.0,0.0,0.0,0.0,0.0,0.0,0.0,0.0,0.0,0.0,0.0,0.0,0.0,0.0,0.0,0.0,0.0,0.0,0.0,0.0,0.0,0.0,0.0,0.0,0.0,0.0,0.0,0.0,0.0,0.0,0.0,0.0,0.0,0.0,0.0,0.0,0.0,0.0,0.0,0.0,0.0,0.0,0.0,0.0,0.0,0.0,0.0,0.0,0.0,0.0,0.0,0.0,0.0,0.0,0.0,0.0,0.0,0.0,0.0,0.0,0.0,0.0,0.0,0.0,0.0,0.0,0.0,0.0,0.0,0.0,0.0,0.0,-6.6798,-6.6798,-6.6795,-6.6787,-6.6499,-6.5858,0.0,0.0,0.0,0.0,0.0,0.0,0.0,0.0,0.0,0.0,0.0,0.0,0.0,0.0,0.0,0.0,0.0,0.0,0.0,0.0,0.0,0.0,0.0,0.0,0.0,0.0,0.0,0.0,0.0,0.0,0.0,0.0,0.0,0.0,0.0,0.0,0.0,0.0,0.0,0.0,0.0,0.0,0.0,0.0,0.0,0.0,0.0,0.0,0.0,0.0,0.0,0.0,0.0,0.0,0.0,0.0,0.0,0.0,0.0,0.0,0.0,0.0,0.0,0.0,0.0,0.0,0.0,0.0,0.0,0.0,0.0,0.0,0.0,0.0,0.0,0.0,0.0,0.0,0.0,0.0,0.0,0.0,0.0,0.0,0.0,0.0,0.0,0.0,0.0,0.0,0.0,0.0,0.0,0.0,0.0,0.0,0.0,0.0,0.0,0.0,0.0,0.0,0.0,0.0,0.0,0.0,0.0,0.0,-6.6798,-6.6798,-6.6798,-6.6798,-6.6795,-6.679,0.0,0.0,0.0,0.0,0.0,0.0,0.0,0.0,0.0,0.0,0.0,0.0,0.0,0.0,0.0,0.0,0.0,0.0,0.0,0.0,0.0,0.0,0.0,0.0,0.0,0.0,0.0,0.0,0.0,0.0,0.0,0.0,0.0,0.0,0.0,0.0,0.0,0.0,0.0,0.0,0.0,0.0,0.0,0.0,0.0,0.0,0.0,0.0,0.0,0.0,0.0,0.0,0.0,0.0,0.0,0.0,0.0,0.0,0.0,0.0,0.0,0.0,0.0,0.0,0.0,0.0,0.0,0.0,0.0,0.0,0.0,0.0,0.0,0.0,0.0,0.0,0.0,0.0,0.0,0.0,0.0,0.0,0.0,0.0,0.0,0.0,0.0,0.0,0.0,0.0,0.0,0.0,0.0,0.0,0.0,0.0,0.0,0.0,0.0,0.0,0.0,0.0,0.0,0.0,0.0,0.0,0.0,0.0,0.0,-6.6798,-6.6798,-6.6798,-6.6798,-6.6798,-6.679,0.0,0.0,0.0,0.0,0.0,0.0,0.0,0.0,0.0,0.0,0.0,0.0,0.0,0.0,0.0,0.0,0.0,0.0,0.0,0.0,0.0,0.0,0.0,0.0,0.0,0.0,0.0,0.0,0.0,0.0,0.0,0.0,0.0,0.0,0.0,0.0,0.0,0.0,0.0,0.0,0.0,0.0,0.0,0.0,0.0,0.0,0.0,0.0,0.0,0.0,0.0,0.0,0.0,0.0,0.0,0.0,0.0,0.0,0.0,0.0,0.0,0.0,0.0,0.0,0.0,0.0,0.0,0.0,0.0,0.0,0.0,0.0,0.0,0.0,0.0,0.0,0.0,0.0,0.0,0.0,0.0,0.0,0.0,0.0,0.0,0.0,0.0,0.0,0.0,0.0,0.0,0.0,0.0,0.0,0.0,0.0,0.0,0.0,0.0,0.0,0.0,0.0,0.0,0.0,0.0,0.0,0.0,0.0,0.0,-6.6798,0.0,-6.6798,-6.6798,-6.6798,-6.6792,0.0,0.0,0.0,0.0,0.0,0.0,0.0,0.0,0.0,0.0,0.0,0.0,0.0,0.0,0.0,0.0,0.0,0.0,0.0,0.0,0.0,0.0,0.0,0.0,0.0,0.0,0.0,0.0,0.0,0.0,0.0,0.0,0.0,0.0,0.0,0.0,0.0,0.0,0.0,0.0,0.0,0.0,0.0,0.0,0.0,0.0,0.0,0.0,0.0,0.0,0.0,0.0,0.0,0.0,0.0,0.0,0.0,0.0,0.0,0.0,0.0,0.0,0.0,0.0,0.0,0.0,0.0,0.0,0.0,0.0,0.0,0.0,0.0,0.0,0.0,0.0,0.0,0.0,0.0,0.0,0.0,0.0,0.0,0.0,0.0,0.0,0.0,0.0,0.0,0.0,0.0,0.0,0.0,0.0,0.0,0.0,0.0,0.0,0.0,0.0,0.0,0.0,0.0,0.0,0.0,0.0,0.0,0.0,-6.6798,-6.6798,-6.6798,-6.6798,-6.6798,-6.6798,-6.6798,0.0,0.0,0.0,0.0,0.0,0.0,0.0,0.0,0.0,0.0,0.0,0.0,0.0,0.0,0.0,0.0,0.0,0.0,0.0,0.0,0.0,0.0,0.0,0.0,0.0,0.0,0.0,0.0,0.0,0.0,0.0,0.0,0.0,0.0,0.0,0.0,0.0,0.0,0.0,0.0,0.0,0.0,0.0,0.0,0.0,0.0,0.0,0.0,0.0,0.0,0.0,0.0,0.0,0.0,0.0,0.0,0.0,0.0,0.0,0.0,0.0,0.0,0.0,0.0,0.0,0.0,0.0,0.0,0.0,0.0,0.0,0.0,0.0,0.0,0.0,0.0,0.0,0.0,0.0,0.0,0.0,0.0,0.0,0.0,0.0,0.0,0.0,0.0,0.0,0.0,0.0,0.0,0.0,0.0,0.0,0.0,0.0,0.0,0.0,0.0,0.0,0.0,0.0,0.0,0.0,0.0,0.0,0.0,0.0,-6.6798,-6.6798,-6.6798,-6.6798,-6.6798,-6.6798,0.0,0.0,0.0,0.0,0.0,0.0,0.0,0.0,0.0,0.0,0.0,0.0,0.0,0.0,0.0,0.0,0.0,0.0,0.0,0.0,0.0,0.0,0.0,0.0,0.0,0.0,0.0,0.0,0.0,0.0,0.0,0.0,0.0,0.0,0.0,0.0,0.0,0.0,0.0,0.0,0.0,0.0,0.0,0.0,0.0,0.0,0.0,0.0,0.0,0.0,0.0,0.0,0.0,0.0,0.0,0.0,0.0,0.0,0.0,0.0,0.0,0.0,0.0,0.0,0.0,0.0,0.0,0.0,0.0,0.0,0.0,0.0,0.0,0.0,0.0,0.0,0.0,0.0,0.0,0.0,0.0,0.0,0.0,0.0,0.0,0.0,0.0,0.0,0.0,0.0,0.0,0.0,0.0,0.0,0.0,0.0,0.0,0.0,0.0,0.0,0.0,0.0,0.0,0.0,0.0,0.0,0.0,0.0,0.0,-6.5872,-6.618,-6.6178,-6.5865,-6.6173,-6.6366,-6.6366,0.0,0.0,0.0,0.0,0.0,0.0,0.0,0.0,0.0,0.0,0.0,0.0,0.0,0.0,0.0,0.0,0.0,0.0,0.0,0.0,0.0,0.0,0.0,0.0,0.0,0.0,0.0,0.0,0.0,0.0,0.0,0.0,0.0,0.0,0.0,0.0,0.0,0.0,0.0,0.0,0.0,0.0,0.0,0.0,0.0,0.0,0.0,0.0,0.0,0.0,0.0,0.0,0.0,0.0,0.0,0.0,0.0,0.0,0.0,0.0,0.0,0.0,0.0,0.0,0.0,0.0,0.0,0.0,0.0,0.0,0.0,0.0,0.0,0.0,0.0,0.0,0.0,0.0,0.0,0.0,0.0,0.0,0.0,0.0,0.0,0.0,0.0,0.0,0.0,0.0,0.0,0.0,0.0,0.0,0.0,0.0,0.0,0.0,0.0,0.0,0.0,0.0,0.0,0.0,0.0,0.0,0.0,0.0,-6.417,-6.4983,-6.5097,-6.4353,-6.5163,-6.5624,0.0,0.0,0.0,0.0,0.0,0.0,0.0,0.0,0.0,0.0,0.0,0.0,0.0,0.0,0.0,0.0,0.0,0.0,0.0,0.0,0.0,0.0,0.0,0.0,0.0,0.0,0.0,0.0,0.0,0.0,0.0,0.0,0.0,0.0,0.0,0.0,0.0,0.0,0.0,0.0,0.0,0.0,0.0,0.0,0.0,0.0,0.0,0.0,0.0,0.0,0.0,0.0,0.0,0.0,0.0,0.0,0.0,0.0,0.0,0.0,0.0,0.0,0.0,0.0,0.0,0.0,0.0,0.0,0.0,0.0,0.0,0.0,0.0,0.0,0.0,0.0,0.0,0.0,0.0,0.0,0.0,0.0,0.0,0.0,0.0,0.0,0.0,0.0,0.0,0.0,0.0,0.0,0.0,0.0,0.0,0.0,0.0,0.0,0.0,0.0,0.0,0.0,0.0,0.0,0.0,0.0,0.0,0.0,0.0,-6.246,-6.3239,-6.3899,-6.4283,-6.5134,-6.5596,0.0,0.0,0.0,0.0,0.0,0.0,0.0,0.0,0.0,0.0,0.0,0.0,0.0,0.0,0.0,0.0,0.0,0.0,0.0,0.0,0.0,0.0,0.0,0.0,0.0,0.0,0.0,0.0,0.0,0.0,0.0,0.0,0.0,0.0,0.0,0.0,0.0,0.0,0.0,0.0,0.0,0.0,0.0,0.0,0.0,0.0,0.0,0.0,0.0,0.0,0.0,0.0,0.0,0.0,0.0,0.0,0.0,0.0,0.0,0.0,0.0,0.0,0.0,0.0,0.0,0.0,0.0,0.0,0.0,0.0,0.0,0.0,0.0,0.0,0.0,0.0,0.0,0.0,0.0,0.0,0.0,0.0,0.0,0.0,0.0,0.0,0.0,0.0,0.0,0.0,0.0,0.0,0.0,0.0,0.0,0.0,0.0,0.0,0.0,0.0,0.0,0.0,0.0,0.0,0.0,0.0,0.0,0.0,-6.2225,-6.1717,-6.2187,-6.2695,-6.3201,-6.4404,-6.5059,0.0,0.0,0.0,0.0,0.0,0.0,0.0,0.0,0.0,0.0,0.0,0.0,0.0,0.0,0.0,0.0,0.0,0.0,0.0,0.0,0.0,0.0,0.0,0.0,0.0,0.0,0.0,0.0,0.0,0.0,0.0,0.0,0.0,0.0,0.0,0.0,0.0,0.0,0.0,0.0,0.0,0.0,0.0,0.0,0.0,0.0,0.0,0.0,0.0,0.0,0.0,0.0,0.0,0.0,0.0,0.0,0.0,0.0,0.0,0.0,0.0,0.0,0.0,0.0,0.0,0.0,0.0,0.0,0.0,0.0,0.0,0.0,0.0,0.0,0.0,0.0,0.0,0.0,0.0,0.0,0.0,0.0,0.0,0.0,0.0,0.0,0.0,0.0,0.0,0.0,0.0,0.0,0.0,0.0,0.0,0.0,0.0,0.0,0.0,0.0,0.0,0.0,0.0,0.0,0.0,0.0,0.0,0.0,-6.1709,-6.1709,-6.1714,-6.1716,-6.1755,-6.3396,-6.4286,0.0,0.0,0.0,0.0,0.0,0.0,0.0,0.0,0.0,0.0,0.0,0.0,0.0,0.0,0.0,0.0,0.0,0.0,0.0,0.0,0.0,0.0,0.0,0.0,0.0,0.0,0.0,0.0,0.0,0.0,0.0,0.0,0.0,0.0,0.0,0.0,0.0,0.0,0.0,0.0,0.0,0.0,0.0,0.0,0.0,0.0,0.0,0.0,0.0,0.0,0.0,0.0,0.0,0.0,0.0,0.0,0.0,0.0,0.0,0.0,0.0,0.0,0.0,0.0,0.0,0.0,0.0,0.0,0.0,0.0,0.0,0.0,0.0,0.0,0.0,0.0,0.0,0.0,0.0,0.0,0.0,0.0,0.0,0.0,0.0,0.0,0.0,0.0,0.0,0.0,0.0,0.0,0.0,0.0,0.0,0.0,0.0,0.0,0.0,0.0,0.0,0.0,0.0,0.0,0.0,0.0,0.0,0.0,-6.1709,-6.1709,-6.171,-6.1711,-6.1711,-6.3398,-6.4292,0.0,0.0,0.0,0.0,0.0,0.0,0.0,0.0,0.0,0.0,0.0,0.0,0.0,0.0,0.0,0.0,0.0,0.0,0.0,0.0,0.0,0.0,0.0,0.0,0.0,0.0,0.0,0.0,0.0,0.0,0.0,0.0,0.0,0.0,0.0,0.0,0.0,0.0,0.0,0.0,0.0,0.0,0.0,0.0,0.0,0.0,0.0,0.0,-6.1718,0.0,0.0,0.0,0.0,0.0,0.0,0.0,0.0,0.0,0.0,0.0,0.0,0.0,0.0,0.0,0.0,0.0,0.0,0.0,0.0,0.0,0.0,0.0,0.0,0.0,0.0,0.0,0.0,0.0,0.0,0.0,0.0,0.0,0.0,0.0,0.0,0.0,0.0,0.0,0.0,0.0,0.0,0.0,0.0,0.0,0.0,0.0,0.0,0.0,0.0,0.0,0.0,0.0,0.0,0.0,0.0,0.0,0.0,0.0,-6.169,-6.169,-6.1696,-6.1699,-6.1743,-6.3005,-6.3711,0.0,0.0,0.0,0.0,0.0,0.0,0.0,0.0,0.0,0.0,0.0,0.0,0.0,0.0,0.0,0.0,0.0,0.0,0.0,0.0,0.0,0.0,0.0,0.0,0.0,0.0,0.0,0.0,0.0,0.0,0.0,0.0,0.0,0.0,0.0,0.0,0.0,0.0,0.0,0.0,0.0,0.0,0.0,0.0,0.0,0.0,0.0,0.0,0.0,0.0,0.0,0.0,0.0,0.0,0.0,0.0,0.0,0.0,0.0,0.0,0.0,0.0,0.0,0.0,0.0,0.0,0.0,0.0,0.0,0.0,0.0,0.0,0.0,0.0,0.0,0.0,0.0,0.0,0.0,0.0,0.0,0.0,0.0,0.0,0.0,0.0,0.0,0.0,0.0,0.0,0.0,0.0,0.0,0.0,0.0,0.0,0.0,0.0,0.0,0.0,0.0,0.0,0.0,0.0,0.0,0.0,0.0,-6.1546,-6.1579,-6.1696,-6.1551,-6.1564,-6.1694,-6.2405,-6.2805,-6.2812,0.0,0.0,0.0,0.0,0.0,0.0,0.0,0.0,0.0,0.0,0.0,0.0,0.0,0.0,0.0,0.0,0.0,0.0,0.0,0.0,0.0,0.0,0.0,0.0,0.0,0.0,0.0,0.0,0.0,0.0,0.0,0.0,0.0,0.0,0.0,0.0,0.0,0.0,-6.1699,-6.1705,0.0,0.0,0.0,0.0,0.0,0.0,0.0,0.0,-6.1699,0.0,0.0,0.0,0.0,0.0,0.0,0.0,0.0,0.0,0.0,0.0,0.0,0.0,0.0,0.0,0.0,0.0,0.0,0.0,0.0,0.0,0.0,0.0,0.0,0.0,0.0,0.0,0.0,0.0,0.0,0.0,0.0,0.0,0.0,0.0,0.0,0.0,0.0,0.0,0.0,0.0,0.0,0.0,0.0,0.0,0.0,0.0,0.0,0.0,0.0,0.0,0.0,0.0,0.0,0.0,0.0,-6.1605,-6.0939,-6.0939,-6.1602,-6.0942,-6.0951,-6.1668,-6.1837,-6.1926,-6.1977,0.0,0.0,0.0,0.0,0.0,0.0,0.0,0.0,0.0,0.0,0.0,0.0,0.0,0.0,0.0,0.0,0.0,0.0,0.0,0.0,0.0,0.0,0.0,0.0,0.0,0.0,0.0,0.0,0.0,0.0,0.0,0.0,0.0,0.0,0.0,0.0,0.0,0.0,0.0,-6.1708,-6.1709,0.0,0.0,0.0,0.0,0.0,0.0,0.0,0.0,-6.1707,0.0,0.0,0.0,0.0,0.0,0.0,0.0,0.0,0.0,0.0,0.0,0.0,0.0,0.0,0.0,0.0,0.0,0.0,0.0,0.0,0.0,0.0,0.0,0.0,0.0,0.0,0.0,0.0,0.0,0.0,0.0,0.0,0.0,0.0,0.0,0.0,0.0,0.0,0.0,0.0,0.0,0.0,0.0,0.0,0.0,0.0,0.0,0.0,0.0,0.0,0.0,0.0,0.0,0.0,0.0,-6.0917,-6.0527,-6.0293,-6.0254,-5.9868,-6.0109,-6.0984,-6.1038,-6.1247,0.0,0.0,0.0,0.0,0.0,0.0,0.0,0.0,0.0,0.0,0.0,0.0,0.0,0.0,0.0,0.0,0.0,0.0,0.0,0.0,0.0,0.0,0.0,0.0,0.0,0.0,0.0,0.0,0.0,0.0,0.0,0.0,0.0,0.0,0.0,0.0,0.0,0.0,0.0,0.0,-6.1715,-6.1716,-6.1716,0.0,0.0,0.0,0.0,0.0,0.0,-6.1049,-6.1048,0.0,0.0,0.0,0.0,0.0,0.0,0.0,0.0,0.0,0.0,0.0,0.0,0.0,0.0,0.0,0.0,0.0,0.0,0.0,0.0,0.0,0.0,0.0,0.0,0.0,0.0,0.0,0.0,0.0,0.0,0.0,0.0,0.0,0.0,0.0,0.0,0.0,0.0,0.0,0.0,0.0,0.0,0.0,0.0,0.0,0.0,0.0,0.0,0.0,0.0,0.0,0.0,0.0,0.0,0.0,-6.0343,-6.0105,-5.9677,-5.9018,-5.8823,-5.9264,-6.0343,-6.0357,-6.0798,0.0,0.0,0.0,0.0,0.0,0.0,0.0,0.0,0.0,0.0,0.0,0.0,0.0,0.0,0.0,0.0,0.0,0.0,0.0,0.0,0.0,0.0,0.0,0.0,0.0,0.0,0.0,0.0,0.0,0.0,0.0,0.0,0.0,0.0,0.0,0.0,0.0,0.0,0.0,0.0,0.0,-6.164,-6.1484,-6.1445,0.0,0.0,0.0,0.0,-6.0155,-6.0155,0.0,0.0,0.0,0.0,0.0,0.0,0.0,0.0,0.0,0.0,0.0,0.0,0.0,0.0,0.0,0.0,0.0,0.0,0.0,0.0,0.0,0.0,0.0,0.0,0.0,0.0,0.0,0.0,0.0,0.0,0.0,0.0,0.0,0.0,0.0,0.0,0.0,0.0,0.0,0.0,0.0,0.0,0.0,0.0,0.0,0.0,0.0,0.0,0.0,0.0,0.0,0.0,0.0,0.0,0.0,0.0,-6.0292,-5.9488,-5.9059,-5.8968,-5.8233,-5.8641,-6.0239,-6.0321,-6.0722,0.0,0.0,0.0,0.0,0.0,0.0,0.0,0.0,0.0,0.0,0.0,0.0,0.0,0.0,0.0,0.0,0.0,0.0,0.0,0.0,0.0,0.0,0.0,0.0,0.0,0.0,0.0,0.0,0.0,0.0,0.0,0.0,0.0,0.0,0.0,0.0,0.0,0.0,0.0,0.0,0.0,-6.1445,-6.0664,-6.0547,-6.0312,0.0,0.0,-5.9336,-5.9336,-5.9336,0.0,0.0,0.0,0.0,0.0,0.0,0.0,0.0,0.0,0.0,0.0,0.0,0.0,0.0,0.0,0.0,0.0,0.0,0.0,0.0,0.0,0.0,0.0,0.0,0.0,0.0,0.0,0.0,0.0,0.0,0.0,0.0,0.0,0.0,0.0,0.0,0.0,0.0,0.0,0.0,0.0,0.0,0.0,0.0,0.0,0.0,0.0,0.0,0.0,0.0,0.0,0.0,0.0,0.0,0.0,-6.0895,-5.9555,-5.9116,-5.8454,-5.7536,-5.7147,-5.779,-5.9498,-5.9551,-6.0192,0.0,0.0,0.0,0.0,0.0,0.0,0.0,0.0,0.0,0.0,0.0,0.0,0.0,0.0,0.0,0.0,0.0,0.0,0.0,0.0,0.0,0.0,0.0,0.0,0.0,0.0,0.0,0.0,0.0,0.0,0.0,0.0,0.0,0.0,0.0,0.0,0.0,0.0,0.0,0.0,0.0,0.0,-5.9841,-5.9645,0.0,0.0,0.0,-5.8474,-5.8474,0.0,0.0,0.0,0.0,0.0,0.0,0.0,0.0,0.0,0.0,0.0,0.0,0.0,0.0,0.0,0.0,0.0,0.0,0.0,0.0,0.0,0.0,0.0,0.0,0.0,0.0,0.0,0.0,0.0,0.0,0.0,0.0,0.0,0.0,0.0,0.0,0.0,0.0,0.0,0.0,0.0,0.0,0.0,0.0,0.0,0.0,0.0,0.0,0.0,0.0,0.0,0.0,0.0,0.0,0.0,0.0,0.0,-5.8943,-5.8892,-5.8076,-5.6458,-5.6381,-5.7092,-5.8603,-5.8851,0.0,0.0,0.0,0.0,0.0,0.0,0.0,0.0,0.0,0.0,0.0,0.0,0.0,0.0,0.0,0.0,0.0,0.0,0.0,0.0,0.0,0.0,0.0,0.0,0.0,0.0,0.0,-6.1949,0.0,0.0,0.0,0.0,0.0,0.0,0.0,0.0,0.0,0.0,0.0,0.0,0.0,0.0,-6.0772,-5.9053,-5.8819,-5.8741,0.0,0.0,-5.7569,-5.7569,-5.7569,-5.7569,0.0,0.0,0.0,0.0,0.0,0.0,0.0,0.0,0.0,0.0,0.0,0.0,0.0,0.0,0.0,0.0,0.0,0.0,0.0,0.0,0.0,0.0,0.0,0.0,0.0,0.0,0.0,0.0,0.0,0.0,0.0,0.0,0.0,0.0,0.0,0.0,0.0,0.0,0.0,0.0,0.0,0.0,0.0,0.0,0.0,0.0,0.0,0.0,0.0,0.0,0.0,0.0,0.0,0.0,-6.0585,-5.8991,-5.8843,-5.7981,-5.6386,-5.6308,-5.6747,-5.7676,-5.8493,-5.936,0.0,0.0,0.0,0.0,0.0,0.0,0.0,0.0,0.0,0.0,0.0,0.0,0.0,0.0,0.0,0.0,0.0,0.0,0.0,0.0,0.0,0.0,0.0,0.0,0.0,0.0,0.0,0.0,0.0,0.0,0.0,0.0,0.0,0.0,0.0,0.0,0.0,0.0,0.0,0.0,0.0,-5.9875,-5.8194,-5.7999,-5.7686,0.0,-5.671,-5.6671,-5.671,-5.6671,-5.6671,-5.6671,0.0,0.0,0.0,0.0,0.0,0.0,0.0,0.0,0.0,0.0,0.0,0.0,0.0,0.0,0.0,0.0,0.0,0.0,0.0,0.0,0.0,0.0,0.0,0.0,0.0,0.0,0.0,0.0,0.0,0.0,0.0,0.0,0.0,0.0,0.0,0.0,0.0,0.0,0.0,0.0,0.0,0.0,0.0,0.0,0.0,0.0,0.0,0.0,0.0,0.0,0.0,0.0,0.0,-6.0546,-5.8875,-5.8823,-5.7968,-5.6388,-5.631,-5.6718,-5.757,-5.8465,-5.9332,0.0,0.0,0.0,0.0,0.0,0.0,0.0,0.0,0.0,0.0,0.0,0.0,0.0,0.0,0.0,0.0,0.0,0.0,0.0,0.0,0.0,0.0,0.0,0.0,0.0,0.0,0.0,0.0,-6.0112,-5.98,-6.0346,0.0,0.0,0.0,0.0,0.0,0.0,0.0,0.0,0.0,0.0,-5.98,-5.808,-5.7377,0.0,0.0,-5.6558,-5.6519,-5.6558,-5.6519,-5.6558,-5.6519,-5.6558,0.0,0.0,0.0,0.0,0.0,0.0,0.0,0.0,0.0,0.0,0.0,0.0,0.0,0.0,0.0,0.0,0.0,0.0,0.0,0.0,0.0,0.0,0.0,0.0,0.0,0.0,0.0,0.0,0.0,0.0,0.0,0.0,0.0,0.0,0.0,0.0,0.0,0.0,0.0,0.0,0.0,0.0,0.0,0.0,0.0,0.0,0.0,0.0,0.0,0.0,0.0,0.0,-6.0536,-5.8835,-5.8796,-5.7994,-5.633,-5.6291,-5.6576,-5.7223,-5.8046,-5.8913,0.0,0.0,0.0,0.0,0.0,0.0,0.0,0.0,0.0,0.0,0.0,0.0,0.0,0.0,0.0,0.0,0.0,0.0,0.0,0.0,0.0,0.0,0.0,0.0,0.0,0.0,0.0,0.0,-5.9411,-5.9059,-5.9921,0.0,0.0,0.0,0.0,0.0,0.0,0.0,0.0,0.0,0.0,-5.984,-5.8393,-5.7457,-5.6872,-5.6872,-5.6677,-5.6485,-5.6485,-5.6485,-5.6485,-5.6485,0.0,0.0,0.0,0.0,0.0,0.0,0.0,0.0,0.0,0.0,0.0,0.0,0.0,0.0,0.0,0.0,0.0,0.0,0.0,0.0,0.0,0.0,0.0,0.0,0.0,0.0,0.0,-6.1478,0.0,0.0,-6.1389,0.0,0.0,0.0,0.0,0.0,0.0,0.0,0.0,0.0,0.0,0.0,0.0,0.0,0.0,0.0,0.0,0.0,0.0,0.0,0.0,0.0,0.0,-6.0468,-5.8838,-5.8799,-5.7998,-5.6369,-5.6291,-5.633,-5.6369,-5.7191,-5.8027,-5.8952,0.0,0.0,0.0,0.0,0.0,0.0,0.0,0.0,0.0,0.0,0.0,0.0,0.0,0.0,0.0,0.0,0.0,0.0,0.0,0.0,0.0,0.0,0.0,0.0,0.0,0.0,-6.0386,-5.8825,-5.8162,0.0,0.0,0.0,0.0,0.0,0.0,0.0,0.0,0.0,-6.0577,-6.0382,-6.0074,-5.9215,-5.8315,-5.7769,-5.7769,-5.7067,-5.6521,-5.6521,-5.6521,-5.6485,0.0,0.0,0.0,0.0,0.0,0.0,0.0,0.0,0.0,0.0,0.0,0.0,0.0,0.0,0.0,0.0,0.0,0.0,0.0,0.0,0.0,0.0,0.0,0.0,0.0,0.0,0.0,-6.1383,-6.1383,0.0,0.0,0.0,0.0,0.0,0.0,0.0,0.0,0.0,0.0,0.0,-6.1322,-6.1322,0.0,0.0,0.0,0.0,0.0,0.0,0.0,0.0,0.0,0.0,0.0,0.0,-6.0452,-5.8839,-5.8762,-5.7916,-5.6294,-5.6245,-5.6219,-5.6258,-5.7101,-5.8286,-5.9653,0.0,0.0,0.0,0.0,0.0,0.0,0.0,0.0,0.0,0.0,0.0,0.0,0.0,0.0,0.0,0.0,0.0,0.0,0.0,0.0,0.0,0.0,0.0,0.0,0.0,-5.9931,0.0,0.0,0.0,0.0,0.0,0.0,0.0,0.0,0.0,0.0,0.0,-6.1513,-6.124,-6.0694,-6.0231,-5.9954,-5.9135,-5.8589,0.0,0.0,0.0,0.0,0.0,0.0,0.0,0.0,0.0,0.0,0.0,0.0,0.0,0.0,-6.1317,-6.018,-5.9516,-5.8772,-5.7593,0.0,0.0,0.0,0.0,0.0,0.0,0.0,0.0,0.0,0.0,0.0,0.0,0.0,0.0,-6.1297,-6.1297,-6.1297,0.0,0.0,0.0,0.0,0.0,0.0,0.0,0.0,-6.1297,-6.1289,-6.1272,-6.1272,-6.1264,-6.1255,-6.1217,-6.1255,0.0,0.0,0.0,0.0,0.0,0.0,0.0,0.0,-6.0528,-5.918,-5.8831,-5.7986,-5.6684,-5.6357,-5.6216,-5.6223,-5.7074,-5.8227,-5.9593,-6.0475,-6.1065,0.0,0.0,0.0,0.0,0.0,0.0,0.0,0.0,0.0,0.0,0.0,0.0,0.0,0.0,0.0,0.0,0.0,0.0,0.0,0.0,0.0,0.0,0.0,-5.8909,0.0,0.0,0.0,0.0,0.0,0.0,0.0,0.0,0.0,-6.1573,-6.1544,-6.1578,-6.1578,-6.1071,-6.0726,-6.0697,0.0,0.0,0.0,0.0,0.0,0.0,0.0,-5.7983,-5.7442,-5.7788,-5.8451,-5.9308,-6.0647,-6.1591,-6.1591,0.0,0.0,-5.9251,-5.8396,-5.7538,-5.668,-5.6485,-5.6482,-5.6475,-5.6471,-5.6471,0.0,0.0,0.0,0.0,-6.1297,0.0,0.0,0.0,-6.1297,-6.1297,0.0,-6.1289,0.0,0.0,0.0,0.0,-6.1297,-6.1297,0.0,0.0,-6.1289,-6.1272,-6.1182,-6.1182,-6.1155,-6.1079,-6.1079,-6.1079,-6.1089,-6.1255,0.0,0.0,0.0,0.0,0.0,0.0,-6.0711,-5.9865,-5.9022,-5.8225,-5.7405,-5.6598,-5.6218,-5.6218,-5.7038,-5.7928,-5.8771,-5.9671,-6.0487,-6.1335,-6.1412,0.0,0.0,0.0,0.0,0.0,0.0,0.0,0.0,0.0,0.0,0.0,0.0,0.0,0.0,0.0,0.0,0.0,0.0,0.0,0.0,-6.0394,0.0,0.0,0.0,0.0,0.0,0.0,0.0,0.0,0.0,-6.1478,-6.1478,-6.1484,-6.1484,-6.1484,0.0,0.0,0.0,0.0,-6.0326,-6.0356,-5.962,-5.9074,-5.9035,-5.9035,-5.9035,-5.9001,0.0,0.0,-6.0204,-6.1023,-6.1568,-6.1568,-6.091,-6.0066,-5.9322,-5.8432,-5.7535,-5.6677,-5.6478,-5.6475,-5.6496,-5.6492,-5.6488,-6.1128,0.0,0.0,0.0,0.0,-6.1164,-6.1164,-6.1164,-6.1155,-6.1164,-6.1164,-6.1155,0.0,0.0,0.0,0.0,0.0,0.0,-6.1155,-6.1164,-6.1164,-6.1155,-6.1137,-6.1137,-6.1127,-6.1118,-6.1118,-6.1118,-6.1118,-6.1146,-6.1155,-6.1137,0.0,0.0,0.0,0.0,-6.0702,-5.9898,-5.9056,-5.8205,-5.7362,-5.6543,-5.6149,-5.618,-5.7009,-5.7831,-5.8699,-5.9622,-6.049,-6.1298,-6.1366,0.0,0.0,0.0,0.0,0.0,0.0,0.0,0.0,0.0,0.0,0.0,0.0,0.0,0.0,0.0,0.0,0.0,0.0,0.0,-6.0122,-5.9338,-5.8204,0.0,0.0,0.0,0.0,0.0,0.0,0.0,0.0,0.0,-6.1447,-6.1453,-6.1484,0.0,0.0,-6.1484,-6.1495,-6.1301,-6.1156,-6.1149,-6.096,0.0,-6.001,-5.9932,-5.9698,-5.9113,-5.9503,-6.0204,-6.1062,-6.1451,-6.1568,-6.1568,-6.0867,-6.0209,-5.9949,-5.8745,-5.7537,-5.6718,-5.6484,-5.6484,-5.6476,-5.6476,-5.6476,-6.1029,-6.1051,-6.108,-6.1051,-6.1051,-6.1109,-6.1118,-6.1118,-6.1118,-6.1118,-6.1118,-6.1118,-6.1118,-6.1118,-6.1118,0.0,0.0,0.0,-6.1118,-6.1118,-6.1118,-6.1118,-6.1118,-6.1118,-6.1118,-6.1118,-6.1118,-6.1118,-6.1118,-6.1118,-6.1118,-6.1118,0.0,-6.1118,-6.1118,-6.1118,-6.0847,-6.0344,-5.9532,-5.8836,-5.8333,-5.7198,-5.6613,-5.6691,-5.7164,-5.7947,-5.9165,-5.977,-6.0445,-6.126,-6.1361,-6.1376,0.0,0.0,0.0,0.0,0.0,0.0,0.0,0.0,0.0,0.0,0.0,-6.1484,-6.1484,0.0,0.0,0.0,-6.1447,-6.0896,-5.9497,-5.9069,0.0,0.0,0.0,0.0,0.0,0.0,0.0,-6.1257,-6.1412,-6.1412,-6.1419,-6.1415,-6.148,-6.148,-6.148,-6.1447,-6.146,0.0,-6.1478,-6.1507,-6.1512,-6.1328,-6.0848,-6.0775,-6.0585,-6.0126,-6.0477,-6.0945,-6.1451,-6.1568,-6.1568,-6.1529,-6.1179,-6.0711,-6.036,-5.9425,-5.8451,-5.7676,-5.7208,-5.6974,-5.6974,-5.6702,-5.6507,-6.0965,-6.0976,-6.1,-6.0992,-6.1002,-6.109,-6.1099,-6.1109,-6.1099,-6.1099,-6.1109,-6.1109,-6.1118,-6.1118,-6.1118,0.0,-6.1118,-6.1118,-6.1118,-6.1118,-6.1118,-6.1118,-6.1118,-6.1118,-6.1118,-6.1118,-6.1118,-6.1118,-6.1118,-6.1109,-6.1109,-6.107,-6.1109,-6.1109,-6.1118,-6.1118,-6.1118,-6.1079,-6.0306,-5.988,-5.9764,-5.8255,-5.7461,-5.7503,-5.7503,-5.8294,-5.9885,-6.001,-6.0397,-6.122,-6.1297,-6.1314,-6.1314,0.0,0.0,0.0,0.0,0.0,0.0,0.0,0.0,0.0,0.0,0.0,0.0,0.0,0.0,0.0,-6.1401,0.0,-6.0176,-5.936,0.0,0.0,0.0,-5.8318,-5.9943,-6.0099,-6.0448,-6.1296,0.0,0.0,-6.1412,-6.1412,-6.1412,-6.1412,-6.1412,-6.1388,-6.1389,-6.1389,-6.1441,-6.1472,-6.1478,-6.149,-6.1406,-6.1412,-6.1417,-6.1398,-6.1602,-6.1525,-6.1564,-6.1568,-6.1568,-6.1568,-6.1568,-6.1334,-6.0555,-6.0399,-6.0165,-5.9347,-5.8451,-5.7788,-5.7793,-5.7286,-5.6858,-6.0711,-6.0724,-6.0804,-6.0894,-6.1018,-6.1029,-6.1039,-6.1029,-6.1029,-6.1029,-6.1039,-6.1041,-6.1041,-6.1118,-6.1118,-6.1118,-6.1118,-6.1118,-6.1118,-6.1118,-6.1118,-6.1118,-6.1118,-6.1118,-6.1118,-6.1118,-6.1118,-6.1118,-6.1118,-6.1041,-6.1022,-6.1022,-6.101,-6.1031,-6.1109,-6.1118,-6.1118,-6.1118,-6.0306,-5.9571,-5.8913,-5.8488,-5.8303,-5.8312,-5.8312,-5.8824,-5.9878,-5.9951,-6.0356,-6.1169,-6.1281,-6.1306,-6.1314,-6.1314,0.0,0.0,0.0,0.0,0.0,0.0,0.0,0.0,0.0,-6.144,-6.144,0.0,-6.1401,0.0,-6.1419,-6.1031,-6.0176,-5.9904,0.0,0.0,-5.8622,-5.8933,-5.9982,-6.0099,-6.0448,-6.1296,-6.1412,-6.1412,-6.1412,-6.1412,-6.1412,-6.1412,-6.1412,-6.1419,-6.1388,-6.1394,-6.1401,-6.1441,-6.1408,-6.146,-6.149,-6.1495,-6.1495,-6.154,-6.1523,-6.1539,-6.1539,-6.1559,-6.1568,-6.1568,-6.1568,-6.149,-6.1295,-6.1295,-6.1218,-6.0945,-5.9737,-5.8689,-5.8685,-5.849,-5.8373,-6.0623,-6.0623,-6.066,-6.0734,-6.0843,-6.0944,-6.0987,-6.0987,-6.0987,-6.0987,-6.0997,-6.099,-6.1021,-6.1089,-6.1051,-6.1041,-6.1051,-6.1051,-6.1041,-6.1051,-6.1079,-6.1041,-6.1041,-6.1041,-6.1051,-6.1041,-6.1079,-6.1051,-6.1041,-6.1021,-6.1,-6.1,-6.1008,-6.1018,-6.1041,-6.1079,-6.1089,-6.1051,-6.0626,-5.9978,-5.9195,-5.9118,-5.9166,-5.9184,-5.9184,-5.9571,-6.0422,-6.0449,-6.0652,-6.1116,-6.1182,-6.1208,-6.1264,-6.1264,-6.125,0.0,0.0,0.0,0.0,0.0,0.0,0.0,0.0,0.0,0.0,0.0,-6.1412,-6.1412,-6.1412,-6.1218,-6.072,-6.0332,-6.006,-5.9982,-5.9593,-5.971,-6.0604,-6.0681,-6.0875,-6.1335,-6.1412,-6.1412,-6.1412,-6.1412,-6.1412,-6.1412,-6.1412,-6.1412,-6.1412,-6.1412,-6.1388,-6.1408,-6.1408,-6.1421,-6.1453,-6.1472,-6.1484,-6.1484,-6.1495,-6.1512,-6.1512,-6.1523,-6.1573,-6.1573,-6.1573,-6.1573,-6.1573,-6.1534,-6.1534,-6.1417,-6.0794,-6.0064,-5.9654,-5.9269,-5.9001,-6.0597,-6.0559,-6.0559,-6.0572,-6.0623,-6.0854,-6.0944,-6.0944,-6.0955,-6.0965,-6.0987,-6.0987,-6.0987,-6.0987,-6.0987,-6.0987,-6.0987,-6.0987,-6.0987,-6.0987,-6.0987,-6.0987,-6.0987,-6.0987,-6.0987,-6.0987,-6.0987,-6.0987,-6.0987,-6.0987,-6.0976,-6.0976,-6.0976,-6.0965,-6.0965,-6.0965,-6.0976,-6.0987,-6.0987,-6.0671,-5.9988,-5.9949,-5.9978,-6.0026,-6.0026,-6.0374,-6.1041,-6.1118,-6.1118,-6.1118,-6.1118,-6.1137,-6.1173,-6.1173,-6.1238,0.0,-6.1289,0.0,0.0,0.0,0.0,0.0,0.0,0.0,0.0,-6.1412,-6.1412,-6.1412,-6.1412,-6.1412,-6.1412,-6.072,-6.0565,-6.1296,-6.072,-6.0565,-6.1296,-6.1412,-6.1412,-6.1412,-6.1412,-6.1412,-6.1412,-6.1412,-6.1412,-6.1412,-6.1412,-6.1412,-6.1412,-6.1412,-6.1412,-6.1412,-6.1412,-6.1394,-6.1421,-6.1453,-6.1466,-6.1466,-6.1472,-6.1478,-6.1478,-6.1484,-6.1484,-6.1484,-6.1484,-6.1484,-6.1484,-6.1484,-6.1484,-6.1484,-6.1412,-6.1151,-6.057,-5.9957,-5.9338,-6.045,-6.0464,-6.048,-6.0506,-6.0545,-6.061,-6.0699,-6.066,-6.0722,-6.0804,-6.0922,-6.0922,-6.0955,-6.0987,-6.0987,-6.0987,-6.0987,-6.0987,-6.0987,-6.0987,-6.0987,-6.0987,-6.0987,-6.0987,-6.0987,-6.0987,-6.0987,-6.0987,-6.0987,-6.0944,-6.0922,-6.0922,-6.0877,-6.0816,-6.0816,0.0,0.0,0.0,-6.0987,-6.092,-6.0776,-6.0776,-6.0769,-6.079,-6.079,0.0,-6.1079,-6.1118,-6.1118,-6.1118,-6.1118,0.0,0.0,0.0,0.0,0.0,0.0,0.0,0.0,0.0,0.0,0.0,-6.1329,-6.1344,-6.1412,-6.1412,-6.1412,-6.1412,-6.1412,-6.1412,-6.1412,-6.1264,-6.1225,-6.1373,-6.1257,-6.1218,-6.1373,-6.1412,-6.1412,-6.1412,-6.1412,-6.1412,-6.1412,-6.1412,-6.1412,-6.1412,-6.1412,-6.1412,-6.1412,-6.1412,-6.1412,-6.1412,-6.1412,-6.1419,-6.1388,-6.1394,-6.1401,-6.1401,-6.1428,-6.1441,-6.1447,-6.1466,-6.1478,-6.1478,-6.1484,-6.1478,-6.1478,-6.1484,-6.1478,-6.1484,-6.1478,-6.1445,-6.1301,-6.1151,-6.1034,-6.0384,-6.0384,-6.0412,-6.0425,0.0,-6.0504,-6.0518,-6.0531,-6.0636,-6.0673,-6.0734,-6.0769,-6.0804,-6.0866,-6.09,-6.0911,-6.0911,-6.0911,-6.0911,-6.0911,-6.0911,-6.0911,-6.0911,-6.0911,-6.0911,-6.0911,-6.0872,-6.0872,-6.0872,-6.0839,-6.0866,-6.0866,-6.0843,-6.0781,-6.0781,-6.0781,-6.0816,-6.0911,-6.0911,-6.0922,-6.0955,-6.0955,-6.0976,-6.1,-6.0992,0.0,0.0,0.0,0.0,0.0,0.0,0.0,0.0,-6.1118,0.0,-6.1146,-6.1155,-6.1173,-6.1255,-6.1264,-6.1281,-6.1291,-6.1291,-6.1353,-6.1412,-6.1412,-6.1412,-6.1412,-6.1412,-6.1412,-6.1412,-6.1412,-6.1412,-6.1412,-6.1412,-6.1412,-6.1412,-6.1412,-6.1412,-6.1412,-6.1412,-6.1412,-6.1412,-6.1412,-6.1412,-6.1412,-6.1412,-6.1412,-6.1412,-6.1412,-6.1412,-6.1412,-6.1412,-6.1412,-6.1412,-6.1412,-6.1412,-6.1419,-6.1394,-6.1408,-6.1408,-6.1421,-6.1428,-6.1434,-6.1428,-6.1434,-6.1434,-6.1434,-6.1434,-6.1434,-6.1434,-6.1434,-6.1434,-6.1499,-6.1484,-6.0394,-6.0394,-6.0408,-6.0384,-6.0384,-6.0384,-6.0384,-6.0384,-6.0506,0.0,0.0,-6.0648,-6.0673,-6.0685,-6.0734,-6.0757,-6.0808,-6.0769,-6.0808,-6.0781,-6.0781,-6.0781,-6.0781,-6.0781,-6.0781,-6.0781,-6.0781,-6.0781,-6.0781,-6.0781,-6.0781,-6.0781,-6.0781,-6.0781,-6.0781,-6.0781,-6.0781,-6.0781,-6.0781,-6.0804,-6.0888,-6.0888,-6.0922,-6.0976,-6.099,-6.0982,-6.1002,-6.1041,-6.107,-6.1118,-6.1118,-6.1118,-6.1118,-6.1118,-6.1118,-6.1118,-6.1118,-6.1137,-6.1173,-6.1173,-6.1191,-6.1281,-6.1297,-6.133,-6.1391,-6.1359,-6.1398,-6.1359,-6.1398,-6.1398,-6.1398,-6.1398,-6.1398,-6.1398,-6.1398,-6.1398,-6.1398,-6.1398,-6.1391,-6.1398,-6.1391,-6.1359,-6.1391,-6.1391,-6.1398,-6.1391,-6.1391,-6.1398,-6.1405,-6.1412,-6.1412,-6.1412,-6.1412,-6.1412,-6.1412,-6.1412,-6.1412,-6.1412,-6.1412,-6.1412,-6.1412,-6.1412,-6.1412,-6.1419,-6.1412,-6.1419,-6.1419,-6.1419,-6.1412,-6.1412,-6.1412,-6.1412,-6.1419,-6.1421,-6.146,-6.0308,-6.0308,-6.038,-6.0384,-6.0384,-6.0384,-6.0384,-6.0384,-6.0466,-6.0533,-6.0623,-6.0623,-6.0597,-6.0597,-6.0649,-6.0648,-6.071,-6.071,-6.0734,-6.0781,-6.0781,-6.0781,-6.0781,-6.0781,-6.0781,-6.0781,-6.0781,-6.0781,-6.0781,-6.0781,-6.0781,-6.0781,-6.0781,-6.0781,-6.0781,-6.0781,-6.0781,-6.0781,-6.0781,-6.0793,-6.0793,-6.0831,-6.0866,-6.0922,-6.0894,-6.0948,-6.1002,-6.1012,-6.1032,-6.1109,-6.1118,-6.1118,-6.1118,-6.1118,-6.1118,-6.1118,-6.1118,-6.1079,-6.1127,-6.1127,-6.1146,-6.1229,-6.1272,-6.1306,-6.1314,-6.1322,-6.1314,-6.1322,-6.1322,-6.1322,-6.1314,-6.1322,-6.1322,-6.1322,-6.1322,-6.1322,-6.1322,-6.1322,-6.1322,-6.1322,-6.1314,-6.1322,-6.1322,-6.1322,-6.1322,-6.1322,-6.133,-6.133,-6.1329,-6.1359,-6.1412,-6.1412,-6.1412,-6.1412,-6.1412,-6.1412,-6.1412,-6.1412,-6.1412,-6.1412,-6.1412,-6.1412,-6.1412,-6.1412,-6.1412,-6.1412,-6.1412,-6.1412,-6.1412,-6.1412,-6.1412,-6.1412,-6.1412,-6.1388,-6.1433,-6.0182,-6.0197,-6.0308,-6.0352,-6.0352,-6.0356,-6.0384,-6.0384,-6.045,-6.0439,-6.0518,-6.052,-6.052,-6.0533,-6.0559,-6.0597,-6.0635,-6.0635,-6.0686,-6.0711,-6.0711,-6.0711,-6.0673,-6.0673,-6.0673,-6.0673,-6.0722,-6.0734,-6.0734,-6.0769,-6.0781,-6.0781,-6.0781,-6.0781,-6.0781,-6.0781,-6.0781,-6.0781,-6.0781,-6.0781,-6.0781,-6.0781,-6.0831,-6.0866,-6.0888,-6.0944,-6.099,-6.1021,-6.1032,-6.1118,-6.1118,-6.1118,-6.1118,-6.1118,-6.1118,-6.1118,-6.1118,-6.1118,-6.1118,-6.1118,-6.1127,-6.1146,-6.1173,-6.1182,-6.1182,-6.1272,-6.1297,-6.1297,-6.1297,-6.1297,-6.1297,-6.1297,-6.1297,-6.1297,-6.1297,-6.1297,-6.1297,-6.1297,-6.1297,-6.1297,-6.1297,-6.1297,-6.1297,-6.1297,-6.1297,-6.1297,-6.1297,-6.1306,-6.133,-6.1322,-6.1352,-6.1412,-6.1412,-6.1412,-6.1412,-6.1412,-6.1412,-6.1412,-6.1412,-6.1412,-6.1412,-6.1412,-6.1412,-6.1412,-6.1412,-6.1412,-6.1412,-6.1412,-6.1412,-6.1412,-6.1412,-6.1412,-6.1412,-6.1412,-6.1412,-6.0068,-6.0068,-6.0197,-6.0264,-6.0264,-6.0352,-6.0394,-6.0394,-6.0408,-6.0384,-6.0422,-6.0477,-6.0491,-6.0504,-6.0545,-6.0546,-6.0597,-6.0559,-6.0572,-6.0623,-6.0623,-6.0623,-6.0623,-6.0623,-6.0623,-6.0623,-6.0648,-6.0673,-6.0673,-6.0734,-6.0808,-6.0781,-6.0781,-6.0781,-6.0781,-6.0781,-6.0781,-6.0781,-6.0781,-6.0781,-6.0781,-6.0781,-6.0781,-6.0781,-6.0866,-6.0922,-6.0976,-6.099,-6.1012,-6.106,-6.1109,-6.1118,-6.1118,-6.1118,-6.1118,-6.1118,-6.1118,-6.1118,-6.1118,-6.1118,-6.1118,-6.1118,-6.1118,-6.1118,-6.1127,-6.1191,-6.1272,-6.1272,-6.1264,-6.1264,-6.1264,-6.1264,-6.1272,-6.1272,-6.1272,-6.1264,-6.1272,-6.1272,-6.1272,-6.1272,-6.1234,-6.1225,-6.1234,-6.1234,-6.1264,-6.1264,-6.1272,-6.1281,-6.1289,-6.1399,-6.1586,-6.1577,-6.1522,-6.1412,-6.1412,-6.1412,-6.1412,-6.1412,-6.1412,-6.1412,-6.1412,-6.1412,-6.1412,-6.1412,-6.1412,-6.1412,-6.1412,-6.1412,-6.1412,-6.1412,-6.1412,-6.1412,-6.1412,-6.1412,-6.1412,-6.0029,-6.0007,-6.0068,-6.0099,-6.0114,-6.0226,-6.027,-6.027,-6.038,-6.0384,-6.0346,-6.0384,-6.0422,-6.0384,-6.0436,-6.0477,-6.0493,-6.0493,-6.052,-6.0572,-6.0623,-6.0623,-6.061,-6.0572,-6.0623,-6.0572,-6.0585,-6.0597,-6.0597,-6.0673,-6.0734,-6.0781,-6.0781,-6.0781,-6.0781,-6.0781,-6.0781,-6.0781,-6.0781,-6.0781,-6.0781,-6.0781,-6.0781,-6.0781,-6.0793,-6.0854,-6.0922,-6.0976,-6.099,-6.1012,-6.1051,-6.1118,-6.1118,-6.1118,-6.1118,-6.1118,-6.1118,-6.1118,-6.1118,-6.1118,-6.1118,-6.1118,-6.1118,-6.1118,-6.1118,-6.1127,-6.1127,-6.1137,-6.1137,-6.1137,-6.1127,-6.1137,-6.1137,-6.1146,-6.1137,-6.1127,-6.1137,-6.1127,-6.1127,-6.1127,-6.1146,-6.1127,-6.1146,-6.1146,-6.1137,-6.1262,-6.1328,-6.1423,-6.1548,-6.2009,-6.2383,-6.2291,-6.1904,-6.156,-6.1568,-6.1412,-6.1638,-6.156,-6.1451,-6.1599,-6.167,-6.1599,-6.1451,-6.1857,-6.1599,-6.1638,-6.1599,-6.1412,-6.1529,-6.1755,-6.1723,-6.149,-6.1412,-6.1568,-6.1606,-5.995,-5.995,-6.0029,-6.0053,-6.0061,-5.9716,-5.9531,-5.9531,-5.9616,-5.9644,-5.972,-6.0141,-6.0384,-6.0384,-6.0384,-6.0398,-6.0412,-6.0425,-6.0439,-6.0504,-6.0466,-6.0504,-6.0504,-6.0504,-6.0466,-6.0504,-6.0506,-6.0558,-6.0584,-6.0635,-6.071,-6.0734,-6.0769,-6.0781,-6.0781,-6.0781,-6.0781,-6.0781,-6.0781,-6.0781,-6.0781,-6.0781,-6.0781,-6.0781,-6.0781,-6.0854,-6.0911,-6.0933,-6.0976,-6.099,-6.1041,-6.1032,-6.1032,-6.1099,-6.1118,-6.1118,-6.1118,-6.1118,-6.1118,-6.1118,-6.1118,-6.1118,-6.1118,-6.1118,-6.1118,-6.1118,-6.1118,-6.1118,-6.1118,-6.1118,-6.1118,-6.1118,-6.1118,-6.1118,-6.1118,-6.1118,-6.1118,-6.1118,-6.1118,-6.1118,-6.1118,-6.1118,-6.1118,-6.1118,-6.1311,-6.1698,-6.191,-6.2075,-6.2548,-6.3011,-6.3154,-6.3201,-6.2973,-6.2866,-6.2812,-6.2828,-6.2836,-6.2843,-6.2836,-6.282,-6.2742,-6.282,-6.2812,-6.2781,-6.2703,-6.2703,-6.2889,-6.2843,-6.2859,-6.282,-6.2881,-6.2934,-6.2934,-6.2934,-6.2779,-6.0243,-6.0205,-6.0064,-6.0013,-6.0,-5.9534,-5.9197,-5.8968,-5.9054,-5.8981,-5.8842,-5.9453,-5.972,-5.9759,-6.0179,-6.0384,-6.0384,-6.0384,-6.0384,-6.0384,-6.0179,-6.0026,-6.0026,-6.0026,-6.0026,-6.0078,-6.0349,-6.0504,-6.0493,-6.0597,-6.0673,-6.0697,-6.0757,-6.0781,-6.0781,-6.0781,-6.0781,-6.0819,-6.1012,-6.1166,-6.1204,-6.1396,-6.1396,-6.1204,-6.1396,-6.1535,-6.1532,-6.1554,-6.1627,-6.1659,-6.1685,-6.1687,-6.1697,-6.1776,-6.1679,-6.1505,-6.1466,-6.135,-6.1118,-6.1118,-6.1118,-6.1118,-6.1118,-6.1118,-6.1118,-6.1118,-6.1118,-6.1118,-6.1311,-6.1427,-6.1118,-6.1118,-6.1118,-6.1118,-6.1118,-6.1118,-6.1118,-6.1118,-6.1195,-6.1389,-6.1543,-6.1582,-6.1776,-6.1892,-6.2162,-6.2627,-6.2781,-6.2936,-6.3603,-6.3864,-6.4038,-6.4077,-6.4259,-6.4265,-6.3998,-6.3688,-6.3834,-6.3843,-6.3718,-6.3662,-6.3809,-6.377,-6.377,-6.3369,-6.3701,-6.3731,-6.3477,-6.3657,-6.3906,-6.3867,-6.393,-6.3961,-6.3728,-6.3891,-6.3704,-6.106,-6.0963,-6.0243,-6.0015,-5.9918,-6.0038,-5.9642,-5.9101,-5.9116,-5.8727,-5.8192,-5.8154,-5.8077,-5.8307,-5.9759,-6.0384,-6.0346,-6.0269,-6.0231,-6.0193,-5.9529,-5.9185,-5.9172,-5.9172,-5.9224,-5.9453,-6.0116,-6.0464,-6.0518,-6.0559,-6.0623,-6.0697,-6.0757,-6.0781,-6.0781,-6.0781,-6.0819,-6.0935,-6.1601,-6.2024,-6.2127,-6.2781,-6.2781,-6.2243,-6.2743,-6.3089,-6.3128,-6.3226,-6.3222,-6.3261,-6.3241,-6.3334,-6.3426,-6.3397,-6.3041,-6.2462,-6.2356,-6.1969,-6.1273,-6.1195,-6.1157,-6.1118,-6.1118,-6.1118,-6.1118,-6.1118,-6.1157,-6.1118,-6.1853,-6.193,-6.1427,-6.1427,-6.135,-6.1311,-6.1195,-6.1234,-6.1195,-6.135,-6.1543,-6.2124,-6.2356,-6.2588,-6.3362,-6.3603,-6.3487,-6.3603,-6.3642,-6.3758,-6.399,-6.4532,-6.4841,-6.5035,-6.5354,-6.5529,-6.4218,-6.4179,-6.411,-6.4158,-6.4382,-6.3994,-6.3848,-6.3809,-6.3886,-6.3955,-6.414,-6.414,-6.3917,-6.3886,-6.405,-6.4136,-6.4214,-6.4239,-6.4543,-6.4116,-6.3969,-6.1932,-6.1932,-6.1629,-6.1515,-6.1456,-6.1086,-6.0746,-6.0456,-6.007,-5.9759,-5.9529,-5.9505,-5.9491,-5.9529,-6.0116,-5.9797,-5.8842,-5.8803,-5.8803,-5.8842,-5.8994,-5.9095,-5.9185,-5.9644,-5.9911,-5.9988,-6.0255,-6.0422,-6.0464,-6.052,-6.0597,-6.0635,-6.0734,-6.0781,-6.0781,-6.0781,-6.105,-6.1601,-6.1973,-6.2358,-6.2897,-6.3705,-6.3974,-6.3705,-6.3435,-6.3308,-6.3308,-6.3332,-6.3318,-6.3344,-6.3415,-6.3461,-6.3483,-6.3548,-6.3495,-6.3284,-6.3207,-6.2859,-6.2085,-6.193,-6.166,-6.1157,-6.1118,-6.1118,-6.1118,-6.1118,-6.1311,-6.1853,-6.2162,-6.2394,-6.2781,-6.2781,-6.2743,-6.2752,-6.2743,-6.2665,-6.2743,-6.2743,-6.2897,-6.3168,-6.3245,-6.34,-6.3681,-6.3719,-6.3913,-6.4416,-6.4522,-6.4715,-6.518,-6.5605,-6.5721,-6.5799,-6.5992,-6.6002,-6.5567,-6.5383,-6.5354,-6.5412,-6.5451,-6.5393,-6.5277,-6.5161,-6.5199,-6.5131,-6.5093,-6.5054,-6.5015,-6.5082,-6.5091,-6.5157,-6.5204,-6.5041,-6.5511,-6.5123,-6.4976,-6.2635,-6.2425,-6.2425,-6.2425,-6.2366,-6.1961,-6.1659,-6.137,-6.0962,-6.0651,-6.046,-6.0384,-6.0255,-6.0026,-5.9988,-5.9262,-5.8077,-5.8459,-5.8727,-5.8727,-5.8994,-5.9095,-5.9224,-5.9682,-5.995,-6.0026,-6.0293,-6.0384,-6.0398,-6.0558,-6.061,-6.0623,-6.076,-6.0935,-6.1166,-6.1204,-6.1666,-6.2358,-6.2743,-6.3205,-6.3782,-6.4589,-6.5013,-6.4936,-6.4436,-6.4128,-6.4128,-6.4166,-6.4128,-6.4128,-6.4176,-6.4212,-6.4259,-6.4348,-6.4317,-6.4135,-6.4106,-6.3719,-6.2936,-6.2549,-6.2124,-6.1582,-6.1234,-6.1195,-6.1427,-6.1543,-6.1969,-6.2588,-6.3129,-6.3555,-6.399,-6.4329,-6.429,-6.3874,-6.3681,-6.3681,-6.3681,-6.3681,-6.3835,-6.4106,-6.4406,-6.4522,-6.4493,-6.4532,-6.4803,-6.5334,-6.5412,-6.5644,-6.6069,-6.6185,-6.6185,-6.6185,-6.6147,-6.6185,-6.5963,-6.5857,-6.5857,-6.5916,-6.5925,-6.6118,-6.6185,-6.6185,-6.6185,-6.6185,-6.6185,-6.6185,-6.6195,-6.6264,-6.6293,-6.6331,-6.6089,-6.5809,-6.6069,-6.6203,-6.5863,-6.3183,-6.2597,-6.2463,-6.2614,-6.2648,-6.2721,-6.223,-6.1766,-6.1711,-6.1402,-6.0957,-6.0613,-6.0293,-5.9529,-5.972,-5.8918,-5.8741,-5.9811,-6.0193,-5.9873,-5.9376,-5.9095,-5.9133,-5.93,-5.9376,-5.9415,-6.0026,-6.0384,-6.0384,-6.0634,-6.0738,-6.0687,-6.0952,-6.1473,-6.2101,-6.2139,-6.2474,-6.3281,-6.4012,-6.4474,-6.4705,-6.5397,-6.5782,-6.5782,-6.5705,-6.5667,-6.5782,-6.5743,-6.5667,-6.5705,-6.5743,-6.5883,-6.5797,-6.5876,-6.5698,-6.5092,-6.4986,-6.4571,-6.3797,-6.3052,-6.2665,-6.2317,-6.1698,-6.1698,-6.2278,-6.2433,-6.2781,-6.3603,-6.43,-6.4919,-6.5064,-6.5566,-6.5412,-6.4106,-6.399,-6.4019,-6.3913,-6.3797,-6.4068,-6.488,-6.5489,-6.6108,-6.6147,-6.5915,-6.5915,-6.5992,-6.6069,-6.6069,-6.6185,-6.6185,-6.6185,-6.6185,-6.6185,-6.6185,-6.6185,-6.6185,-6.6185,-6.6185,-6.6157,-6.6185,-6.6185,-6.6185,-6.6185,-6.6185,-6.6185,-6.6185,-6.6185,-6.6205,-6.6205,-6.6225,-6.6215,-6.6264,-6.6284,-6.6312,-6.6331,-6.4358,-6.413,-6.413,-6.4165,-6.4196,-6.4313,-6.4242,-6.4038,-6.3611,-6.3236,-6.2944,-6.2395,-6.1975,-6.1784,-6.1707,-6.1583,-6.1447,-6.1907,-6.0961,-5.9123,-5.9033,-5.9185,-5.93,-5.972,-5.9988,-6.0026,-6.0255,-6.0422,-6.0565,-6.1171,-6.1467,-6.1608,-6.2182,-6.2627,-6.2897,-6.2974,-6.3358,-6.4128,-6.4474,-6.4859,-6.5436,-6.5743,-6.5897,-6.5897,-6.5897,-6.5897,-6.5897,-6.5897,-6.5897,-6.5897,-6.5897,-6.5921,-6.599,-6.6069,-6.6007,-6.5866,-6.5837,-6.545,-6.4725,-6.4329,-6.3864,-6.34,-6.3013,-6.3023,-6.3245,-6.3284,-6.3671,-6.4454,-6.487,-6.519,-6.5721,-6.6031,-6.5915,-6.5489,-6.5412,-6.5334,-6.5257,-6.5334,-6.5528,-6.576,-6.6031,-6.6185,-6.6185,-6.6185,-6.6185,-6.6185,-6.6185,-6.6185,-6.6185,-6.6185,-6.6185,-6.6185,-6.6185,-6.6263,-6.6417,-6.6495,-6.6533,-6.6495,-6.6417,-6.6224,-6.6185,-6.6185,-6.6185,-6.6185,-6.6185,-6.6185,-6.6185,-6.6185,-6.6185,-6.6185,-6.6195,-6.6205,-6.6205,-6.6225,-6.6284,-6.4926,-6.4926,-6.4926,-6.4941,-6.5006,-6.5128,-6.521,-6.5213,-6.4848,-6.4611,-6.4496,-6.4076,-6.3656,-6.3427,-6.3388,-6.3241,-6.3006,-6.2968,-6.1858,-6.0122,-6.03,-6.0554,-6.0603,-6.1034,-6.1325,-6.1325,-6.1325,-6.1339,-6.142,-6.1989,-6.2362,-6.2529,-6.3002,-6.3474,-6.3731,-6.3782,-6.4205,-6.4936,-6.5089,-6.5359,-6.5782,-6.5897,-6.5897,-6.5897,-6.5897,-6.5897,-6.5897,-6.5897,-6.5897,-6.591,-6.5923,-6.5946,-6.6001,-6.6069,-6.6123,-6.6175,-6.6147,-6.5953,-6.5489,-6.5112,-6.4803,-6.4261,-6.3913,-6.3874,-6.4068,-6.4184,-6.4571,-6.5257,-6.545,-6.5644,-6.6069,-6.6185,-6.6185,-6.6185,-6.6147,-6.6185,-6.6185,-6.6185,-6.6185,-6.6147,-6.6185,-6.6185,-6.6185,-6.6185,-6.6185,-6.6185,-6.6185,-6.6185,-6.6185,-6.6185,-6.6224,-6.6224,-6.6185,-6.6379,-6.6688,-6.6804,-6.6882,-6.6804,-6.6727,-6.6417,-6.6185,-6.6185,-6.6185,-6.6185,-6.6185,-6.6185,-6.6185,-6.6185,-6.6185,-6.6185,-6.634,-6.6224,-6.6234,-6.6195,-6.6205,-6.4926,-6.4926,-6.4926,-6.4958,-6.5044,-6.5144,-6.5264,-6.5305,-6.5345,-6.5299,-6.5299,-6.5184,-6.4879,-6.4344,-6.4244,-6.3944,-6.3312,-6.3326,-6.3381,-6.3129,-6.3129,-6.2987,-6.2637,-6.2619,-6.2629,-6.2691,-6.273,-6.2796,-6.2714,-6.305,-6.3194,-6.3297,-6.3552,-6.3897,-6.4551,-6.4666,-6.5051,-6.5667,-6.582,-6.5859,-6.5897,-6.5897,-6.5897,-6.5897,-6.5897,-6.5897,-6.5897,-6.5897,-6.5897,-6.591,-6.5972,-6.5993,-6.6013,-6.6069,-6.6134,-6.6185,-6.6185,-6.6185,-6.5992,-6.5566,-6.5141,-6.5025,-6.4483,-6.4135,-6.4909,-6.5073,-6.5296,-6.5953,-6.6069,-6.6147,-6.6185,-6.6185,-6.6185,-6.6185,-6.6185,-6.6185,-6.6185,-6.6185,-6.6185,-6.6185,-6.6185,-6.6185,-6.6185,-6.6185,-6.6185,-6.6185,-6.6185,-6.6185,-6.6185,-6.6224,-6.6263,-6.634,-6.6533,-6.6959,-6.7384,-6.7578,-6.7655,-6.7655,-6.7501,-6.723,-6.6843,-6.6804,-6.6804,-6.6727,-6.6572,-6.6456,-6.6533,-6.6804,-6.6843,-6.6959,-6.6843,-6.6417,-6.6456,-6.6688,-6.6572,-6.4926,-6.4926,-6.4958,-6.5044,-6.5144,-6.5226,-6.5305,-6.5383,-6.5398,-6.5413,-6.5413,-6.5413,-6.5261,-6.507,-6.5031,-6.4991,-6.4862,-6.4852,-6.4997,-6.5141,-6.5154,-6.4282,-6.3307,-6.3075,-6.31,-6.3138,-6.3201,-6.3037,-6.314,-6.3821,-6.4129,-6.4193,-6.4795,-6.5243,-6.5551,-6.5513,-6.5667,-6.5859,-6.5897,-6.5897,-6.5897,-6.5897,-6.5897,-6.5897,-6.5897,-6.5897,-6.5897,-6.5897,-6.5935,-6.5972,-6.5993,-6.6052,-6.6069,-6.6123,-6.6165,-6.6175,-6.6185,-6.6185,-6.6147,-6.5992,-6.5876,-6.5876,-6.5528,-6.5644,-6.5837,-6.5876,-6.5992,-6.6185,-6.6185,-6.6185,-6.6185,-6.6185,-6.6185,-6.6185,-6.6185,-6.6185,-6.6185,-6.6185,-6.6185,-6.6185,-6.6185,-6.6185,-6.6185,-6.6185,-6.6185,-6.6185,-6.6185,-6.6263,-6.634,-6.6379,-6.6495,-6.6998,-6.7307,-6.7771,-6.8119,-6.8352,-6.8468,-6.8506,-6.8468,-6.8429,-6.8158,-6.8081,-6.8158,-6.8197,-6.781,-6.7617,-6.7926,-6.8197,-6.8081,-6.7733,-6.781,-6.7694,-6.7694,-6.7849,-6.7423,-6.4358,-6.4396,-6.4841,-6.5078,-6.5215,-6.5296,-6.5337,-6.5398,-6.5413,-6.5413,-6.5413,-6.5413,-6.5413,-6.5413,-6.5375,-6.5465,-6.5594,-6.5608,-6.569,-6.5846,-6.582,-6.5218,-6.4448,-6.4178,-6.4151,-6.4151,-6.4151,-6.4216,-6.432,-6.482,-6.5,-6.5154,-6.5615,-6.5859,-6.582,-6.5897,-6.5897,-6.5897,-6.5897,-6.5897,-6.5897,-6.5897,-6.5897,-6.5897,-6.5897,-6.5897,-6.5897,-6.5923,-6.596,-6.6008,-6.6017,-6.6036,-6.6091,-6.6155,-6.6185,-6.6185,-6.6185,-6.6185,-6.6185,-6.6185,-6.6185,-6.6185,-6.6185,-6.6185,-6.6185,-6.6185,-6.6185,-6.6185,-6.6185,-6.6185,-6.6185,-6.6185,-6.6185,-6.6185,-6.6185,-6.6185,-6.6185,-6.6185,-6.6185,-6.6185,-6.6185,-6.6185,-6.6185,-6.6185,-6.6185,-6.6185,-6.6185,-6.6456,-6.6688,-6.6727,-6.6998,-6.7694,-6.8119,-6.8506,-6.897,-6.9241,-6.9551,-6.9589,-6.9551,-6.9512,-6.9164,-6.9048,-6.8932,-6.8854,-6.8854,-6.8854,-6.9009,-6.897,-6.8622,-6.8468,-6.8777,-6.8816,-6.87,-6.8622,-6.8236,-6.3486,-6.3579,-6.4402,-6.4828,-6.4889,-6.4991,-6.4932,-6.5054,-6.4993,-6.4993,-6.4993,-6.507,-6.4879,-6.5146,-6.5031,-6.5312,-6.5441,-6.5531,-6.5742,-6.5821,-6.5897,-6.5705,-6.5576,-6.5369,-6.5381,-6.5419,-6.5583,-6.5561,-6.5525,-6.5691,-6.5808,-6.5769,-6.5859,-6.5897,-6.5897,-6.5897,-6.5897,-6.5897,-6.5897,-6.5897,-6.5897,-6.5897,-6.5897,-6.5897,-6.5897,-6.5897,-6.5923,-6.596,-6.6008,-6.602,-6.6029,-6.6047,-6.6102,-6.6165,-6.6185,-6.6185,-6.6185,-6.6185,-6.6185,-6.6185,-6.6185,-6.6185,-6.6185,-6.6185,-6.6185,-6.6185,-6.6185,-6.6185,-6.6185,-6.6185,-6.6185,-6.6185,-6.6185,-6.6185,-6.6185,-6.6185,-6.6185,-6.6185,-6.6185,-6.6185,-6.6185,-6.6185,-6.6185,-6.6185,-6.6185,-6.6263,-6.6379,-6.6804,-6.7191,-6.7462,-6.7965,-6.8738,-6.9048,-6.9241,-6.9705,-7.0142,-7.0479,-7.075,-7.0711,-7.0518,-6.986,-6.9589,-6.9357,-6.9319,-6.9705,-6.9705,-6.9551,-6.9396,-6.9203,-6.9357,-6.9744,-6.9473,-6.9203,-6.9164,-6.8893,-6.2686,-6.277,-6.3003,-6.3198,-6.3329,-6.3405,-6.3435,-6.3503,-6.3503,-6.3579,-6.3465,-6.3465,-6.3503,-6.3541,-6.4167,-6.4508,-6.4712,-6.52,-6.5728,-6.5885,-6.5897,-6.5897,-6.5872,-6.5808,-6.5808,-6.5846,-6.5846,-6.5859,-6.5872,-6.5872,-6.5885,-6.5897,-6.5897,-6.5897,-6.5897,-6.5897,-6.5897,-6.5897,-6.5897,-6.5897,-6.5897,-6.5897,-6.5897,-6.5897,-6.5897,-6.5897,-6.591,-6.5972,-6.602,-6.6029,-6.6047,-6.6102,-6.6155,-6.6175,-6.6185,-6.6185,-6.6185,-6.6185,-6.6185,-6.6185,-6.6185,-6.6185,-6.6185,-6.6185,-6.6185,-6.6185,-6.6185,-6.6185,-6.6185,-6.6185,-6.6185,-6.6185,-6.6185,-6.6185,-6.6185,-6.6185,-6.6185,-6.6185,-6.6185,-6.6185,-6.6185,-6.6185,-6.6185,-6.6185,-6.6224,-6.6301,-6.6688,-6.723,-6.7733,-6.8197,-6.8854,-6.9628,-6.9821,-7.0015,-7.0324,-7.0672,-7.0866,-7.1175,-7.1253,-7.1253,-7.0556,-7.0363,-7.0208,-7.044,-7.0827,-7.0672,-7.0247,-7.0479,-7.044,-7.0595,-7.0595,-7.044,-7.0208,-6.9976,-6.9783,-6.183,-6.2005,-6.2411,-6.2696,-6.2826,-6.2886,-6.2892,-6.2892,-6.2892,-6.2892,-6.2892,-6.2892,-6.2892,-6.293,-6.3394,-6.3709,-6.3882,-6.4256,-6.4782,-6.5154,-6.5282,-6.5513,-6.5859,-6.5897,-6.5897,-6.5897,-6.5897,-6.5897,-6.5897,-6.5897,-6.5897,-6.5897,-6.5897,-6.5897,-6.5897,-6.5897,-6.5897,-6.5897,-6.5897,-6.5897,-6.5897,-6.5897,-6.5897,-6.5897,-6.5897,-6.5897,-6.591,-6.5958,-6.6017,-6.6024,-6.6091,-6.6155,-6.6175,-6.6185,-6.6185,-6.6185,-6.6185,-6.6185,-6.6185,-6.6185,-6.6185,-6.6185,-6.6185,-6.6185,-6.6185,-6.6185,-6.6185,-6.6185,-6.6185,-6.6185,-6.6185,-6.6185,-6.6185,-6.6185,-6.6185,-6.6185,-6.6185,-6.6185,-6.6185,-6.6185,-6.6185,-6.6185,-6.6185,-6.6263,-6.6611,-6.6804,-6.7114,-6.7655,-6.8816,-6.9319,-6.9744,-7.0324,-7.0518,-7.075,-7.1021,-7.1175,-7.1137,-7.1253,-7.1253,-7.1291,-7.1021,-7.1059,-7.1175,-7.1253,-7.1175,-7.1214,-7.0982,-7.1291,-7.1291,-7.1098,-7.1021,-7.1214,-7.1137,-7.0711,-7.0556,-6.1012,-6.1185,-6.1932,-6.2315,-6.2421,-6.2442,-6.2395,-6.2471,-6.251,-6.2319,-6.251,-6.251,-6.228,-6.2524,-6.2696,-6.2856,-6.3219,-6.3591,-6.4269,-6.4705,-6.5013,-6.5397,-6.5782,-6.5897,-6.5897,-6.5897,-6.5897,-6.5897,-6.5897,-6.5897,-6.5897,-6.5897,-6.5897,-6.5897,-6.5897,-6.5897,-6.5897,-6.5897,-6.5897,-6.5897,-6.5897,-6.5897,-6.5897,-6.5897,-6.5897,-6.5897,-6.5923,-6.597,-6.6001,-6.6013,-6.6123,-6.6175,-6.6185,-6.6185,-6.6185,-6.6185,-6.6185,-6.6185,-6.6185,-6.6185,-6.6185,-6.6185,-6.6185,-6.6185,-6.6185,-6.6185,-6.6185,-6.6185,-6.6185,-6.6185,-6.6185,-6.6185,-6.6185,-6.6185,-6.6185,-6.6185,-6.6185,-6.6185,-6.6185,-6.6185,-6.6185,-6.6185,-6.6301,-6.6417,-6.6882,-6.7346,-6.7655,-6.8197,-6.9396,-7.0247,-7.0556,-7.075,-7.0905,-7.0982,-7.1214,-7.1291,-7.1291,-7.1291,-7.1291,-7.1291,-7.1291,-7.1291,-7.1291,-7.1291,-7.1291,-7.1291,-7.1291,-7.1291,-7.1291,-7.1291,-7.1291,-7.1291,-7.1291,-7.1291,-7.1214,-6.0172,-6.0312,-6.0464,-6.0646,-6.0814,-6.0828,-6.0905,-6.079,-6.0943,-6.0842,-6.0867,-6.0867,-6.0943,-6.1048,-6.1663,-6.2347,-6.3041,-6.3706,-6.432,-6.4705,-6.5128,-6.5667,-6.582,-6.5897,-6.5897,-6.5897,-6.5897,-6.5897,-6.5897,-6.5897,-6.5897,-6.5897,-6.5897,-6.5897,-6.5897,-6.5897,-6.5897,-6.5897,-6.5897,-6.5897,-6.5897,-6.5897,-6.5897,-6.5897,-6.5897,-6.5897,-6.5884,-6.5982,-6.6001,-6.6013,-6.6123,-6.6175,-6.6185,-6.6185,-6.6185,-6.6185,-6.6185,-6.6185,-6.6185,-6.6185,-6.6185,-6.6185,-6.6185,-6.6185,-6.6185,-6.6185,-6.6185,-6.6185,-6.6185,-6.6185,-6.6185,-6.6185,-6.6185,-6.6185,-6.6185,-6.6185,-6.6185,-6.6185,-6.6185,-6.6185,-6.6185,-6.6301,-6.6533,-6.6882,-6.7423,-6.8042,-6.8661,-6.9087,-6.9938,-7.0595,-7.1021,-7.1137,-7.1214,-7.1214,-7.1291,-7.1291,-7.1291,-7.1291,-7.1291,-7.1291,-7.1291,-7.1291,-7.1291,-7.1291,-7.1291,-7.1291,-7.1291,-7.1291,-7.1291,-7.1291,-7.1291,-7.1291,-7.1291,-7.1291,-7.1291,-6.0029,-6.0137,-6.0167,-6.027,-6.037,-6.0384,-6.0384,-6.0384,-6.0384,-6.0384,-6.0384,-6.0384,-6.0384,-6.0526,-6.0876,-6.1684,-6.2682,-6.3526,-6.4128,-6.4589,-6.5051,-6.5513,-6.582,-6.5897,-6.5897,-6.5897,-6.5897,-6.5897,-6.5897,-6.5897,-6.5897,-6.5897,-6.5897,-6.5897,-6.5897,-6.5897,-6.5897,-6.5897,-6.5897,-6.5897,-6.5897,-6.5897,-6.5897,-6.5897,-6.5897,-6.5897,-6.5923,-6.5943,-6.6001,-6.6024,-6.6123,-6.6175,-6.6185,-6.6185,-6.6185,-6.6185,-6.6185,-6.6185,-6.6185,-6.6185,-6.6185,-6.6185,-6.6185,-6.6185,-6.6185,-6.6185,-6.6185,-6.6185,-6.6185,-6.6185,-6.6185,-6.6185,-6.6185,-6.6185,-6.6185,-6.6185,-6.6185,-6.6185,-6.6263,-6.6301,-6.634,-6.6572,-6.6998,-6.7423,-6.7965,-6.8661,-6.9512,-7.0054,-7.0518,-7.0866,-7.1291,-7.1291,-7.1291,-7.1291,-7.1291,-7.1291,-7.1291,-7.1291,-7.1291,-7.1291,-7.1291,-7.1291,-7.1291,-7.1291,-7.1291,-7.1446,-7.1291,-7.1291,-7.1291,-7.1291,-7.1291,-7.1291,-7.1291,-7.1291,-7.1291,-6.0022,-6.0099,-6.025,-6.0337,-6.0408,-6.0384,-6.0384,-6.0384,-6.0384,-6.0384,-6.0384,-6.0384,-6.0384,-6.0488,-6.0826,-6.1428,-6.2358,-6.3243,-6.4012,-6.4551,-6.4936,-6.532,-6.5705,-6.5936,-6.6013,-6.6282,-6.6244,-6.6064,-6.5897,-6.5897,-6.5897,-6.5897,-6.5897,-6.5897,-6.5897,-6.5897,-6.5897,-6.5897,-6.5897,-6.5897,-6.5897,-6.5897,-6.5897,-6.5897,-6.5897,-6.591,-6.5935,-6.5955,-6.6013,-6.6058,-6.6123,-6.6185,-6.6185,-6.6185,-6.6185,-6.6185,-6.6185,-6.6185,-6.6185,-6.6185,-6.6185,-6.6185,-6.6185,-6.6185,-6.6185,-6.6185,-6.6185,-6.6185,-6.6185,-6.6185,-6.6185,-6.6185,-6.6185,-6.6185,-6.6185,-6.6224,-6.6301,-6.6379,-6.6611,-6.6611,-6.6572,-6.6882,-6.7384,-6.8274,-6.8893,-6.928,-7.0092,-7.0479,-7.0905,-7.1021,-7.1291,-7.1291,-7.1291,-7.1291,-7.1291,-7.1291,-7.1291,-7.1291,-7.1291,-7.1291,-7.1291,-7.1291,-7.1407,-7.164,-7.1717,-7.1833,-7.1562,-7.133,-7.1291,-7.1291,-7.1291,-7.1291,-7.1291,-7.1291,-7.1291,-6.0022,-6.0099,-6.025,-6.0337,-6.0408,-6.0384,-6.0384,-6.0384,-6.0384,-6.0384,-6.0422,-6.046,-6.0499,-6.077,-6.1542,-6.2311,-6.3168,-6.4012,-6.4551,-6.4859,-6.5436,-6.582,-6.5936,-6.5897,-6.6513,-6.6859,-6.6974,-6.6526,-6.632,-6.6167,-6.6051,-6.609,-6.6167,-6.5936,-6.6051,-6.609,-6.5897,-6.5897,-6.5897,-6.5897,-6.5897,-6.5897,-6.5897,-6.5897,-6.591,-6.5935,-6.5984,-6.6017,-6.6036,-6.608,-6.6144,-6.6185,-6.6185,-6.6185,-6.6185,-6.6185,-6.6185,-6.6185,-6.6224,-6.6185,-6.6301,-6.634,-6.634,-6.6224,-6.6456,-6.6495,-6.6495,-6.6185,-6.6301,-6.6456,-6.6533,-6.634,-6.6263,-6.6379,-6.6572,-6.6495,-6.6456,-6.7152,-6.7307,-6.7578,-6.7733,-6.7694,-6.7887,-6.8932,-6.9821,-7.0208,-7.0556,-7.0943,-7.1214,-7.1253,-7.1291,-7.1291,-7.1291,-7.1291,-7.1291,-7.1291,-7.1291,-7.1291,-7.1485,-7.1485,-7.164,-7.1794,-7.2026,-7.222,-7.2336,-7.2297,-7.2104,-7.1794,-7.1446,-7.1485,-7.1756,-7.1601,-7.133,-7.133,-7.133,-6.14,-6.0137,-6.027,-6.038,-6.0408,-6.0384,-6.0384,-6.0384,-6.0384,-6.0384,-6.0499,-6.0905,-6.1367,-6.1986,-6.295,-6.3617,-6.4192,-6.4936,-6.532,-6.5513,-6.6128,-6.6551,-6.6744,-6.7051,-6.759,-6.7705,-6.7821,-6.7744,-6.7359,-6.7321,-6.7321,-6.7244,-6.7244,-6.7051,-6.6628,-6.659,-6.6282,-6.6051,-6.5897,-6.5897,-6.5897,-6.5897,-6.5897,-6.591,-6.5935,-6.5972,-6.5982,-6.6052,-6.6069,-6.6112,-6.6155,-6.6185,-6.6185,-6.6185,-6.6185,-6.6224,-6.6727,-6.6688,-6.6301,-6.6263,-6.6533,-6.6843,-6.6998,-6.7191,-6.7462,-6.7617,-6.7617,-6.7694,-6.7694,-6.7617,-6.7617,-6.7694,-6.7694,-6.7655,-6.7384,-6.7462,-6.7539,-6.7887,-6.8313,-6.8584,-6.8854,-6.8854,-6.8854,-6.9435,-7.0286,-7.0672,-7.0866,-7.1098,-7.1253,-7.1291,-7.1291,-7.1291,-7.1291,-7.1291,-7.1291,-7.1291,-7.133,-7.1446,-7.2065,-7.2104,-7.2258,-7.2452,-7.2723,-7.3032,-7.3264,-7.3071,-7.2761,-7.2684,-7.2645,-7.2529,-7.2375,-7.2181,-7.1988,-7.1446,-7.1446,-6.3448,-6.1401,-6.09,-6.0599,-6.0384,-6.0384,-6.0384,-6.0422,-6.0637,-6.0714,-6.0919,-6.1583,-6.2508,-6.337,-6.4077,-6.4526,-6.5013,-6.582,-6.6128,-6.6474,-6.6936,-6.7398,-6.759,-6.809,-6.8436,-6.8731,-6.8744,-6.8821,-6.9013,-6.8975,-6.8821,-6.8436,-6.8129,-6.7975,-6.759,-6.7359,-6.709,-6.6359,-6.6282,-6.6167,-6.5936,-6.5897,-6.591,-6.5935,-6.5972,-6.602,-6.6017,-6.6047,-6.6091,-6.6134,-6.6165,-6.6185,-6.6185,-6.6495,-6.6611,-6.6804,-6.7346,-6.7578,-6.723,-6.7114,-6.723,-6.7578,-6.7849,-6.8042,-6.8506,-6.8777,-6.8777,-6.8584,-6.8584,-6.8661,-6.8777,-6.87,-6.8584,-6.8506,-6.8584,-6.8738,-6.8854,-6.897,-6.9125,-6.9357,-6.9667,-7.0131,-7.017,-7.0247,-7.0634,-7.1137,-7.1291,-7.1291,-7.1291,-7.1291,-7.1291,-7.1291,-7.1291,-7.1291,-7.1291,-7.133,-7.1369,-7.1717,-7.2297,-7.2761,-7.2955,-7.3264,-7.3612,-7.3883,-7.4154,-7.4386,-7.4347,-7.4115,-7.3844,-7.3419,-7.3071,-7.2993,-7.2723,-7.2142,-7.1794,-6.6429,-6.4771,-6.2519,-6.1249,-6.0613,-6.0384,-6.0499,-6.0905,-6.1363,-6.1707,-6.2027,-6.2595,-6.366,-6.4318,-6.4858,-6.5308,-6.5897,-6.6628,-6.6936,-6.7321,-6.7821,-6.8244,-6.8436,-6.8629,-6.8975,-6.9513,-6.9629,-6.9975,-7.0437,-7.0283,-6.9629,-6.8667,-6.8859,-6.8552,-6.8244,-6.8129,-6.7744,-6.7167,-6.7013,-6.659,-6.6244,-6.6025,-6.6012,-6.5984,-6.6008,-6.6017,-6.608,-6.6102,-6.6239,-6.6281,-6.6369,-6.6533,-6.6727,-6.7114,-6.7384,-6.7578,-6.8236,-6.8506,-6.8429,-6.8274,-6.8545,-6.87,-6.8816,-6.8932,-6.9203,-6.897,-6.8854,-6.9087,-6.928,-6.9164,-6.9009,-6.8854,-6.9203,-6.9319,-6.9473,-6.9435,-6.9589,-6.9783,-6.9938,-7.0092,-7.0363,-7.075,-7.0866,-7.0827,-7.0789,-7.1214,-7.1291,-7.1291,-7.1291,-7.1291,-7.1291,-7.1291,-7.1291,-7.1291,-7.133,-7.1446,-7.1756,-7.2258,-7.2839,-7.3342,-7.3728,-7.4115,-7.4657,-7.4811,-7.5082,-7.5508,-7.574,-7.516,-7.4579,-7.4077,-7.3806,-7.369,-7.3574,-7.3148,-7.28,-6.7795,-6.6796,-6.5322,-6.4229,-6.3465,-6.3465,-6.3465,-6.3503,-6.3809,-6.4267,-6.4702,-6.5241,-6.5901,-6.6518,-6.6844,-6.7064,-6.7436,-6.7705,-6.7898,-6.8205,-6.8706,-6.9129,-6.9321,-6.9667,-7.0167,-7.036,-7.0437,-7.0514,-7.0783,-7.0898,-7.0667,-7.009,-6.9783,-6.9552,-6.9321,-6.8783,-6.8282,-6.8052,-6.7821,-6.7475,-6.6821,-6.6603,-6.6435,-6.5996,-6.6005,-6.6052,-6.6091,-6.6134,-6.6474,-6.6833,-6.6959,-6.723,-6.7578,-6.8081,-6.8236,-6.839,-6.9087,-6.9473,-6.9435,-6.9203,-6.9009,-6.9628,-6.9976,-7.0286,-7.0131,-7.0286,-7.0324,-7.0363,-7.0247,-7.0092,-7.0286,-7.0324,-7.044,-7.0363,-7.0247,-7.017,-7.0247,-7.044,-7.0556,-7.0634,-7.0827,-7.1137,-7.1214,-7.1214,-7.1214,-7.1291,-7.1291,-7.1291,-7.1291,-7.1291,-7.1291,-7.1291,-7.1291,-7.1446,-7.1485,-7.1794,-7.2181,-7.2839,-7.3458,-7.3999,-7.4579,-7.5314,-7.5779,-7.5856,-7.5817,-7.6011,-7.6011,-7.574,-7.543,-7.5121,-7.4734,-7.4386,-7.4231,-7.4077,-7.3806,-6.9065,-6.8585,-6.8012,-6.6865,-6.5528,-6.5413,-6.5413,-6.5452,-6.5643,-6.6308,-6.7103,-6.7237,-6.7592,-6.8133,-6.8293,-6.8269,-6.8359,-6.859,-6.8744,-6.9129,-6.959,-6.9975,-7.0244,-7.0475,-7.0706,-7.0898,-7.0898,-7.0898,-7.0898,-7.0898,-7.0783,-7.0783,-7.086,-7.0437,-7.009,-6.9513,-6.9013,-6.8859,-6.8744,-6.8359,-6.7628,-6.7475,-6.741,-6.6945,-6.6954,-6.7012,-6.7117,-6.7237,-6.7413,-6.7733,-6.7965,-6.8197,-6.8622,-6.897,-6.9125,-6.9435,-6.9821,-7.0335,-7.0208,-7.0015,-6.9821,-7.0402,-7.0789,-7.1098,-7.1291,-7.1291,-7.1059,-7.1137,-7.1175,-7.1291,-7.1291,-7.1098,-7.1021,-7.0866,-7.0905,-7.0827,-7.0866,-7.1021,-7.1098,-7.1137,-7.1291,-7.1291,-7.1291,-7.1291,-7.1291,-7.1291,-7.1291,-7.1291,-7.1291,-7.1291,-7.1291,-7.1291,-7.1291,-7.1485,-7.1678,-7.2142,-7.2684,-7.3767,-7.4386,-7.4889,-7.5508,-7.6127,-7.6397,-7.6204,-7.6204,-7.6359,-7.6243,-7.6049,-7.6127,-7.6243,-7.574,-7.5198,-7.5276,-7.5121,-7.4734,-7.026,-7.0381,-7.0211,-6.8394,-6.5872,-6.549,-6.5605,-6.6063,-6.6598,-6.737,-6.8174,-6.8263,-6.8335,-6.852,-6.8781,-6.8808,-6.8936,-6.9398,-6.9667,-6.986,-7.0283,-7.0706,-7.0783,-7.086,-7.0898,-7.0898,-7.0898,-7.0898,-7.0898,-7.0898,-7.0898,-7.0898,-7.0898,-7.086,-7.0821,-7.0821,-7.0398,-6.9783,-6.9667,-6.9167,-6.859,-6.8398,-6.8309,-6.8114,-6.8085,-6.8066,-6.8144,-6.8214,-6.839,-6.87,-6.8738,-6.8932,-6.9203,-6.9744,-6.9938,-7.0054,-7.075,-7.1137,-7.1175,-7.1175,-7.1098,-7.1021,-7.1214,-7.1253,-7.1291,-7.1291,-7.1291,-7.1291,-7.1291,-7.1291,-7.1291,-7.1291,-7.1291,-7.1291,-7.1291,-7.1291,-7.1291,-7.1291,-7.1291,-7.1291,-7.1291,-7.1291,-7.1291,-7.1291,-7.1291,-7.1291,-7.1291,-7.1291,-7.1291,-7.1291,-7.1291,-7.1446,-7.1446,-7.1833,-7.2142,-7.2568,-7.3226,-7.4386,-7.5198,-7.5585,-7.5895,-7.6243,-7.6397,-7.6397,-7.6397,-7.6397,-7.6397,-7.6359,-7.6397,-7.6397,-7.6397,-7.6088,-7.6204,-7.6088,-7.5585,-7.0336,-7.0402,-7.0402,-6.9769,-6.8776,-6.8738,-6.8699,-6.8776,-6.9043,-6.9359,-6.9705,-6.9834,-6.987,-6.9956,-6.9934,-6.9937,-7.0052,-7.0206,-7.0514,-7.0514,-7.0783,-7.086,-7.0898,-7.0898,-7.0898,-7.0898,-7.0898,-7.0898,-7.0898,-7.0898,-7.0898,-7.0898,-7.0898,-7.0898,-7.0898,-7.0898,-7.0667,-7.0552,-7.0437,-7.0129,-6.9398,-6.9244,-6.9053,-6.8679,-6.8728,-6.8787,-6.8917,-6.8988,-6.9203,-6.9551,-6.9589,-6.9821,-7.017,-7.075,-7.0789,-7.0827,-7.1253,-7.1291,-7.1291,-7.1253,-7.1253,-7.1291,-7.1291,-7.1291,-7.1291,-7.1291,-7.1291,-7.1291,-7.1291,-7.1291,-7.1291,-7.1291,-7.1291,-7.1291,-7.1291,-7.1291,-7.1291,-7.1291,-7.1291,-7.1291,-7.1291,-7.1291,-7.1291,-7.1291,-7.1291,-7.1291,-7.1291,-7.1291,-7.1291,-7.1291,-7.1291,-7.1562,-7.1756,-7.2181,-7.2607,-7.3264,-7.3883,-7.4889,-7.5624,-7.6088,-7.632,-7.6397,-7.6397,-7.6397,-7.6397,-7.6397,-7.6397,-7.6397,-7.6397,-7.6397,-7.6397,-7.6397,-7.632,-7.6281,-7.6165,-7.0369,-7.0402,-7.0402,-7.0402,-7.0402,-7.0402,-7.0402,-7.0402,-7.0419,-7.0483,-7.0593,-7.0654,-7.0705,-7.0777,-7.0871,-7.0898,-7.0898,-7.0898,-7.0898,-7.0898,-7.0898,-7.0898,-7.0898,-7.0898,-7.0898,-7.0898,-7.0898,-7.0898,-7.0898,-7.0898,-7.0898,-7.0898,-7.0898,-7.0898,-7.0898,-7.0898,-7.086,-7.0821,-7.0744,-7.0629,-7.0244,-7.0065,-6.99,-6.9618,-6.9526,-6.9586,-6.9617,-6.9701,-6.986,-7.0286,-7.0518,-7.0711,-7.1137,-7.1291,-7.1291,-7.1291,-7.1291,-7.1291,-7.1291,-7.1291,-7.1291,-7.1291,-7.1291,-7.1291,-7.1291,-7.1291,-7.1291,-7.1291,-7.1291,-7.1291,-7.1291,-7.1291,-7.1291,-7.1291,-7.1291,-7.1291,-7.1291,-7.1291,-7.1291,-7.1291,-7.1291,-7.1291,-7.1291,-7.1291,-7.1291,-7.1291,-7.1291,-7.133,-7.1369,-7.1407,-7.1523,-7.1872,-7.2297,-7.2839,-7.3496,-7.427,-7.4889,-7.5469,-7.5933,-7.6359,-7.6397,-7.6397,-7.6397,-7.6397,-7.6397,-7.6397,-7.6397,-7.6397,-7.6397,-7.6397,-7.6397,-7.6397,-7.6397,-7.6397,-7.6397,-7.0402,-7.0402,-7.0402,-7.0402,-7.0402,-7.0402,-7.0402,-7.0402,-7.0402,-7.0515,-7.0708,-7.0708,-7.0796,-7.0871,-7.0898,-7.0898,-7.0898,-7.0898,-7.0898,-7.0898,-7.0898,-7.0898,-7.0898,-7.0898,-7.0898,-7.0898,-7.0898,-7.0898,-7.0898,-7.0898,-7.0898,-7.0898,-7.0898,-7.0898,-7.0898,-7.0898,-7.0898,-7.0898,-7.086,-7.0821,-7.0629,-7.0706,-7.0618,-7.0478,-7.0581,-7.0693,-7.0753,-7.0888,-7.101,-7.1137,-7.1214,-7.1253,-7.1291,-7.1291,-7.1291,-7.1291,-7.1291,-7.1291,-7.1291,-7.1291,-7.1291,-7.1291,-7.1291,-7.1291,-7.1291,-7.1291,-7.1291,-7.1291,-7.1291,-7.1291,-7.1291,-7.1291,-7.1291,-7.1291,-7.1291,-7.1291,-7.1291,-7.1291,-7.1291,-7.1291,-7.1291,-7.1291,-7.1291,-7.1291,-7.1407,-7.1407,-7.1485,-7.1717,-7.1717,-7.1678,-7.191,-7.2375,-7.2877,-7.3574,-7.427,-7.5005,-7.5469,-7.5933,-7.6049,-7.6397,-7.6397,-7.6397,-7.6397,-7.6397,-7.6397,-7.6397,-7.6397,-7.6397,-7.6397,-7.6397,-7.6397,-7.6397,-7.6397,-7.6397,-7.6397,-7.0402,-7.0402,-7.0402,-7.0402,-7.0402,-7.0402,-7.0402,-7.0402,-7.0419,-7.0515,-7.0723,-7.0723,-7.0796,-7.0898,-7.0898,-7.0898,-7.0898,-7.0898,-7.0898,-7.0898,-7.0898,-7.0898,-7.0898,-7.0898,-7.0898,-7.0898,-7.0898,-7.0898,-7.0898,-7.0898,-7.0898,-7.0898,-7.0898,-7.0898,-7.0898,-7.0898,-7.0898,-7.0898,-7.0898,-7.0898,-7.0898,-7.0898,-7.0925,-7.0952,-7.1005,-7.1081,-7.1142,-7.1201,-7.1247,-7.1291,-7.1291,-7.1291,-7.1291,-7.1291,-7.1291,-7.1291,-7.1291,-7.1291,-7.1291,-7.1291,-7.1291,-7.1291,-7.1291,-7.1291,-7.1291,-7.1291,-7.1291,-7.1291,-7.1291,-7.1291,-7.1291,-7.1291,-7.1291,-7.1291,-7.1291,-7.1291,-7.1291,-7.1291,-7.1291,-7.1291,-7.1291,-7.1407,-7.1407,-7.1485,-7.1562,-7.1562,-7.1717,-7.2026,-7.222,-7.222,-7.2529,-7.2993,-7.3574,-7.4309,-7.485,-7.5546,-7.5972,-7.6332,-7.6359,-7.6397,-7.6397,-7.6397,-7.6397,-7.6397,-7.6397,-7.6397,-7.6397,-7.6397,-7.6397,-7.6397,-7.6397,-7.6397,-7.6397,-7.6397,-7.6397,-7.0402,-7.0402,-7.0402,-7.0402,-7.0402,-7.0402,-7.0402,-7.0402,-7.0402,-7.0499,-7.0662,-7.0693,-7.0782,-7.0843,-7.0885,-7.0898,-7.0898,-7.0898,-7.0898,-7.0898,-7.0898,-7.0898,-7.0898,-7.0898,-7.0898,-7.0898,-7.0898,-7.0898,-7.0898,-7.0898,-7.0898,-7.0898,-7.0898,-7.0898,-7.0898,-7.0898,-7.0898,-7.0898,-7.0898,-7.0898,-7.0898,-7.0898,-7.0898,-7.0912,-7.0965,-7.103,-7.1093,-7.1166,-7.1236,-7.128,-7.1291,-7.1291,-7.1291,-7.1291,-7.1291,-7.1291,-7.1291,-7.1291,-7.1291,-7.1291,-7.1291,-7.1291,-7.1291,-7.1291,-7.1291,-7.1291,-7.1291,-7.1291,-7.1291,-7.1291,-7.1291,-7.1291,-7.1291,-7.1291,-7.1291,-7.1291,-7.1291,-7.1291,-7.1291,-7.1291,-7.1407,-7.1562,-7.164,-7.1717,-7.2026,-7.2529,-7.28,-7.2955,-7.3109,-7.3109,-7.3458,-7.396,-7.4502,-7.5071,-7.5585,-7.5933,-7.6165,-7.6359,-7.6359,-7.6397,-7.6397,-7.6397,-7.6397,-7.6397,-7.6397,-7.6436,-7.6514,-7.6397,-7.6397,-7.6475,-7.6591,-7.6552,-7.6514,-7.6397,-7.6397,-7.0402,-7.0402,-7.0402,-7.0402,-7.0402,-7.0402,-7.0402,-7.0402,-7.0402,-7.0506,-7.0585,-7.0678,-7.0752,-7.0815,-7.0871,-7.0898,-7.0898,-7.0898,-7.0898,-7.0898,-7.0898,-7.0898,-7.0898,-7.0898,-7.0898,-7.0898,-7.0898,-7.0898,-7.0898,-7.0898,-7.0898,-7.0898,-7.0898,-7.0898,-7.0898,-7.0898,-7.0898,-7.0898,-7.0898,-7.0898,-7.0898,-7.0898,-7.0898,-7.0912,-7.0965,-7.1018,-7.1093,-7.1154,-7.1224,-7.1269,-7.1291,-7.1291,-7.1291,-7.1291,-7.1291,-7.1291,-7.1291,-7.1291,-7.1291,-7.1291,-7.1291,-7.1291,-7.1291,-7.1291,-7.1291,-7.1291,-7.1291,-7.1291,-7.1291,-7.1291,-7.1291,-7.1291,-7.1291,-7.1291,-7.1291,-7.1291,-7.1291,-7.1446,-7.1756,-7.1833,-7.2142,-7.2297,-7.2568,-7.2684,-7.2761,-7.3496,-7.3883,-7.396,-7.4077,-7.4077,-7.4297,-7.48,-7.5237,-7.5624,-7.5933,-7.6204,-7.6281,-7.6397,-7.6397,-7.6386,-7.6374,-7.6374,-7.6386,-7.6451,-7.6517,-7.6656,-7.6707,-7.6862,-7.7094,-7.7132,-7.7132,-7.6823,-7.6707,-7.6746,-7.6436,-7.0402,-7.0402,-7.0402,-7.0402,-7.0402,-7.0402,-7.0402,-7.0402,-7.0402,-7.0451,-7.0585,-7.0678,-7.0714,-7.0787,-7.0857,-7.0885,-7.0898,-7.0898,-7.0898,-7.0898,-7.0898,-7.0898,-7.0898,-7.0898,-7.0898,-7.0898,-7.0898,-7.0898,-7.0898,-7.0898,-7.0898,-7.0898,-7.0898,-7.0898,-7.0898,-7.0898,-7.0898,-7.0898,-7.0898,-7.0898,-7.0898,-7.0898,-7.0898,-7.0898,-7.0939,-7.0965,-7.103,-7.1093,-7.1166,-7.1213,-7.1269,-7.1291,-7.1291,-7.1291,-7.1291,-7.1291,-7.1291,-7.1291,-7.1291,-7.1291,-7.133,-7.1369,-7.1369,-7.133,-7.1291,-7.1291,-7.133,-7.133,-7.1291,-7.1291,-7.1291,-7.1291,-7.1291,-7.1291,-7.1369,-7.1369,-7.1407,-7.1833,-7.2258,-7.2568,-7.2877,-7.3148,-7.3458,-7.3612,-7.369,-7.4077,-7.4579,-7.4839,-7.5071,-7.5109,-7.5009,-7.5407,-7.5817,-7.6165,-7.6359,-7.6397,-7.6397,-7.6397,-7.6386,-7.6362,-7.6338,-7.6313,-7.6339,-7.6584,-7.6751,-7.6918,-7.7329,-7.8061,-7.8216,-7.7983,-7.7945,-7.779,-7.7751,-7.779,-7.7132,-7.0402,-7.0402,-7.0402,-7.0402,-7.0402,-7.0402,-7.0402,-7.0402,-7.0402,-7.0435,-7.0538,-7.0616,-7.0708,-7.0743,-7.0815,-7.0871,-7.0885,-7.0898,-7.0898,-7.0898,-7.0885,-7.0898,-7.0898,-7.0885,-7.0898,-7.0898,-7.0898,-7.0898,-7.0898,-7.0898,-7.0898,-7.0898,-7.0898,-7.0898,-7.0898,-7.0898,-7.0898,-7.0898,-7.0898,-7.0898,-7.0898,-7.0898,-7.0898,-7.0898,-7.0912,-7.0939,-7.0979,-7.1043,-7.1118,-7.119,-7.1258,-7.1291,-7.1291,-7.1291,-7.1291,-7.1291,-7.1291,-7.1291,-7.133,-7.1407,-7.1562,-7.1756,-7.1872,-7.1988,-7.2645,-7.2645,-7.1949,-7.1872,-7.1369,-7.1291,-7.1291,-7.1291,-7.1291,-7.1291,-7.1833,-7.2181,-7.2491,-7.2955,-7.3187,-7.3264,-7.3574,-7.3844,-7.4115,-7.4425,-7.4618,-7.5198,-7.5624,-7.555,-7.5782,-7.5847,-7.5797,-7.5835,-7.6169,-7.6308,-7.6359,-7.6397,-7.6397,-7.6397,-7.6374,-7.6326,-7.6276,-7.6238,-7.6289,-7.6585,-7.6958,-7.7331,-7.7859,-7.8708,-7.8861,-7.859,-7.8718,-7.8834,-7.8834,-7.8757,-7.8177,-7.0402,-7.0402,-7.0402,-7.0402,-7.0402,-7.0402,-7.0402,-7.0402,-7.0402,-7.0402,-7.0419,-7.0538,-7.0616,-7.0708,-7.0782,-7.0815,-7.0843,-7.0829,-7.0843,-7.0857,-7.0857,-7.0829,-7.0843,-7.0857,-7.0857,-7.0871,-7.0885,-7.0898,-7.0898,-7.0898,-7.0898,-7.0898,-7.0898,-7.0898,-7.0898,-7.0898,-7.0898,-7.0898,-7.0898,-7.0898,-7.0898,-7.0898,-7.0898,-7.0898,-7.0898,-7.0939,-7.0965,-7.1018,-7.1081,-7.1154,-7.1236,-7.1269,-7.1291,-7.1291,-7.1291,-7.133,-7.1601,-7.1601,-7.164,-7.1872,-7.2258,-7.2568,-7.2684,-7.3071,-7.369,-7.3535,-7.2839,-7.2452,-7.1949,-7.1717,-7.1717,-7.1678,-7.1678,-7.1794,-7.2452,-7.2955,-7.3458,-7.396,-7.4038,-7.4077,-7.4347,-7.4618,-7.4839,-7.5148,-7.5535,-7.6165,-7.6374,-7.6338,-7.6275,-7.6134,-7.6044,-7.6044,-7.6172,-7.6287,-7.6362,-7.6362,-7.635,-7.6326,-7.6301,-7.625,-7.6198,-7.6145,-7.6286,-7.6673,-7.7047,-7.7768,-7.8477,-7.9211,-7.9249,-7.939,-7.9712,-7.9956,-7.9724,-7.9608,-7.9299,-7.0402,-7.0402,-7.0402,-7.0402,-7.0402,-7.0402,-7.0402,-7.0402,-7.0402,-7.0402,-7.0419,-7.0419,-7.0522,-7.0616,-7.0708,-7.0767,-7.0782,-7.0782,-7.0767,-7.0752,-7.0796,-7.0743,-7.0729,-7.0811,-7.0772,-7.0815,-7.0857,-7.0898,-7.0898,-7.0898,-7.0898,-7.0898,-7.0898,-7.0898,-7.0898,-7.0898,-7.0898,-7.0898,-7.0898,-7.0898,-7.0898,-7.0898,-7.0898,-7.0898,-7.0898,-7.0912,-7.0925,-7.0979,-7.1005,-7.1068,-7.1154,-7.1224,-7.1258,-7.128,-7.1319,-7.1629,-7.1899,-7.222,-7.2336,-7.2761,-7.3226,-7.3535,-7.3651,-7.3728,-7.4115,-7.4154,-7.3767,-7.3767,-7.3419,-7.3264,-7.3226,-7.3148,-7.3109,-7.3226,-7.369,-7.3806,-7.4077,-7.4579,-7.4877,-7.5109,-7.538,-7.56,-7.5794,-7.5937,-7.5925,-7.635,-7.6326,-7.6288,-7.6238,-7.6225,-7.6212,-7.6212,-7.6212,-7.6225,-7.6238,-7.6263,-7.625,-7.6238,-7.6225,-7.6185,-7.6118,-7.6048,-7.6279,-7.6822,-7.775,-7.8626,-7.9299,-7.9777,-8.0383,-8.0615,-8.0949,-8.1117,-8.0807,-8.0459,-8.015]},{"header":{"parameterUnit":"m.s-1","parameterCategory":1,"la1":31.0,"la2":29.5877,"lo1":-88.7671,"lo2":-86.6584,"dy":0.0162,"dx":0.0185,"nx":115,"ny":88,"refTime":"2023-03-21T06:00:00:Z","depth":0,"parameterNumber":3,"parameterNumberName":"V-component_of_WINDS"},"data":[0.0,0.0,0.0,0.0,0.0,0.0,0.0,0.0,0.0,0.0,0.0,0.0,0.0,0.0,0.0,0.0,0.0,0.0,0.0,0.0,0.0,0.0,0.0,0.0,0.0,0.0,0.0,0.0,0.0,0.0,0.0,0.0,0.0,0.0,0.0,0.0,0.0,0.0,0.0,0.0,0.0,0.0,0.0,0.0,0.0,0.0,0.0,0.0,0.0,0.0,0.0,0.0,0.0,0.0,0.0,0.0,0.0,0.0,0.0,0.0,0.0,0.0,0.0,0.0,0.0,0.0,0.0,0.0,0.0,0.0,0.0,0.0,0.0,0.0,0.0,0.0,0.0,0.0,0.0,0.0,0.0,0.0,0.0,0.0,0.0,0.0,0.0,0.0,0.0,0.0,0.0,0.0,0.0,0.0,0.0,0.0,0.0,0.0,0.0,0.0,0.0,0.0,0.0,0.0,0.0,0.0,0.0,0.0,0.0,0.0,0.0,0.0,0.0,0.0,0.0,0.0,0.0,0.0,0.0,0.0,0.0,0.0,0.0,0.0,0.0,0.0,0.0,0.0,0.0,0.0,0.0,0.0,0.0,0.0,0.0,0.0,0.0,0.0,0.0,0.0,0.0,0.0,0.0,0.0,0.0,0.0,0.0,0.0,0.0,0.0,0.0,0.0,0.0,0.0,0.0,0.0,0.0,0.0,0.0,0.0,0.0,0.0,0.0,0.0,0.0,0.0,0.0,0.0,0.0,0.0,0.0,0.0,0.0,0.0,0.0,0.0,0.0,0.0,0.0,0.0,0.0,0.0,0.0,0.0,0.0,0.0,0.0,0.0,0.0,0.0,0.0,0.0,0.0,0.0,0.0,0.0,0.0,0.0,0.0,0.0,0.0,0.0,0.0,0.0,0.0,0.0,0.0,0.0,0.0,0.0,0.0,0.0,0.0,0.0,0.0,0.0,0.0,0.0,0.0,0.0,0.0,0.0,0.0,0.0,0.0,0.0,0.0,0.0,0.0,0.0,0.0,0.0,0.0,0.0,0.0,0.0,0.0,0.0,0.0,0.0,0.0,0.0,0.0,0.0,0.0,0.0,0.0,0.0,0.0,0.0,0.0,0.0,0.0,0.0,0.0,0.0,0.0,0.0,0.0,0.0,0.0,0.0,0.0,0.0,0.0,0.0,0.0,0.0,0.0,0.0,0.0,0.0,0.0,0.0,0.0,0.0,0.0,0.0,0.0,0.0,0.0,0.0,0.0,0.0,0.0,0.0,0.0,0.0,0.0,0.0,0.0,0.0,0.0,0.0,0.0,0.0,0.0,0.0,0.0,0.0,0.0,0.0,0.0,0.0,0.0,0.0,0.0,0.0,0.0,0.0,0.0,0.0,0.0,0.0,0.0,0.0,0.0,0.0,0.0,0.0,0.0,0.0,0.0,0.0,0.0,0.0,0.0,0.0,0.0,0.0,0.0,0.0,0.0,0.0,0.0,0.0,0.0,0.0,0.0,0.0,0.0,0.0,0.0,0.0,0.0,0.0,0.0,0.0,0.0,0.0,0.0,0.0,0.0,0.0,0.0,0.0,0.0,0.0,0.0,0.0,0.0,0.0,0.0,0.0,0.0,0.0,0.0,0.0,0.0,0.0,0.0,0.0,0.0,0.0,0.0,0.0,0.0,0.0,0.0,0.0,0.0,0.0,0.0,0.0,0.0,0.0,0.0,0.0,0.0,0.0,0.0,0.0,0.0,0.0,0.0,0.0,0.0,0.0,0.0,0.0,0.0,0.0,0.0,0.0,0.0,0.0,0.0,0.0,0.0,0.0,0.0,0.0,0.0,0.0,0.0,0.0,0.0,0.0,0.0,0.0,0.0,0.0,0.0,0.0,0.0,0.0,0.0,0.0,0.0,0.0,0.0,0.0,0.0,0.0,0.0,0.0,0.0,0.0,0.0,0.0,0.0,0.0,0.0,0.0,0.0,0.0,0.0,0.0,0.0,0.0,0.0,0.0,0.0,0.0,0.0,0.0,0.0,0.0,0.0,0.0,0.0,0.0,0.0,0.0,0.0,0.0,0.0,0.0,0.0,0.0,0.0,0.0,0.0,0.0,0.0,0.0,0.0,0.0,0.0,0.0,0.0,0.0,0.0,0.0,0.0,0.0,0.0,0.0,0.0,0.0,0.0,0.0,0.0,0.0,0.0,0.0,0.0,0.0,0.0,0.0,0.0,0.0,0.0,0.0,0.0,0.0,0.0,0.0,0.0,0.0,0.0,0.0,0.0,0.0,0.0,0.0,0.0,0.0,0.0,0.0,0.0,0.0,0.0,0.0,0.0,0.0,0.0,0.0,0.0,0.0,0.0,0.0,0.0,0.0,0.0,0.0,0.0,0.0,0.0,0.0,0.0,0.0,0.0,0.0,0.0,0.0,0.0,0.0,0.0,0.0,0.0,0.0,0.0,0.0,0.0,0.0,0.0,0.0,0.0,0.0,0.0,0.0,0.0,0.0,0.0,0.0,0.0,0.0,0.0,0.0,0.0,0.0,0.0,0.0,0.0,0.0,0.0,0.0,0.0,0.0,0.0,0.0,0.0,0.0,0.0,0.0,0.0,0.0,0.0,0.0,0.0,0.0,0.0,0.0,0.0,0.0,0.0,0.0,0.0,0.0,0.0,0.0,0.0,0.0,0.0,0.0,0.0,0.0,0.0,0.0,0.0,0.0,0.0,0.0,0.0,0.0,0.0,0.0,0.0,0.0,0.0,0.0,0.0,0.0,0.0,0.0,0.0,0.0,0.0,0.0,0.0,0.0,0.0,0.0,0.0,0.0,0.0,0.0,0.0,0.0,0.0,0.0,0.0,0.0,0.0,0.0,0.0,0.0,0.0,0.0,0.0,0.0,0.0,0.0,0.0,0.0,0.0,0.0,0.0,0.0,0.0,0.0,0.0,0.0,0.0,0.0,0.0,0.0,0.0,0.0,0.0,0.0,0.0,0.0,0.0,0.0,0.0,0.0,0.0,0.0,0.0,0.0,0.0,0.0,0.0,0.0,0.0,0.0,0.0,0.0,0.0,0.0,0.0,0.0,0.0,0.0,0.0,0.0,0.0,0.0,0.0,0.0,0.0,0.0,0.0,0.0,0.0,0.0,0.0,0.0,0.0,0.0,0.0,0.0,0.0,0.0,0.0,0.0,0.0,0.0,0.0,0.0,0.0,0.0,0.0,0.0,0.0,0.0,0.0,0.0,0.0,0.0,0.0,0.0,0.0,0.0,0.0,0.0,0.0,0.0,0.0,0.0,0.0,0.0,0.0,0.0,0.0,0.0,0.0,0.0,0.0,0.0,0.0,0.0,0.0,0.0,0.0,0.0,0.0,0.0,0.0,0.0,0.0,0.0,0.0,0.0,0.0,0.0,0.0,0.0,0.0,0.0,0.0,0.0,0.0,0.0,0.0,0.0,0.0,0.0,0.0,0.0,0.0,0.0,0.0,0.0,0.0,0.0,0.0,0.0,0.0,0.0,0.0,0.0,0.0,0.0,0.0,0.0,0.0,0.0,0.0,0.0,0.0,0.0,0.0,0.0,0.0,0.0,0.0,0.0,0.0,0.0,0.0,0.0,0.0,0.0,0.0,0.0,0.0,0.0,0.0,0.0,0.0,0.0,0.0,0.0,0.0,0.0,0.0,0.0,0.0,0.0,0.0,0.0,0.0,0.0,0.0,0.0,0.0,0.0,0.0,0.0,0.0,0.0,0.0,0.0,0.0,0.0,0.0,0.0,0.0,0.0,0.0,0.0,0.0,0.0,0.0,0.0,0.0,0.0,0.0,0.0,0.0,0.0,0.0,0.0,0.0,0.0,0.0,0.0,0.0,0.0,0.0,0.0,0.0,0.0,0.0,0.0,0.0,0.0,0.0,0.0,0.0,0.0,0.0,0.0,0.0,0.0,0.0,0.0,0.0,0.0,0.0,0.0,0.0,0.0,0.0,0.0,0.0,0.0,0.0,0.0,0.0,0.0,0.0,0.0,0.0,0.0,0.0,0.0,0.0,0.0,0.0,0.0,0.0,0.0,0.0,0.0,0.0,0.0,0.0,0.0,0.0,0.0,0.0,0.0,0.0,0.0,0.0,0.0,0.0,0.0,0.0,0.0,0.0,0.0,0.0,0.0,0.0,0.0,0.0,0.0,0.0,0.0,0.0,0.0,0.0,0.0,0.0,0.0,0.0,0.0,0.0,0.0,0.0,0.0,0.0,0.0,0.0,0.0,0.0,0.0,0.0,0.0,0.0,0.0,-0.3771,0.0,0.0,0.0,0.0,0.0,0.0,0.0,0.0,0.0,0.0,0.0,0.0,0.0,0.0,0.0,0.0,0.0,0.0,0.0,0.0,0.0,0.0,0.0,0.0,0.0,0.0,0.0,0.0,0.0,0.0,0.0,0.0,0.0,0.0,0.0,0.0,0.0,0.0,0.0,0.0,0.0,0.0,0.0,0.0,0.0,0.0,0.0,0.0,0.0,0.0,0.0,0.0,0.0,0.0,0.0,0.0,0.0,0.0,0.0,0.0,0.0,0.0,0.0,0.0,0.0,0.0,0.0,0.0,0.0,0.0,0.0,0.0,0.0,0.0,0.0,0.0,0.0,0.0,0.0,0.0,0.0,0.0,0.0,0.0,0.0,0.0,0.0,0.0,0.0,0.0,0.0,0.0,0.0,0.0,0.0,0.0,0.0,0.0,0.0,0.0,0.0,0.0,0.0,0.0,0.0,0.0,0.0,0.0,0.0,0.0,-0.2356,-0.2553,-0.2692,-0.3028,-0.3545,0.0,0.0,0.0,0.0,0.0,0.0,0.0,0.0,0.0,0.0,0.0,0.0,0.0,0.0,0.0,0.0,0.0,0.0,0.0,0.0,0.0,0.0,0.0,0.0,0.0,0.0,0.0,0.0,0.0,0.0,0.0,0.0,0.0,0.0,0.0,0.0,0.0,0.0,0.0,0.0,0.0,0.0,0.0,0.0,0.0,0.0,0.0,0.0,0.0,0.0,0.0,0.0,0.0,0.0,0.0,0.0,0.0,0.0,0.0,0.0,0.0,0.0,0.0,0.0,0.0,0.0,0.0,0.0,0.0,0.0,0.0,0.0,0.0,0.0,0.0,0.0,0.0,0.0,0.0,0.0,0.0,0.0,0.0,0.0,0.0,0.0,0.0,0.0,0.0,0.0,0.0,0.0,0.0,0.0,0.0,0.0,0.0,0.0,0.0,0.0,0.0,0.0,0.0,0.0,0.0,0.0,0.0,0.0,0.0,0.0,0.0,0.0,-0.2514,-0.2927,-0.3381,0.0,0.0,0.0,0.0,0.0,0.0,0.0,0.0,0.0,0.0,0.0,0.0,0.0,0.0,0.0,0.0,0.0,0.0,0.0,0.0,0.0,0.0,0.0,0.0,0.0,0.0,0.0,0.0,0.0,0.0,0.0,0.0,0.0,0.0,0.0,0.0,0.0,0.0,0.0,0.0,0.0,0.0,0.0,0.0,0.0,0.0,0.0,0.0,0.0,0.0,0.0,0.0,0.0,0.0,0.0,0.0,0.0,0.0,0.0,0.0,0.0,0.0,0.0,0.0,0.0,0.0,0.0,0.0,0.0,0.0,0.0,0.0,0.0,0.0,0.0,0.0,0.0,0.0,0.0,0.0,0.0,0.0,0.0,0.0,0.0,0.0,0.0,0.0,0.0,0.0,0.0,0.0,0.0,0.0,0.0,0.0,0.0,0.0,0.0,0.0,0.0,0.0,0.0,0.0,0.0,0.0,0.0,0.0,0.0,0.0,-0.2258,-0.2256,-0.2328,0.0,-0.3355,0.0,0.0,0.0,0.0,0.0,0.0,0.0,0.0,0.0,0.0,0.0,0.0,0.0,0.0,0.0,0.0,0.0,0.0,0.0,0.0,0.0,0.0,0.0,0.0,0.0,0.0,0.0,0.0,0.0,0.0,0.0,0.0,0.0,0.0,0.0,0.0,0.0,0.0,0.0,0.0,0.0,0.0,0.0,0.0,0.0,0.0,0.0,0.0,0.0,0.0,0.0,0.0,0.0,0.0,0.0,0.0,0.0,0.0,0.0,0.0,0.0,0.0,0.0,0.0,0.0,0.0,0.0,0.0,0.0,0.0,0.0,0.0,0.0,0.0,0.0,0.0,0.0,0.0,0.0,0.0,0.0,0.0,0.0,0.0,0.0,0.0,0.0,0.0,0.0,0.0,0.0,0.0,0.0,0.0,0.0,0.0,0.0,0.0,0.0,0.0,0.0,0.0,0.0,0.0,0.0,0.0,0.0,0.0,0.0,0.0,-0.226,-0.226,-0.2551,-0.2898,0.0,0.0,0.0,0.0,0.0,0.0,0.0,0.0,0.0,0.0,0.0,0.0,0.0,0.0,0.0,0.0,0.0,0.0,0.0,0.0,0.0,0.0,0.0,0.0,0.0,0.0,0.0,0.0,0.0,0.0,0.0,0.0,0.0,0.0,0.0,0.0,0.0,0.0,0.0,0.0,0.0,0.0,0.0,0.0,0.0,0.0,0.0,0.0,0.0,0.0,0.0,0.0,0.0,0.0,0.0,0.0,0.0,0.0,0.0,0.0,0.0,0.0,0.0,0.0,0.0,0.0,0.0,0.0,0.0,0.0,0.0,0.0,0.0,0.0,0.0,0.0,0.0,0.0,0.0,0.0,0.0,0.0,0.0,0.0,0.0,0.0,0.0,0.0,0.0,0.0,0.0,0.0,0.0,0.0,0.0,0.0,0.0,0.0,0.0,0.0,0.0,0.0,0.0,0.0,0.0,0.0,0.0,0.0,0.0,0.0,-0.226,-0.226,-0.2333,-0.2551,-0.2903,-0.3235,0.0,0.0,0.0,0.0,0.0,0.0,0.0,0.0,0.0,0.0,0.0,0.0,0.0,0.0,0.0,0.0,0.0,0.0,0.0,0.0,0.0,0.0,0.0,0.0,0.0,0.0,0.0,0.0,0.0,0.0,0.0,0.0,0.0,0.0,0.0,0.0,0.0,0.0,0.0,0.0,0.0,0.0,0.0,0.0,0.0,0.0,0.0,0.0,0.0,0.0,0.0,0.0,0.0,0.0,0.0,0.0,0.0,0.0,0.0,0.0,0.0,0.0,0.0,0.0,0.0,0.0,0.0,0.0,0.0,0.0,0.0,0.0,0.0,0.0,0.0,0.0,0.0,0.0,0.0,0.0,0.0,0.0,0.0,0.0,0.0,0.0,0.0,0.0,0.0,0.0,0.0,0.0,0.0,0.0,0.0,0.0,0.0,0.0,0.0,0.0,0.0,0.0,0.0,0.0,0.0,0.0,0.0,0.0,-0.226,-0.226,-0.226,-0.226,-0.2333,-0.2478,0.0,0.0,0.0,0.0,0.0,0.0,0.0,0.0,0.0,0.0,0.0,0.0,0.0,0.0,0.0,0.0,0.0,0.0,0.0,0.0,0.0,0.0,0.0,0.0,0.0,0.0,0.0,0.0,0.0,0.0,0.0,0.0,0.0,0.0,0.0,0.0,0.0,0.0,0.0,0.0,0.0,0.0,0.0,0.0,0.0,0.0,0.0,0.0,0.0,0.0,0.0,0.0,0.0,0.0,0.0,0.0,0.0,0.0,0.0,0.0,0.0,0.0,0.0,0.0,0.0,0.0,0.0,0.0,0.0,0.0,0.0,0.0,0.0,0.0,0.0,0.0,0.0,0.0,0.0,0.0,0.0,0.0,0.0,0.0,0.0,0.0,0.0,0.0,0.0,0.0,0.0,0.0,0.0,0.0,0.0,0.0,0.0,0.0,0.0,0.0,0.0,0.0,0.0,0.0,0.0,0.0,0.0,0.0,0.0,-0.226,-0.226,-0.226,-0.226,-0.226,-0.2478,0.0,0.0,0.0,0.0,0.0,0.0,0.0,0.0,0.0,0.0,0.0,0.0,0.0,0.0,0.0,0.0,0.0,0.0,0.0,0.0,0.0,0.0,0.0,0.0,0.0,0.0,0.0,0.0,0.0,0.0,0.0,0.0,0.0,0.0,0.0,0.0,0.0,0.0,0.0,0.0,0.0,0.0,0.0,0.0,0.0,0.0,0.0,0.0,0.0,0.0,0.0,0.0,0.0,0.0,0.0,0.0,0.0,0.0,0.0,0.0,0.0,0.0,0.0,0.0,0.0,0.0,0.0,0.0,0.0,0.0,0.0,0.0,0.0,0.0,0.0,0.0,0.0,0.0,0.0,0.0,0.0,0.0,0.0,0.0,0.0,0.0,0.0,0.0,0.0,0.0,0.0,0.0,0.0,0.0,0.0,0.0,0.0,0.0,0.0,0.0,0.0,0.0,0.0,0.0,0.0,0.0,0.0,0.0,0.0,-0.226,0.0,-0.226,-0.226,-0.226,-0.2405,0.0,0.0,0.0,0.0,0.0,0.0,0.0,0.0,0.0,0.0,0.0,0.0,0.0,0.0,0.0,0.0,0.0,0.0,0.0,0.0,0.0,0.0,0.0,0.0,0.0,0.0,0.0,0.0,0.0,0.0,0.0,0.0,0.0,0.0,0.0,0.0,0.0,0.0,0.0,0.0,0.0,0.0,0.0,0.0,0.0,0.0,0.0,0.0,0.0,0.0,0.0,0.0,0.0,0.0,0.0,0.0,0.0,0.0,0.0,0.0,0.0,0.0,0.0,0.0,0.0,0.0,0.0,0.0,0.0,0.0,0.0,0.0,0.0,0.0,0.0,0.0,0.0,0.0,0.0,0.0,0.0,0.0,0.0,0.0,0.0,0.0,0.0,0.0,0.0,0.0,0.0,0.0,0.0,0.0,0.0,0.0,0.0,0.0,0.0,0.0,0.0,0.0,0.0,0.0,0.0,0.0,0.0,0.0,-0.226,-0.226,-0.226,-0.226,-0.226,-0.226,-0.226,0.0,0.0,0.0,0.0,0.0,0.0,0.0,0.0,0.0,0.0,0.0,0.0,0.0,0.0,0.0,0.0,0.0,0.0,0.0,0.0,0.0,0.0,0.0,0.0,0.0,0.0,0.0,0.0,0.0,0.0,0.0,0.0,0.0,0.0,0.0,0.0,0.0,0.0,0.0,0.0,0.0,0.0,0.0,0.0,0.0,0.0,0.0,0.0,0.0,0.0,0.0,0.0,0.0,0.0,0.0,0.0,0.0,0.0,0.0,0.0,0.0,0.0,0.0,0.0,0.0,0.0,0.0,0.0,0.0,0.0,0.0,0.0,0.0,0.0,0.0,0.0,0.0,0.0,0.0,0.0,0.0,0.0,0.0,0.0,0.0,0.0,0.0,0.0,0.0,0.0,0.0,0.0,0.0,0.0,0.0,0.0,0.0,0.0,0.0,0.0,0.0,0.0,0.0,0.0,0.0,0.0,0.0,0.0,0.0,-0.226,-0.226,-0.226,-0.226,-0.226,-0.226,0.0,0.0,0.0,0.0,0.0,0.0,0.0,0.0,0.0,0.0,0.0,0.0,0.0,0.0,0.0,0.0,0.0,0.0,0.0,0.0,0.0,0.0,0.0,0.0,0.0,0.0,0.0,0.0,0.0,0.0,0.0,0.0,0.0,0.0,0.0,0.0,0.0,0.0,0.0,0.0,0.0,0.0,0.0,0.0,0.0,0.0,0.0,0.0,0.0,0.0,0.0,0.0,0.0,0.0,0.0,0.0,0.0,0.0,0.0,0.0,0.0,0.0,0.0,0.0,0.0,0.0,0.0,0.0,0.0,0.0,0.0,0.0,0.0,0.0,0.0,0.0,0.0,0.0,0.0,0.0,0.0,0.0,0.0,0.0,0.0,0.0,0.0,0.0,0.0,0.0,0.0,0.0,0.0,0.0,0.0,0.0,0.0,0.0,0.0,0.0,0.0,0.0,0.0,0.0,0.0,0.0,0.0,0.0,0.0,-0.1869,-0.2022,-0.2094,-0.2084,-0.2239,-0.2318,-0.2318,0.0,0.0,0.0,0.0,0.0,0.0,0.0,0.0,0.0,0.0,0.0,0.0,0.0,0.0,0.0,0.0,0.0,0.0,0.0,0.0,0.0,0.0,0.0,0.0,0.0,0.0,0.0,0.0,0.0,0.0,0.0,0.0,0.0,0.0,0.0,0.0,0.0,0.0,0.0,0.0,0.0,0.0,0.0,0.0,0.0,0.0,0.0,0.0,0.0,0.0,0.0,0.0,0.0,0.0,0.0,0.0,0.0,0.0,0.0,0.0,0.0,0.0,0.0,0.0,0.0,0.0,0.0,0.0,0.0,0.0,0.0,0.0,0.0,0.0,0.0,0.0,0.0,0.0,0.0,0.0,0.0,0.0,0.0,0.0,0.0,0.0,0.0,0.0,0.0,0.0,0.0,0.0,0.0,0.0,0.0,0.0,0.0,0.0,0.0,0.0,0.0,0.0,0.0,0.0,0.0,0.0,0.0,0.0,-0.112,-0.1489,-0.1634,-0.1685,-0.2062,-0.2292,0.0,0.0,0.0,0.0,0.0,0.0,0.0,0.0,0.0,0.0,0.0,0.0,0.0,0.0,0.0,0.0,0.0,0.0,0.0,0.0,0.0,0.0,0.0,0.0,0.0,0.0,0.0,0.0,0.0,0.0,0.0,0.0,0.0,0.0,0.0,0.0,0.0,0.0,0.0,0.0,0.0,0.0,0.0,0.0,0.0,0.0,0.0,0.0,0.0,0.0,0.0,0.0,0.0,0.0,0.0,0.0,0.0,0.0,0.0,0.0,0.0,0.0,0.0,0.0,0.0,0.0,0.0,0.0,0.0,0.0,0.0,0.0,0.0,0.0,0.0,0.0,0.0,0.0,0.0,0.0,0.0,0.0,0.0,0.0,0.0,0.0,0.0,0.0,0.0,0.0,0.0,0.0,0.0,0.0,0.0,0.0,0.0,0.0,0.0,0.0,0.0,0.0,0.0,0.0,0.0,0.0,0.0,0.0,0.0,-0.0341,-0.0621,-0.0976,-0.1333,-0.1706,-0.1933,0.0,0.0,0.0,0.0,0.0,0.0,0.0,0.0,0.0,0.0,0.0,0.0,0.0,0.0,0.0,0.0,0.0,0.0,0.0,0.0,0.0,0.0,0.0,0.0,0.0,0.0,0.0,0.0,0.0,0.0,0.0,0.0,0.0,0.0,0.0,0.0,0.0,0.0,0.0,0.0,0.0,0.0,0.0,0.0,0.0,0.0,0.0,0.0,0.0,0.0,0.0,0.0,0.0,0.0,0.0,0.0,0.0,0.0,0.0,0.0,0.0,0.0,0.0,0.0,0.0,0.0,0.0,0.0,0.0,0.0,0.0,0.0,0.0,0.0,0.0,0.0,0.0,0.0,0.0,0.0,0.0,0.0,0.0,0.0,0.0,0.0,0.0,0.0,0.0,0.0,0.0,0.0,0.0,0.0,0.0,0.0,0.0,0.0,0.0,0.0,0.0,0.0,0.0,0.0,0.0,0.0,0.0,0.0,0.0475,0.0471,0.0136,-0.0205,-0.0483,-0.1124,-0.1562,0.0,0.0,0.0,0.0,0.0,0.0,0.0,0.0,0.0,0.0,0.0,0.0,0.0,0.0,0.0,0.0,0.0,0.0,0.0,0.0,0.0,0.0,0.0,0.0,0.0,0.0,0.0,0.0,0.0,0.0,0.0,0.0,0.0,0.0,0.0,0.0,0.0,0.0,0.0,0.0,0.0,0.0,0.0,0.0,0.0,0.0,0.0,0.0,0.0,0.0,0.0,0.0,0.0,0.0,0.0,0.0,0.0,0.0,0.0,0.0,0.0,0.0,0.0,0.0,0.0,0.0,0.0,0.0,0.0,0.0,0.0,0.0,0.0,0.0,0.0,0.0,0.0,0.0,0.0,0.0,0.0,0.0,0.0,0.0,0.0,0.0,0.0,0.0,0.0,0.0,0.0,0.0,0.0,0.0,0.0,0.0,0.0,0.0,0.0,0.0,0.0,0.0,0.0,0.0,0.0,0.0,0.0,0.0,0.1077,0.1077,0.0741,0.0539,0.0539,-0.0484,-0.1192,0.0,0.0,0.0,0.0,0.0,0.0,0.0,0.0,0.0,0.0,0.0,0.0,0.0,0.0,0.0,0.0,0.0,0.0,0.0,0.0,0.0,0.0,0.0,0.0,0.0,0.0,0.0,0.0,0.0,0.0,0.0,0.0,0.0,0.0,0.0,0.0,0.0,0.0,0.0,0.0,0.0,0.0,0.0,0.0,0.0,0.0,0.0,0.0,0.0,0.0,0.0,0.0,0.0,0.0,0.0,0.0,0.0,0.0,0.0,0.0,0.0,0.0,0.0,0.0,0.0,0.0,0.0,0.0,0.0,0.0,0.0,0.0,0.0,0.0,0.0,0.0,0.0,0.0,0.0,0.0,0.0,0.0,0.0,0.0,0.0,0.0,0.0,0.0,0.0,0.0,0.0,0.0,0.0,0.0,0.0,0.0,0.0,0.0,0.0,0.0,0.0,0.0,0.0,0.0,0.0,0.0,0.0,0.0,0.1077,0.1077,0.101,0.0943,0.0943,-0.0138,-0.0771,0.0,0.0,0.0,0.0,0.0,0.0,0.0,0.0,0.0,0.0,0.0,0.0,0.0,0.0,0.0,0.0,0.0,0.0,0.0,0.0,0.0,0.0,0.0,0.0,0.0,0.0,0.0,0.0,0.0,0.0,0.0,0.0,0.0,0.0,0.0,0.0,0.0,0.0,0.0,0.0,0.0,0.0,0.0,0.0,0.0,0.0,0.0,0.0,-0.2223,0.0,0.0,0.0,0.0,0.0,0.0,0.0,0.0,0.0,0.0,0.0,0.0,0.0,0.0,0.0,0.0,0.0,0.0,0.0,0.0,0.0,0.0,0.0,0.0,0.0,0.0,0.0,0.0,0.0,0.0,0.0,0.0,0.0,0.0,0.0,0.0,0.0,0.0,0.0,0.0,0.0,0.0,0.0,0.0,0.0,0.0,0.0,0.0,0.0,0.0,0.0,0.0,0.0,0.0,0.0,0.0,0.0,0.0,0.0,0.1885,0.1885,0.1683,0.1548,0.1347,0.0619,0.0069,0.0,0.0,0.0,0.0,0.0,0.0,0.0,0.0,0.0,0.0,0.0,0.0,0.0,0.0,0.0,0.0,0.0,0.0,0.0,0.0,0.0,0.0,0.0,0.0,0.0,0.0,0.0,0.0,0.0,0.0,0.0,0.0,0.0,0.0,0.0,0.0,0.0,0.0,0.0,0.0,0.0,0.0,0.0,0.0,0.0,0.0,0.0,0.0,0.0,0.0,0.0,0.0,0.0,0.0,0.0,0.0,0.0,0.0,0.0,0.0,0.0,0.0,0.0,0.0,0.0,0.0,0.0,0.0,0.0,0.0,0.0,0.0,0.0,0.0,0.0,0.0,0.0,0.0,0.0,0.0,0.0,0.0,0.0,0.0,0.0,0.0,0.0,0.0,0.0,0.0,0.0,0.0,0.0,0.0,0.0,0.0,0.0,0.0,0.0,0.0,0.0,0.0,0.0,0.0,0.0,0.0,0.0,0.262,0.2756,0.2761,0.2486,0.215,0.175,0.143,0.0959,0.0274,0.0,0.0,0.0,0.0,0.0,0.0,0.0,0.0,0.0,0.0,0.0,0.0,0.0,0.0,0.0,0.0,0.0,0.0,0.0,0.0,0.0,0.0,0.0,0.0,0.0,0.0,0.0,0.0,0.0,0.0,0.0,0.0,0.0,0.0,0.0,0.0,0.0,0.0,-0.1548,-0.1279,0.0,0.0,0.0,0.0,0.0,0.0,0.0,0.0,-0.1548,0.0,0.0,0.0,0.0,0.0,0.0,0.0,0.0,0.0,0.0,0.0,0.0,0.0,0.0,0.0,0.0,0.0,0.0,0.0,0.0,0.0,0.0,0.0,0.0,0.0,0.0,0.0,0.0,0.0,0.0,0.0,0.0,0.0,0.0,0.0,0.0,0.0,0.0,0.0,0.0,0.0,0.0,0.0,0.0,0.0,0.0,0.0,0.0,0.0,0.0,0.0,0.0,0.0,0.0,0.0,0.0,0.3026,0.306,0.306,0.3094,0.2994,0.2794,0.249,0.2159,0.1824,0.1352,0.0,0.0,0.0,0.0,0.0,0.0,0.0,0.0,0.0,0.0,0.0,0.0,0.0,0.0,0.0,0.0,0.0,0.0,0.0,0.0,0.0,0.0,0.0,0.0,0.0,0.0,0.0,0.0,0.0,0.0,0.0,0.0,0.0,0.0,0.0,0.0,0.0,0.0,0.0,-0.1144,-0.1077,0.0,0.0,0.0,0.0,0.0,0.0,0.0,0.0,-0.1212,0.0,0.0,0.0,0.0,0.0,0.0,0.0,0.0,0.0,0.0,0.0,0.0,0.0,0.0,0.0,0.0,0.0,0.0,0.0,0.0,0.0,0.0,0.0,0.0,0.0,0.0,0.0,0.0,0.0,0.0,0.0,0.0,0.0,0.0,0.0,0.0,0.0,0.0,0.0,0.0,0.0,0.0,0.0,0.0,0.0,0.0,0.0,0.0,0.0,0.0,0.0,0.0,0.0,0.0,0.0,0.3459,0.3437,0.3424,0.3421,0.3334,0.3216,0.2929,0.2598,0.2273,0.0,0.0,0.0,0.0,0.0,0.0,0.0,0.0,0.0,0.0,0.0,0.0,0.0,0.0,0.0,0.0,0.0,0.0,0.0,0.0,0.0,0.0,0.0,0.0,0.0,0.0,0.0,0.0,0.0,0.0,0.0,0.0,0.0,0.0,0.0,0.0,0.0,0.0,0.0,0.0,-0.0673,-0.0539,-0.0539,0.0,0.0,0.0,0.0,0.0,0.0,-0.0799,-0.0866,0.0,0.0,0.0,0.0,0.0,0.0,0.0,0.0,0.0,0.0,0.0,0.0,0.0,0.0,0.0,0.0,0.0,0.0,0.0,0.0,0.0,0.0,0.0,0.0,0.0,0.0,0.0,0.0,0.0,0.0,0.0,0.0,0.0,0.0,0.0,0.0,0.0,0.0,0.0,0.0,0.0,0.0,0.0,0.0,0.0,0.0,0.0,0.0,0.0,0.0,0.0,0.0,0.0,0.0,0.0,0.3889,0.394,0.3911,0.3804,0.3791,0.3625,0.3228,0.2965,0.2721,0.0,0.0,0.0,0.0,0.0,0.0,0.0,0.0,0.0,0.0,0.0,0.0,0.0,0.0,0.0,0.0,0.0,0.0,0.0,0.0,0.0,0.0,0.0,0.0,0.0,0.0,0.0,0.0,0.0,0.0,0.0,0.0,0.0,0.0,0.0,0.0,0.0,0.0,0.0,0.0,0.0,0.0,0.0,0.0,0.0,0.0,0.0,0.0,-0.0328,-0.0394,0.0,0.0,0.0,0.0,0.0,0.0,0.0,0.0,0.0,0.0,0.0,0.0,0.0,0.0,0.0,0.0,0.0,0.0,0.0,0.0,0.0,0.0,0.0,0.0,0.0,0.0,0.0,0.0,0.0,0.0,0.0,0.0,0.0,0.0,0.0,0.0,0.0,0.0,0.0,0.0,0.0,0.0,0.0,0.0,0.0,0.0,0.0,0.0,0.0,0.0,0.0,0.0,0.0,0.0,0.0,0.0,0.4613,0.4878,0.4843,0.4511,0.4391,0.4165,0.3684,0.3623,0.3448,0.0,0.0,0.0,0.0,0.0,0.0,0.0,0.0,0.0,0.0,0.0,0.0,0.0,0.0,0.0,0.0,0.0,0.0,0.0,0.0,0.0,0.0,0.0,0.0,0.0,0.0,0.0,0.0,0.0,0.0,0.0,0.0,0.0,0.0,0.0,0.0,0.0,0.0,0.0,0.0,0.0,0.0,0.0,0.0,0.0,0.0,0.0,0.0,-0.0065,-0.0065,0.0,0.0,0.0,0.0,0.0,0.0,0.0,0.0,0.0,0.0,0.0,0.0,0.0,0.0,0.0,0.0,0.0,0.0,0.0,0.0,0.0,0.0,0.0,0.0,0.0,0.0,0.0,0.0,0.0,0.0,0.0,0.0,0.0,0.0,0.0,0.0,0.0,0.0,0.0,0.0,0.0,0.0,0.0,0.0,0.0,0.0,0.0,0.0,0.0,0.0,0.0,0.0,0.0,0.0,0.0,0.4926,0.5014,0.5107,0.505,0.4781,0.4749,0.4548,0.4226,0.4034,0.3813,0.0,0.0,0.0,0.0,0.0,0.0,0.0,0.0,0.0,0.0,0.0,0.0,0.0,0.0,0.0,0.0,0.0,0.0,0.0,0.0,0.0,0.0,0.0,0.0,0.0,0.0,0.0,0.0,0.0,0.0,0.0,0.0,0.0,0.0,0.0,0.0,0.0,0.0,0.0,0.0,0.0,0.0,0.0588,0.0586,0.0,0.0,0.0,0.0574,0.0574,0.0,0.0,0.0,0.0,0.0,0.0,0.0,0.0,0.0,0.0,0.0,0.0,0.0,0.0,0.0,0.0,0.0,0.0,0.0,0.0,0.0,0.0,0.0,0.0,0.0,0.0,0.0,0.0,0.0,0.0,0.0,0.0,0.0,0.0,0.0,0.0,0.0,0.0,0.0,0.0,0.0,0.0,0.0,0.0,0.0,0.0,0.0,0.0,0.0,0.0,0.0,0.0,0.0,0.0,0.0,0.0,0.0,0.5286,0.5411,0.5336,0.5002,0.4995,0.4932,0.4676,0.4503,0.0,0.0,0.0,0.0,0.0,0.0,0.0,0.0,0.0,0.0,0.0,0.0,0.0,0.0,0.0,0.0,0.0,0.0,0.0,0.0,0.0,0.0,0.0,0.0,0.0,0.0,0.0,0.0743,0.0,0.0,0.0,0.0,0.0,0.0,0.0,0.0,0.0,0.0,0.0,0.0,0.0,0.0,0.1061,0.1031,0.1027,0.1025,0.0,0.0,0.1005,0.1005,0.1005,0.1005,0.0,0.0,0.0,0.0,0.0,0.0,0.0,0.0,0.0,0.0,0.0,0.0,0.0,0.0,0.0,0.0,0.0,0.0,0.0,0.0,0.0,0.0,0.0,0.0,0.0,0.0,0.0,0.0,0.0,0.0,0.0,0.0,0.0,0.0,0.0,0.0,0.0,0.0,0.0,0.0,0.0,0.0,0.0,0.0,0.0,0.0,0.0,0.0,0.0,0.0,0.0,0.0,0.0,0.0,0.5767,0.5615,0.5925,0.5902,0.5367,0.536,0.5277,0.4983,0.5053,0.4998,0.0,0.0,0.0,0.0,0.0,0.0,0.0,0.0,0.0,0.0,0.0,0.0,0.0,0.0,0.0,0.0,0.0,0.0,0.0,0.0,0.0,0.0,0.0,0.0,0.0,0.0,0.0,0.0,0.0,0.0,0.0,0.0,0.0,0.0,0.0,0.0,0.0,0.0,0.0,0.0,0.0,0.098,0.1016,0.1012,0.1007,0.0,0.099,0.0989,0.099,0.0989,0.0989,0.0989,0.0,0.0,0.0,0.0,0.0,0.0,0.0,0.0,0.0,0.0,0.0,0.0,0.0,0.0,0.0,0.0,0.0,0.0,0.0,0.0,0.0,0.0,0.0,0.0,0.0,0.0,0.0,0.0,0.0,0.0,0.0,0.0,0.0,0.0,0.0,0.0,0.0,0.0,0.0,0.0,0.0,0.0,0.0,0.0,0.0,0.0,0.0,0.0,0.0,0.0,0.0,0.0,0.0,0.6163,0.5993,0.6118,0.6029,0.574,0.5732,0.5586,0.529,0.5372,0.5321,0.0,0.0,0.0,0.0,0.0,0.0,0.0,0.0,0.0,0.0,0.0,0.0,0.0,0.0,0.0,0.0,0.0,0.0,0.0,0.0,0.0,0.0,0.0,0.0,0.0,0.0,0.0,0.0,0.2296,0.2284,0.2305,0.0,0.0,0.0,0.0,0.0,0.0,0.0,0.0,0.0,0.0,0.2284,0.2282,0.2254,0.0,0.0,0.2222,0.2221,0.2222,0.2221,0.2222,0.2221,0.2222,0.0,0.0,0.0,0.0,0.0,0.0,0.0,0.0,0.0,0.0,0.0,0.0,0.0,0.0,0.0,0.0,0.0,0.0,0.0,0.0,0.0,0.0,0.0,0.0,0.0,0.0,0.0,0.0,0.0,0.0,0.0,0.0,0.0,0.0,0.0,0.0,0.0,0.0,0.0,0.0,0.0,0.0,0.0,0.0,0.0,0.0,0.0,0.0,0.0,0.0,0.0,0.0,0.663,0.6379,0.6374,0.6159,0.5921,0.5916,0.5822,0.5636,0.5653,0.5608,0.0,0.0,0.0,0.0,0.0,0.0,0.0,0.0,0.0,0.0,0.0,0.0,0.0,0.0,0.0,0.0,0.0,0.0,0.0,0.0,0.0,0.0,0.0,0.0,0.0,0.0,0.0,0.0,0.3114,0.3095,0.3075,0.0,0.0,0.0,0.0,0.0,0.0,0.0,0.0,0.0,0.0,0.3136,0.3124,0.3074,0.3043,0.3043,0.3032,0.296,0.296,0.296,0.296,0.296,0.0,0.0,0.0,0.0,0.0,0.0,0.0,0.0,0.0,0.0,0.0,0.0,0.0,0.0,0.0,0.0,0.0,0.0,0.0,0.0,0.0,0.0,0.0,0.0,0.0,0.0,0.0,0.5446,0.0,0.0,0.5979,0.0,0.0,0.0,0.0,0.0,0.0,0.0,0.0,0.0,0.0,0.0,0.0,0.0,0.0,0.0,0.0,0.0,0.0,0.0,0.0,0.0,0.0,0.7224,0.6704,0.6699,0.648,0.5925,0.5916,0.5921,0.5925,0.5948,0.5843,0.5612,0.0,0.0,0.0,0.0,0.0,0.0,0.0,0.0,0.0,0.0,0.0,0.0,0.0,0.0,0.0,0.0,0.0,0.0,0.0,0.0,0.0,0.0,0.0,0.0,0.0,0.0,0.3165,0.3083,0.3048,0.0,0.0,0.0,0.0,0.0,0.0,0.0,0.0,0.0,0.3241,0.3231,0.3148,0.3103,0.312,0.3091,0.3091,0.3053,0.3024,0.3024,0.3024,0.296,0.0,0.0,0.0,0.0,0.0,0.0,0.0,0.0,0.0,0.0,0.0,0.0,0.0,0.0,0.0,0.0,0.0,0.0,0.0,0.0,0.0,0.0,0.0,0.0,0.0,0.0,0.0,0.679,0.679,0.0,0.0,0.0,0.0,0.0,0.0,0.0,0.0,0.0,0.0,0.0,0.7326,0.7326,0.0,0.0,0.0,0.0,0.0,0.0,0.0,0.0,0.0,0.0,0.0,0.0,0.7356,0.7029,0.702,0.6855,0.6601,0.6346,0.6219,0.6223,0.6064,0.5998,0.6072,0.0,0.0,0.0,0.0,0.0,0.0,0.0,0.0,0.0,0.0,0.0,0.0,0.0,0.0,0.0,0.0,0.0,0.0,0.0,0.0,0.0,0.0,0.0,0.0,0.0,0.36,0.0,0.0,0.0,0.0,0.0,0.0,0.0,0.0,0.0,0.0,0.0,0.3964,0.3947,0.3912,0.3816,0.3864,0.3811,0.3776,0.0,0.0,0.0,0.0,0.0,0.0,0.0,0.0,0.0,0.0,0.0,0.0,0.0,0.0,0.2476,0.2562,0.2533,0.2566,0.2703,0.0,0.0,0.0,0.0,0.0,0.0,0.0,0.0,0.0,0.0,0.0,0.0,0.0,0.0,0.7526,0.7526,0.7526,0.0,0.0,0.0,0.0,0.0,0.0,0.0,0.0,0.7526,0.7593,0.7727,0.7727,0.7794,0.7861,0.7856,0.7861,0.0,0.0,0.0,0.0,0.0,0.0,0.0,0.0,0.77,0.7463,0.7419,0.7248,0.696,0.6733,0.6591,0.653,0.6314,0.6184,0.6264,0.609,0.6082,0.0,0.0,0.0,0.0,0.0,0.0,0.0,0.0,0.0,0.0,0.0,0.0,0.0,0.0,0.0,0.0,0.0,0.0,0.0,0.0,0.0,0.0,0.0,0.4249,0.0,0.0,0.0,0.0,0.0,0.0,0.0,0.0,0.0,0.4778,0.4641,0.4711,0.4711,0.4672,0.4579,0.4444,0.0,0.0,0.0,0.0,0.0,0.0,0.0,0.4055,0.3954,0.4041,0.4087,0.4147,0.4041,0.3969,0.3969,0.0,0.0,0.317,0.306,0.3015,0.297,0.296,0.3022,0.3145,0.3207,0.3207,0.0,0.0,0.0,0.0,0.7526,0.0,0.0,0.0,0.7526,0.7526,0.0,0.7593,0.0,0.0,0.0,0.0,0.7526,0.7526,0.0,0.0,0.7593,0.7727,0.8123,0.8123,0.8323,0.8584,0.8584,0.8584,0.8518,0.7861,0.0,0.0,0.0,0.0,0.0,0.0,0.8397,0.7948,0.777,0.7536,0.7176,0.7012,0.6903,0.6903,0.6625,0.6408,0.6242,0.6272,0.6357,0.6514,0.6522,0.0,0.0,0.0,0.0,0.0,0.0,0.0,0.0,0.0,0.0,0.0,0.0,0.0,0.0,0.0,0.0,0.0,0.0,0.0,0.0,0.5284,0.0,0.0,0.0,0.0,0.0,0.0,0.0,0.0,0.0,0.5446,0.5446,0.5379,0.5379,0.5379,0.0,0.0,0.0,0.0,0.4682,0.4287,0.4169,0.4131,0.4128,0.4128,0.4128,0.4061,0.0,0.0,0.421,0.4267,0.4305,0.4305,0.4193,0.3937,0.3304,0.3126,0.3078,0.3032,0.3083,0.3145,0.3455,0.3517,0.3579,0.8795,0.0,0.0,0.0,0.0,0.8256,0.8256,0.8256,0.8323,0.8256,0.8256,0.8323,0.0,0.0,0.0,0.0,0.0,0.0,0.8323,0.8256,0.8256,0.8323,0.8456,0.8456,0.8523,0.859,0.859,0.859,0.859,0.839,0.8323,0.8456,0.0,0.0,0.0,0.0,0.8464,0.8285,0.8103,0.7986,0.7807,0.7444,0.7143,0.6898,0.6874,0.6909,0.6883,0.6727,0.6692,0.6849,0.6585,0.0,0.0,0.0,0.0,0.0,0.0,0.0,0.0,0.0,0.0,0.0,0.0,0.0,0.0,0.0,0.0,0.0,0.0,0.0,0.526,0.5257,0.522,0.0,0.0,0.0,0.0,0.0,0.0,0.0,0.0,0.0,0.6187,0.5714,0.5379,0.0,0.0,0.5379,0.5245,0.5228,0.5082,0.4678,0.4597,0.0,0.4196,0.4191,0.4174,0.4134,0.4161,0.421,0.427,0.4297,0.4305,0.4305,0.4256,0.4144,0.3929,0.3786,0.3708,0.3655,0.364,0.364,0.3764,0.3764,0.3764,0.9461,0.9056,0.8856,0.8784,0.8784,0.8656,0.859,0.859,0.859,0.859,0.859,0.859,0.859,0.859,0.859,0.0,0.0,0.0,0.859,0.859,0.859,0.859,0.859,0.859,0.859,0.859,0.859,0.859,0.859,0.859,0.859,0.859,0.0,0.859,0.859,0.859,0.8552,0.8481,0.8367,0.8269,0.8198,0.7848,0.7516,0.7212,0.7209,0.7243,0.7265,0.714,0.7087,0.7183,0.6991,0.6857,0.0,0.0,0.0,0.0,0.0,0.0,0.0,0.0,0.0,0.0,0.0,0.5379,0.5379,0.0,0.0,0.0,0.5781,0.5797,0.5663,0.5623,0.0,0.0,0.0,0.0,0.0,0.0,0.0,0.6506,0.6522,0.6522,0.6455,0.6116,0.5852,0.5852,0.5852,0.5781,0.5647,0.0,0.5446,0.5111,0.5044,0.4894,0.4522,0.445,0.4369,0.4204,0.4229,0.4262,0.4297,0.4305,0.4305,0.4303,0.4278,0.4245,0.4221,0.4155,0.4087,0.397,0.3938,0.3922,0.3922,0.3903,0.3889,0.9861,0.9794,0.9389,0.9183,0.9117,0.879,0.8723,0.8656,0.8723,0.8723,0.8656,0.8656,0.859,0.859,0.859,0.0,0.859,0.859,0.859,0.859,0.859,0.859,0.859,0.859,0.859,0.859,0.859,0.859,0.859,0.8656,0.8656,0.8651,0.8656,0.8656,0.859,0.859,0.859,0.8584,0.8475,0.8416,0.8399,0.8187,0.7948,0.7634,0.7634,0.761,0.7486,0.7435,0.7483,0.7517,0.7526,0.7393,0.7054,0.0,0.0,0.0,0.0,0.0,0.0,0.0,0.0,0.0,0.0,0.0,0.0,0.0,0.0,0.0,0.625,0.0,0.6325,0.6239,0.0,0.0,0.0,0.6065,0.63,0.6317,0.6353,0.651,0.0,0.0,0.6522,0.6522,0.6522,0.6522,0.6522,0.6384,0.5979,0.5979,0.5848,0.5513,0.5446,0.5312,0.49,0.4833,0.4766,0.4495,0.4375,0.437,0.4372,0.4305,0.4305,0.4305,0.4305,0.4289,0.4234,0.4224,0.4207,0.415,0.4087,0.4041,0.3978,0.3943,0.3914,1.1321,1.1254,1.0585,1.0054,0.9528,0.9461,0.9395,0.9461,0.9461,0.9461,0.9395,0.9123,0.8851,0.859,0.859,0.859,0.859,0.859,0.859,0.859,0.859,0.859,0.859,0.859,0.859,0.859,0.859,0.859,0.859,0.8851,0.8984,0.8984,0.9322,0.9189,0.8656,0.859,0.859,0.859,0.8475,0.8372,0.828,0.822,0.8129,0.8066,0.8066,0.8071,0.8149,0.7893,0.7812,0.7917,0.766,0.7459,0.7393,0.7393,0.0,0.0,0.0,0.0,0.0,0.0,0.0,0.0,0.0,0.6254,0.6254,0.0,0.625,0.0,0.6455,0.6415,0.6325,0.6296,0.0,0.0,0.6161,0.6194,0.6304,0.6317,0.6353,0.651,0.6522,0.6522,0.6522,0.6522,0.6522,0.6522,0.6522,0.6455,0.6384,0.6317,0.625,0.5848,0.5778,0.5647,0.5312,0.5245,0.5245,0.5181,0.491,0.4708,0.4708,0.444,0.4305,0.4305,0.4305,0.43,0.4286,0.4286,0.4281,0.4262,0.4177,0.404,0.4104,0.409,0.4082,1.1784,1.1784,1.138,1.0982,1.0591,0.9994,0.9728,0.9728,0.9728,0.9728,0.9661,0.9455,0.9256,0.9062,0.9056,0.9123,0.9056,0.9056,0.9123,0.9056,0.9128,0.9123,0.9123,0.9123,0.9056,0.9123,0.9128,0.9056,0.9123,0.9256,0.9389,0.9389,0.9594,0.9528,0.9123,0.9128,0.9062,0.9056,0.8993,0.883,0.8517,0.8506,0.8447,0.8318,0.8318,0.8372,0.8492,0.8294,0.8254,0.8318,0.8123,0.7922,0.7794,0.7794,0.7588,0.0,0.0,0.0,0.0,0.0,0.0,0.0,0.0,0.0,0.0,0.0,0.6522,0.6522,0.6522,0.6502,0.6382,0.6341,0.6313,0.6304,0.6264,0.6276,0.637,0.6378,0.6398,0.6514,0.6522,0.6522,0.6522,0.6522,0.6522,0.6522,0.6522,0.6522,0.6522,0.6522,0.6384,0.6183,0.6183,0.6049,0.5714,0.5513,0.5379,0.5379,0.5245,0.5044,0.5044,0.491,0.4778,0.4778,0.4778,0.4778,0.4778,0.4775,0.4775,0.4766,0.4718,0.4529,0.4237,0.4145,0.4061,1.1916,1.1909,1.1909,1.1843,1.1784,1.0525,0.9994,0.9994,0.9927,0.9861,0.9728,0.9728,0.9728,0.9728,0.9728,0.9728,0.9728,0.9728,0.9728,0.9728,0.9728,0.9728,0.9728,0.9728,0.9728,0.9728,0.9728,0.9728,0.9728,0.9728,0.9794,0.9794,0.9794,0.9861,0.9861,0.9861,0.9794,0.9728,0.9728,0.9474,0.9032,0.9026,0.883,0.8503,0.8503,0.8552,0.8579,0.859,0.859,0.859,0.859,0.8456,0.8189,0.8189,0.7994,0.0,0.7593,0.0,0.0,0.0,0.0,0.0,0.0,0.0,0.0,0.6522,0.6522,0.6522,0.6522,0.6522,0.6522,0.6382,0.6366,0.651,0.6382,0.6366,0.651,0.6522,0.6522,0.6522,0.6522,0.6522,0.6522,0.6522,0.6522,0.6522,0.6522,0.6522,0.6522,0.6522,0.6522,0.6522,0.6522,0.6317,0.6049,0.5714,0.558,0.558,0.5513,0.5446,0.5446,0.5379,0.5379,0.5379,0.5379,0.5379,0.5379,0.5379,0.5379,0.5379,0.5305,0.5148,0.4568,0.439,0.4279,1.2642,1.2576,1.2305,1.2173,1.218,1.1644,1.1387,1.138,1.1049,1.0585,1.0127,1.0127,0.9927,0.9728,0.9728,0.9728,0.9728,0.9728,0.9728,0.9728,0.9728,0.9728,0.9728,0.9728,0.9728,0.9728,0.9728,0.9728,0.9728,0.9994,1.0127,1.0127,1.0392,1.0518,1.0518,0.0,0.0,0.0,0.9728,0.9649,0.9558,0.9558,0.9353,0.895,0.895,0.0,0.8584,0.859,0.859,0.859,0.859,0.0,0.0,0.0,0.0,0.0,0.0,0.0,0.0,0.0,0.0,0.0,0.692,0.6786,0.6522,0.6522,0.6522,0.6522,0.6522,0.6522,0.6522,0.6439,0.6435,0.6518,0.6506,0.6502,0.6518,0.6522,0.6522,0.6522,0.6522,0.6522,0.6522,0.6522,0.6522,0.6522,0.6522,0.6522,0.6522,0.6522,0.6522,0.6522,0.6522,0.6455,0.6384,0.6317,0.625,0.625,0.5982,0.5848,0.5781,0.558,0.5446,0.5446,0.5379,0.5446,0.5446,0.5379,0.5446,0.5379,0.5446,0.5376,0.5228,0.5148,0.5139,1.2766,1.2766,1.2634,1.2568,0.0,1.2379,1.2312,1.2246,1.1718,1.1314,1.0982,1.0784,1.0585,1.0459,1.0259,1.0193,1.0193,1.0193,1.0193,1.0193,1.0193,1.0193,1.0193,1.0193,1.0193,1.0193,1.0187,1.0187,1.0187,1.0386,1.0459,1.0459,1.0591,1.0717,1.0717,1.0717,1.0518,1.0193,1.0193,1.0127,0.9927,0.9927,0.9794,0.9389,0.9183,0.0,0.0,0.0,0.0,0.0,0.0,0.0,0.0,0.859,0.0,0.839,0.8323,0.8189,0.7861,0.7794,0.766,0.7254,0.7254,0.7058,0.6522,0.6522,0.6522,0.6522,0.6522,0.6522,0.6522,0.6522,0.6522,0.6522,0.6522,0.6522,0.6522,0.6522,0.6522,0.6522,0.6522,0.6522,0.6522,0.6522,0.6522,0.6522,0.6522,0.6522,0.6522,0.6522,0.6522,0.6522,0.6522,0.6522,0.6522,0.6522,0.6522,0.6455,0.6317,0.6183,0.6183,0.6049,0.5982,0.5915,0.5982,0.5915,0.5915,0.5915,0.5915,0.5915,0.5915,0.5915,0.5915,0.5651,0.5379,1.2906,1.2906,1.284,1.2766,1.2766,1.2766,1.2766,1.2766,1.2173,0.0,0.0,1.1446,1.1314,1.1247,1.0982,1.085,1.079,1.0784,1.079,1.0717,1.0717,1.0717,1.0717,1.0717,1.0717,1.0717,1.0717,1.0717,1.0717,1.0717,1.0717,1.0717,1.0717,1.0717,1.0717,1.0717,1.0717,1.0717,1.0717,1.0585,1.0326,1.0326,1.0127,0.9794,0.9455,0.925,0.9117,0.8851,0.8651,0.859,0.859,0.859,0.859,0.859,0.859,0.859,0.859,0.8456,0.8189,0.8189,0.8056,0.766,0.7526,0.7259,0.6723,0.6652,0.6656,0.6652,0.6656,0.6656,0.6656,0.6656,0.6656,0.6656,0.6656,0.6656,0.6656,0.6656,0.6723,0.6656,0.6723,0.6652,0.6723,0.6723,0.6656,0.6723,0.6723,0.6656,0.6589,0.6522,0.6522,0.6522,0.6522,0.6522,0.6522,0.6522,0.6522,0.6522,0.6522,0.6522,0.6522,0.6522,0.6522,0.6455,0.6522,0.6455,0.6455,0.6455,0.6522,0.6522,0.6522,0.6522,0.6455,0.6049,0.5647,1.3301,1.3301,1.2972,1.2766,1.2766,1.2766,1.2766,1.2766,1.2371,1.2041,1.1784,1.1784,1.171,1.171,1.1652,1.1446,1.1115,1.1115,1.0982,1.0717,1.0717,1.0717,1.0717,1.0717,1.0717,1.0717,1.0717,1.0717,1.0717,1.0717,1.0717,1.0717,1.0717,1.0717,1.0717,1.0717,1.0717,1.0717,1.0717,1.0651,1.0651,1.0658,1.0459,1.0127,1.0054,0.9721,0.9117,0.905,0.8917,0.8656,0.859,0.859,0.859,0.859,0.859,0.859,0.859,0.8584,0.8523,0.8523,0.839,0.8061,0.7727,0.7459,0.7393,0.7326,0.7393,0.7326,0.7326,0.7326,0.7393,0.7326,0.7326,0.7326,0.7326,0.7326,0.7326,0.7326,0.7326,0.7326,0.7393,0.7326,0.7326,0.7326,0.7326,0.7326,0.7259,0.7259,0.692,0.6652,0.6522,0.6522,0.6522,0.6522,0.6522,0.6522,0.6522,0.6522,0.6522,0.6522,0.6522,0.6522,0.6522,0.6522,0.6522,0.6522,0.6522,0.6522,0.6522,0.6522,0.6522,0.6522,0.6522,0.6384,0.6321,1.3687,1.3621,1.3301,1.3104,1.3104,1.2898,1.2766,1.2766,1.2642,1.2503,1.2312,1.2107,1.2107,1.2041,1.1909,1.171,1.1512,1.1512,1.1453,1.1321,1.1321,1.1321,1.1314,1.1314,1.1314,1.1314,1.1049,1.0982,1.0982,1.0784,1.0717,1.0717,1.0717,1.0717,1.0717,1.0717,1.0717,1.0717,1.0717,1.0717,1.0717,1.0717,1.0658,1.0459,1.0326,0.9994,0.9455,0.9256,0.8917,0.859,0.859,0.859,0.859,0.859,0.859,0.859,0.859,0.859,0.859,0.859,0.8523,0.839,0.8189,0.8123,0.8123,0.7727,0.7526,0.7526,0.7526,0.7526,0.7526,0.7526,0.7526,0.7526,0.7526,0.7526,0.7526,0.7526,0.7526,0.7526,0.7526,0.7526,0.7526,0.7526,0.7526,0.7526,0.7526,0.7459,0.7259,0.6987,0.6719,0.6522,0.6522,0.6522,0.6522,0.6522,0.6522,0.6522,0.6522,0.6522,0.6522,0.6522,0.6522,0.6522,0.6522,0.6522,0.6522,0.6522,0.6522,0.6522,0.6522,0.6522,0.6522,0.6522,0.6522,1.4006,1.4006,1.3621,1.3498,1.3498,1.3104,1.2906,1.2906,1.284,1.2766,1.2774,1.251,1.2444,1.2379,1.218,1.1975,1.1916,1.1909,1.1843,1.1784,1.1784,1.1784,1.1784,1.1784,1.1784,1.1784,1.1446,1.1314,1.1314,1.0982,1.079,1.0717,1.0717,1.0717,1.0717,1.0717,1.0717,1.0717,1.0717,1.0717,1.0717,1.0717,1.0717,1.0717,1.0459,1.0127,0.9794,0.9455,0.905,0.8717,0.8656,0.859,0.859,0.859,0.859,0.859,0.859,0.859,0.859,0.859,0.859,0.859,0.859,0.859,0.8523,0.8056,0.7727,0.7727,0.7794,0.7794,0.7794,0.7794,0.7727,0.7727,0.7727,0.7794,0.7727,0.7727,0.7727,0.7727,0.7722,0.7789,0.7722,0.7722,0.7794,0.7794,0.7727,0.766,0.7593,0.7335,0.7085,0.6812,0.6602,0.6522,0.6522,0.6522,0.6522,0.6522,0.6522,0.6522,0.6522,0.6522,0.6522,0.6522,0.6522,0.6522,0.6522,0.6522,0.6522,0.6522,0.6522,0.6522,0.6522,0.6522,0.6522,1.4342,1.4268,1.4006,1.3875,1.3809,1.349,1.3293,1.3293,1.2972,1.2766,1.2758,1.2766,1.2774,1.2766,1.2708,1.251,1.2239,1.2239,1.2107,1.1843,1.1784,1.1784,1.185,1.1843,1.1784,1.1843,1.1776,1.171,1.171,1.1314,1.0982,1.0717,1.0717,1.0717,1.0717,1.0717,1.0717,1.0717,1.0717,1.0717,1.0717,1.0717,1.0717,1.0717,1.0651,1.0525,1.0127,0.9794,0.9455,0.905,0.8784,0.859,0.859,0.859,0.859,0.859,0.859,0.859,0.859,0.859,0.859,0.859,0.859,0.859,0.859,0.8523,0.8523,0.8456,0.8456,0.8456,0.8523,0.8456,0.8456,0.839,0.8456,0.8523,0.8456,0.8523,0.8523,0.8523,0.839,0.8523,0.839,0.839,0.8456,0.8405,0.821,0.8086,0.8035,0.782,0.766,0.7442,0.7053,0.6606,0.6539,0.6522,0.6614,0.6606,0.6527,0.661,0.6686,0.661,0.6527,0.6774,0.661,0.6614,0.661,0.6522,0.6535,0.6627,0.6555,0.6531,0.6522,0.6539,0.6543,1.467,1.467,1.4342,1.4071,1.3866,1.3444,1.3198,1.3198,1.2808,1.2678,1.2694,1.2783,1.2766,1.2766,1.2766,1.27,1.2634,1.2568,1.2503,1.2379,1.2371,1.2379,1.2379,1.2379,1.2371,1.2379,1.2173,1.2114,1.1982,1.1512,1.1115,1.0982,1.0784,1.0717,1.0717,1.0717,1.0717,1.0717,1.0717,1.0717,1.0717,1.0717,1.0717,1.0717,1.0717,1.0525,1.0193,1.006,0.9794,0.9455,0.9123,0.8917,0.8917,0.8723,0.859,0.859,0.859,0.859,0.859,0.859,0.859,0.859,0.859,0.859,0.859,0.859,0.859,0.859,0.859,0.859,0.859,0.859,0.859,0.859,0.859,0.859,0.859,0.859,0.859,0.859,0.859,0.859,0.859,0.859,0.8617,0.8671,0.8563,0.8517,0.8512,0.8296,0.8104,0.804,0.7662,0.7232,0.7018,0.7228,0.7159,0.7091,0.7159,0.7296,0.7287,0.7296,0.7365,0.7292,0.7283,0.7283,0.7374,0.7091,0.6954,0.6949,0.6748,0.6615,0.6615,0.6615,0.6598,1.495,1.4941,1.4697,1.4408,1.4128,1.354,1.3259,1.3208,1.2822,1.2604,1.2507,1.2637,1.2694,1.2702,1.2791,1.2766,1.2766,1.2766,1.2766,1.2766,1.2791,1.2759,1.2759,1.2759,1.2759,1.2702,1.2553,1.2379,1.2239,1.171,1.1314,1.1181,1.085,1.0717,1.0717,1.0717,1.0717,1.0724,1.0758,1.0785,1.0792,1.0826,1.0826,1.0792,1.0826,1.0712,1.0504,1.037,1.0175,0.9973,0.9563,0.9288,0.9221,0.8957,0.8806,0.8644,0.8638,0.8622,0.859,0.859,0.859,0.859,0.859,0.859,0.859,0.859,0.859,0.859,0.8617,0.8633,0.859,0.859,0.859,0.859,0.859,0.859,0.859,0.859,0.86,0.8628,0.8649,0.8655,0.8682,0.8698,0.8736,0.8802,0.8823,0.8845,0.8868,0.8692,0.8573,0.8578,0.8389,0.8033,0.7645,0.7608,0.7697,0.7627,0.7683,0.7817,0.7905,0.7901,0.7901,0.764,0.7822,0.7896,0.7724,0.7534,0.7422,0.7418,0.7213,0.6934,0.6909,0.6856,0.6766,1.5224,1.5129,1.495,1.4894,1.48,1.4137,1.3769,1.3509,1.2903,1.2483,1.2369,1.2361,1.2345,1.2393,1.2702,1.2766,1.2758,1.2742,1.2734,1.2726,1.2653,1.258,1.2645,1.2645,1.2588,1.2637,1.271,1.2576,1.2312,1.1909,1.1578,1.1181,1.085,1.0717,1.0717,1.0717,1.0724,1.0744,1.0793,1.0867,1.0955,1.107,1.107,1.0975,1.1063,1.1124,1.1131,1.0793,1.058,1.0586,1.0229,0.989,0.955,0.9475,0.9211,0.8848,0.8764,0.8709,0.8611,0.86,0.8595,0.859,0.859,0.859,0.859,0.859,0.8595,0.859,0.8693,0.8704,0.8633,0.8633,0.8622,0.8617,0.86,0.8606,0.86,0.8622,0.8649,0.8731,0.8764,0.8796,0.8905,0.8868,0.8852,0.8868,0.8874,0.889,0.8922,0.8998,0.9041,0.9068,0.904,0.8918,0.8098,0.8093,0.8014,0.7949,0.8048,0.7999,0.791,0.7905,0.7915,0.7994,0.8089,0.8089,0.799,0.7915,0.7864,0.7804,0.7813,0.7603,0.7354,0.7305,0.7218,1.5441,1.5441,1.5366,1.5337,1.5252,1.4454,1.4024,1.3888,1.3111,1.2702,1.2653,1.258,1.2645,1.2653,1.271,1.271,1.2507,1.2499,1.2499,1.2507,1.254,1.2628,1.258,1.2678,1.2735,1.2751,1.2808,1.2774,1.2576,1.2107,1.171,1.1512,1.0982,1.0717,1.0717,1.0717,1.0765,1.0793,1.0928,1.0995,1.109,1.1233,1.128,1.1233,1.1185,1.1234,1.1234,1.1096,1.0951,1.1027,1.0612,1.0335,1.0197,0.9781,0.9348,0.8894,0.8883,0.8834,0.8725,0.8704,0.8666,0.8595,0.859,0.859,0.859,0.859,0.8617,0.8693,0.8736,0.8769,0.8823,0.8823,0.8818,0.8749,0.8818,0.8807,0.8818,0.8818,0.884,0.8878,0.8889,0.891,0.8879,0.8884,0.8911,0.8981,0.9068,0.9095,0.916,0.922,0.9237,0.9247,0.9275,0.9203,0.8923,0.8826,0.8749,0.8612,0.8617,0.8754,0.8739,0.8723,0.8728,0.8647,0.8642,0.8637,0.8632,0.8424,0.8353,0.8145,0.8078,0.813,0.7826,0.778,0.769,1.5689,1.5564,1.5564,1.5564,1.5477,1.4661,1.4235,1.4098,1.3236,1.2823,1.2782,1.2766,1.2808,1.2759,1.2751,1.2596,1.2345,1.2426,1.2483,1.2483,1.254,1.2628,1.2588,1.2686,1.2743,1.2759,1.2816,1.2766,1.27,1.2114,1.185,1.1784,1.1056,1.0744,1.0785,1.0792,1.0873,1.0995,1.1063,1.1145,1.1246,1.1389,1.1463,1.145,1.1362,1.1307,1.1307,1.1314,1.1307,1.1307,1.1028,1.0817,1.0537,0.9976,0.9397,0.9014,0.8938,0.8884,0.8845,0.8791,0.8731,0.8655,0.8606,0.86,0.8633,0.8649,0.8709,0.8796,0.8872,0.8932,0.8922,0.9041,0.9035,0.8906,0.8879,0.8879,0.8879,0.8879,0.89,0.8938,0.9052,0.9068,0.8992,0.8998,0.9035,0.9182,0.9193,0.9226,0.9285,0.9302,0.9302,0.9302,0.9296,0.9302,0.9197,0.9109,0.9109,0.8971,0.8899,0.9219,0.9302,0.9302,0.9302,0.9302,0.9302,0.9302,0.923,0.9018,0.8801,0.8512,0.8554,0.8591,0.8405,0.8275,0.816,1.5753,1.568,1.5574,1.5611,1.5475,1.4841,1.4367,1.4118,1.3469,1.3051,1.2887,1.2815,1.2816,1.2653,1.2694,1.2523,1.2419,1.2645,1.2726,1.2726,1.2621,1.2628,1.2637,1.2605,1.2621,1.2629,1.2759,1.2766,1.2766,1.213,1.1806,1.1659,1.1091,1.0839,1.088,1.0887,1.1016,1.1158,1.1287,1.1369,1.1409,1.1531,1.1599,1.1599,1.1586,1.1579,1.1599,1.1592,1.1579,1.1586,1.1592,1.1247,1.0568,1.0066,0.9672,0.9221,0.9133,0.9003,0.8895,0.8861,0.8807,0.8758,0.8671,0.8671,0.8753,0.8774,0.8823,0.8868,0.8965,0.9052,0.9144,0.9215,0.9193,0.8938,0.8922,0.8997,0.8911,0.8895,0.8933,0.9046,0.9204,0.9291,0.9296,0.9264,0.9264,0.9275,0.9285,0.9285,0.9302,0.9302,0.9302,0.9302,0.9302,0.9302,0.9302,0.9302,0.9302,0.9302,0.9224,0.9302,0.9302,0.9302,0.9302,0.9302,0.9302,0.9302,0.9302,0.9157,0.9157,0.9013,0.9085,0.9018,0.8874,0.8657,0.8512,1.6046,1.5989,1.5989,1.585,1.556,1.507,1.4684,1.4344,1.3739,1.3441,1.3308,1.3262,1.3173,1.3133,1.3116,1.2949,1.2641,1.2736,1.268,1.25,1.2548,1.258,1.2605,1.2694,1.2751,1.2759,1.2808,1.2774,1.2666,1.2237,1.1948,1.1836,1.1314,1.1043,1.109,1.1104,1.1172,1.1307,1.1369,1.1436,1.1538,1.1592,1.1619,1.1619,1.1619,1.1619,1.1619,1.1619,1.1619,1.1619,1.1619,1.1253,1.0599,1.0095,0.9718,0.933,0.9253,0.9198,0.9025,0.9041,0.8976,0.891,0.8856,0.8787,0.8889,0.8894,0.8948,0.8987,0.9117,0.9089,0.9237,0.928,0.9264,0.9204,0.9193,0.9182,0.9171,0.9182,0.9209,0.9242,0.928,0.9302,0.9302,0.9302,0.9302,0.9302,0.9302,0.9302,0.9302,0.9302,0.9302,0.9302,0.9302,0.9313,0.9334,0.9345,0.9351,0.9345,0.9334,0.9307,0.9302,0.9302,0.9302,0.9302,0.9302,0.9302,0.9302,0.9302,0.9302,0.9302,0.923,0.9157,0.9157,0.9013,0.8874,1.6188,1.6188,1.6188,1.5966,1.5532,1.5186,1.483,1.4457,1.3932,1.3734,1.3709,1.362,1.353,1.3482,1.3474,1.3226,1.2819,1.2811,1.2585,1.23,1.2405,1.2526,1.2674,1.2904,1.3035,1.3035,1.3035,1.2968,1.2775,1.233,1.2051,1.1801,1.1393,1.1192,1.1309,1.1246,1.1321,1.145,1.1477,1.1525,1.1599,1.1619,1.1619,1.1619,1.1619,1.1619,1.1619,1.1619,1.1619,1.1548,1.1476,1.1109,1.0527,1.0095,0.9735,0.9374,0.9296,0.9269,0.9204,0.9079,0.9035,0.896,0.8911,0.8906,0.8933,0.8949,0.9003,0.9171,0.9198,0.9226,0.9285,0.9302,0.9302,0.9302,0.9296,0.9302,0.9302,0.9302,0.9302,0.9296,0.9302,0.9302,0.9302,0.9302,0.9302,0.9302,0.9302,0.9302,0.9302,0.9302,0.9307,0.9307,0.9302,0.9329,0.9372,0.9389,0.94,0.9389,0.9378,0.9334,0.9302,0.9302,0.9302,0.9302,0.9302,0.9302,0.9302,0.9302,0.9302,0.9302,0.9323,0.9307,0.9235,0.923,0.9157,1.6188,1.6188,1.6188,1.5895,1.5541,1.5115,1.4768,1.4403,1.4039,1.388,1.388,1.3855,1.379,1.3677,1.3582,1.33,1.2881,1.2812,1.2536,1.22,1.22,1.2315,1.2673,1.2954,1.3098,1.3183,1.3191,1.3062,1.2688,1.2399,1.2069,1.1731,1.1421,1.1267,1.1382,1.1402,1.147,1.1579,1.1606,1.1613,1.1619,1.1619,1.1619,1.1619,1.1619,1.1619,1.1619,1.1619,1.1619,1.1548,1.1188,1.0822,1.0455,1.0095,0.9663,0.9302,0.9302,0.9302,0.9275,0.9215,0.9155,0.9139,0.9063,0.9014,0.9122,0.9073,0.9177,0.9269,0.9285,0.9296,0.9302,0.9302,0.9302,0.9302,0.9302,0.9302,0.9302,0.9302,0.9302,0.9302,0.9302,0.9302,0.9302,0.9302,0.9302,0.9302,0.9302,0.9302,0.9302,0.9307,0.9313,0.9323,0.9351,0.941,0.947,0.9497,0.9508,0.9508,0.9487,0.9449,0.9394,0.9389,0.9389,0.9378,0.9356,0.934,0.9351,0.9389,0.9394,0.941,0.9394,0.9334,0.934,0.9372,0.9356,1.6188,1.6188,1.5895,1.5541,1.5115,1.4759,1.4403,1.4047,1.3975,1.3904,1.3904,1.3904,1.3872,1.3831,1.3823,1.3444,1.2902,1.2753,1.2414,1.1853,1.1782,1.1987,1.2306,1.2475,1.2551,1.2559,1.2643,1.2467,1.2345,1.2117,1.1958,1.1825,1.1571,1.1504,1.1558,1.1552,1.1579,1.1613,1.1619,1.1619,1.1619,1.1619,1.1619,1.1619,1.1619,1.1619,1.1619,1.1619,1.1404,1.1188,1.0822,1.0462,1.0095,0.9735,0.9446,0.9374,0.9302,0.9302,0.9296,0.9275,0.9258,0.9258,0.9209,0.9226,0.9253,0.9258,0.9275,0.9302,0.9302,0.9302,0.9302,0.9302,0.9302,0.9302,0.9302,0.9302,0.9302,0.9302,0.9302,0.9302,0.9302,0.9302,0.9302,0.9302,0.9302,0.9302,0.9302,0.9313,0.9323,0.9329,0.9345,0.9416,0.9459,0.9525,0.9574,0.9606,0.9622,0.9628,0.9622,0.9617,0.9579,0.9568,0.9579,0.9584,0.953,0.9503,0.9546,0.9584,0.9568,0.9519,0.953,0.9514,0.9514,0.9536,0.9476,1.6046,1.6056,1.5717,1.5399,1.4981,1.4625,1.4261,1.3975,1.3904,1.3904,1.3904,1.3904,1.3904,1.3904,1.3896,1.3468,1.2824,1.2753,1.2323,1.1685,1.1606,1.1867,1.2163,1.233,1.247,1.247,1.247,1.2337,1.2211,1.2087,1.1974,1.1782,1.1644,1.1613,1.1606,1.1619,1.1619,1.1619,1.1619,1.1619,1.1619,1.1619,1.1619,1.1619,1.1619,1.1619,1.1619,1.1476,1.126,1.0972,1.0678,1.0311,0.9951,0.9518,0.9302,0.9302,0.9302,0.9302,0.9302,0.9302,0.9302,0.9302,0.9302,0.9302,0.9302,0.9302,0.9302,0.9302,0.9302,0.9302,0.9302,0.9302,0.9302,0.9302,0.9302,0.9302,0.9302,0.9302,0.9302,0.9302,0.9302,0.9302,0.9302,0.9302,0.9302,0.9302,0.9302,0.934,0.9372,0.9378,0.9416,0.9514,0.9574,0.9628,0.9693,0.9731,0.9775,0.978,0.9775,0.9769,0.972,0.9704,0.9688,0.9677,0.9677,0.9677,0.9699,0.9693,0.9644,0.9622,0.9666,0.9671,0.9655,0.9644,0.959,1.5829,1.5778,1.5536,1.5265,1.4832,1.4557,1.4098,1.3902,1.3815,1.3815,1.3815,1.3831,1.379,1.3847,1.3823,1.3436,1.2794,1.2738,1.2259,1.1828,1.1619,1.1807,1.208,1.2337,1.2487,1.2494,1.2674,1.2373,1.2144,1.2101,1.19,1.1671,1.1613,1.1619,1.1619,1.1619,1.1619,1.1619,1.1619,1.1619,1.1619,1.1619,1.1619,1.1619,1.1619,1.1619,1.1476,1.126,1.0972,1.09,1.0606,1.0239,0.9879,0.9446,0.9302,0.9302,0.9302,0.9302,0.9302,0.9302,0.9302,0.9302,0.9302,0.9302,0.9302,0.9302,0.9302,0.9302,0.9302,0.9302,0.9302,0.9302,0.9302,0.9302,0.9302,0.9302,0.9302,0.9302,0.9302,0.9302,0.9302,0.9302,0.9302,0.9302,0.9302,0.9313,0.9329,0.9389,0.9443,0.9481,0.9552,0.9661,0.9704,0.9731,0.9796,0.978,0.9905,0.9943,0.9938,0.9911,0.9818,0.978,0.9748,0.9742,0.9796,0.9796,0.9775,0.9753,0.9726,0.9748,0.9802,0.9764,0.9726,0.972,0.9682,1.5484,1.5142,1.4835,1.4518,1.4112,1.3767,1.3628,1.3498,1.3498,1.3514,1.349,1.349,1.3498,1.3506,1.3566,1.3271,1.2652,1.26,1.233,1.1691,1.1619,1.1619,1.1763,1.19,1.19,1.1907,1.1907,1.1835,1.1763,1.1763,1.1691,1.1619,1.1619,1.1619,1.1619,1.1619,1.1619,1.1619,1.1619,1.1619,1.1619,1.1619,1.1619,1.1619,1.1619,1.1619,1.1548,1.1188,1.09,1.0606,1.0239,0.9879,0.9518,0.9374,0.9302,0.9302,0.9302,0.9302,0.9302,0.9302,0.9302,0.9302,0.9302,0.9302,0.9302,0.9302,0.9302,0.9302,0.9302,0.9302,0.9302,0.9302,0.9302,0.9302,0.9302,0.9302,0.9302,0.9302,0.9302,0.9302,0.9302,0.9302,0.9302,0.9302,0.9307,0.9318,0.9372,0.9449,0.9519,0.9584,0.9677,0.9786,0.9813,0.984,0.9883,0.9932,0.996,1.0003,1.0014,1.0014,0.9916,0.9889,0.9867,0.99,0.9954,0.9932,0.9873,0.9905,0.99,0.9921,0.9921,0.99,0.9867,0.9835,0.9807,1.5201,1.4814,1.4624,1.4259,1.3856,1.3582,1.3368,1.3368,1.3368,1.3368,1.3368,1.3368,1.3368,1.3376,1.3258,1.2889,1.2417,1.2127,1.1861,1.1562,1.1511,1.1552,1.1613,1.1619,1.1619,1.1619,1.1619,1.1619,1.1619,1.1619,1.1619,1.1619,1.1619,1.1619,1.1619,1.1619,1.1619,1.1619,1.1619,1.1619,1.1619,1.1619,1.1619,1.1619,1.1619,1.1619,1.1548,1.1038,1.0678,1.0383,0.9951,0.9518,0.9374,0.9302,0.9302,0.9302,0.9302,0.9302,0.9302,0.9302,0.9302,0.9302,0.9302,0.9302,0.9302,0.9302,0.9302,0.9302,0.9302,0.9302,0.9302,0.9302,0.9302,0.9302,0.9302,0.9302,0.9302,0.9302,0.9302,0.9302,0.9302,0.9302,0.9302,0.9313,0.9362,0.9389,0.9432,0.9508,0.9671,0.9742,0.9802,0.9883,0.9911,0.9943,0.9981,1.0003,0.9998,1.0014,1.0014,1.0019,0.9981,0.9987,1.0003,1.0014,1.0003,1.0008,0.9976,1.0019,1.0019,0.9992,0.9981,1.0008,0.9998,0.9938,0.9916,1.493,1.4548,1.4441,1.4172,1.3696,1.3415,1.3262,1.3279,1.3287,1.3246,1.3287,1.3287,1.3238,1.3219,1.2969,1.2574,1.2145,1.1643,1.1405,1.1409,1.1463,1.1531,1.1599,1.1619,1.1619,1.1619,1.1619,1.1619,1.1619,1.1619,1.1619,1.1619,1.1619,1.1619,1.1619,1.1619,1.1619,1.1619,1.1619,1.1619,1.1619,1.1619,1.1619,1.1619,1.1619,1.1619,1.1476,1.0966,1.0527,1.0455,0.9735,0.9374,0.9302,0.9302,0.9302,0.9302,0.9302,0.9302,0.9302,0.9302,0.9302,0.9302,0.9302,0.9302,0.9302,0.9302,0.9302,0.9302,0.9302,0.9302,0.9302,0.9302,0.9302,0.9302,0.9302,0.9302,0.9302,0.9302,0.9302,0.9302,0.9302,0.9302,0.9318,0.9334,0.94,0.9465,0.9508,0.9584,0.9753,0.9873,0.9916,0.9943,0.9965,0.9976,1.0008,1.0019,1.0019,1.0019,1.0019,1.0019,1.0019,1.0019,1.0019,1.0019,1.0019,1.0019,1.0019,1.0019,1.0019,1.0019,1.0019,1.0019,1.0019,1.0019,1.0008,1.4585,1.3993,1.4029,1.3584,1.2996,1.2929,1.2946,1.2921,1.2954,1.2863,1.2938,1.2938,1.2954,1.2837,1.2756,1.2331,1.1826,1.1448,1.1341,1.1409,1.1484,1.1579,1.1606,1.1619,1.1619,1.1619,1.1619,1.1619,1.1619,1.1619,1.1619,1.1619,1.1619,1.1619,1.1619,1.1619,1.1619,1.1619,1.1619,1.1619,1.1619,1.1619,1.1619,1.1619,1.1619,1.1619,1.1469,1.0894,1.0527,1.0455,0.9735,0.9374,0.9302,0.9302,0.9302,0.9302,0.9302,0.9302,0.9302,0.9302,0.9302,0.9302,0.9302,0.9302,0.9302,0.9302,0.9302,0.9302,0.9302,0.9302,0.9302,0.9302,0.9302,0.9302,0.9302,0.9302,0.9302,0.9302,0.9302,0.9302,0.9302,0.9318,0.9351,0.94,0.9476,0.9563,0.965,0.9709,0.9829,0.9921,0.9981,0.9998,1.0008,1.0008,1.0019,1.0019,1.0019,1.0019,1.0019,1.0019,1.0019,1.0019,1.0019,1.0019,1.0019,1.0019,1.0019,1.0019,1.0019,1.0019,1.0019,1.0019,1.0019,1.0019,1.0019,1.4342,1.3884,1.3752,1.3293,1.2832,1.2766,1.2766,1.2766,1.2766,1.2766,1.2766,1.2766,1.2766,1.2658,1.2316,1.1851,1.1405,1.1344,1.1307,1.1389,1.147,1.1552,1.1606,1.1619,1.1619,1.1619,1.1619,1.1619,1.1619,1.1619,1.1619,1.1619,1.1619,1.1619,1.1619,1.1619,1.1619,1.1619,1.1619,1.1619,1.1619,1.1619,1.1619,1.1619,1.1619,1.1619,1.1476,1.0887,1.0527,1.0383,0.9735,0.9374,0.9302,0.9302,0.9302,0.9302,0.9302,0.9302,0.9302,0.9302,0.9302,0.9302,0.9302,0.9302,0.9302,0.9302,0.9302,0.9302,0.9302,0.9302,0.9302,0.9302,0.9302,0.9302,0.9302,0.9302,0.9302,0.9302,0.9313,0.9318,0.9323,0.9356,0.9416,0.9476,0.9552,0.965,0.9769,0.9845,0.9911,0.996,1.0019,1.0019,1.0019,1.0019,1.0019,1.0019,1.0019,1.0019,1.0019,1.0019,1.0019,1.0019,1.0019,1.0019,1.0019,1.0041,1.0019,1.0019,1.0019,1.0019,1.0019,1.0019,1.0019,1.0019,1.0019,1.4202,1.3875,1.3564,1.3169,1.284,1.2766,1.2766,1.2766,1.2766,1.2766,1.2766,1.2766,1.2766,1.265,1.2168,1.1524,1.0995,1.1151,1.1287,1.1382,1.145,1.1518,1.1586,1.1626,1.164,1.1687,1.1681,1.1575,1.1619,1.1619,1.1619,1.1619,1.1619,1.1619,1.1619,1.1619,1.1619,1.1619,1.1619,1.1619,1.1619,1.1619,1.1619,1.1619,1.1619,1.1548,1.1404,1.0815,1.0455,1.0167,0.9735,0.9302,0.9302,0.9302,0.9302,0.9302,0.9302,0.9302,0.9302,0.9302,0.9302,0.9302,0.9302,0.9302,0.9302,0.9302,0.9302,0.9302,0.9302,0.9302,0.9302,0.9302,0.9302,0.9302,0.9302,0.9307,0.9318,0.9329,0.9362,0.9362,0.9356,0.94,0.947,0.9595,0.9682,0.9737,0.9851,0.9905,0.9965,0.9981,1.0019,1.0019,1.0019,1.0019,1.0019,1.0019,1.0019,1.0019,1.0019,1.0019,1.0019,1.0019,1.0036,1.0068,1.0079,1.0095,1.0057,1.0025,1.0019,1.0019,1.0019,1.0019,1.0019,1.0019,1.0019,1.4202,1.3875,1.3564,1.3169,1.284,1.2766,1.2766,1.2766,1.2766,1.2766,1.2774,1.2782,1.279,1.264,1.2172,1.1689,1.1351,1.1287,1.1382,1.1436,1.1538,1.1606,1.1626,1.1619,1.1728,1.1789,1.1809,1.1655,1.1694,1.1667,1.1647,1.1653,1.1667,1.1626,1.1647,1.1653,1.1619,1.1619,1.1619,1.1619,1.1619,1.1619,1.1619,1.1619,1.1548,1.1404,1.1116,1.0678,1.0311,1.0023,0.959,0.9302,0.9302,0.9302,0.9302,0.9302,0.9302,0.9302,0.9307,0.9302,0.9318,0.9323,0.9323,0.9307,0.934,0.9345,0.9345,0.9302,0.9318,0.934,0.9351,0.9323,0.9313,0.9329,0.9356,0.9345,0.934,0.9438,0.9459,0.9497,0.9519,0.9514,0.9541,0.9688,0.9813,0.9867,0.9916,0.997,1.0008,1.0014,1.0019,1.0019,1.0019,1.0019,1.0019,1.0019,1.0019,1.0019,1.0047,1.0047,1.0068,1.009,1.0123,1.015,1.0166,1.0161,1.0134,1.009,1.0041,1.0047,1.0085,1.0063,1.0025,1.0025,1.0025,1.4316,1.3884,1.3293,1.2972,1.284,1.2766,1.2766,1.2766,1.2766,1.2766,1.279,1.2946,1.2834,1.2541,1.2094,1.1719,1.1391,1.145,1.1518,1.1552,1.166,1.1735,1.1769,1.1823,1.1918,1.1938,1.1959,1.1945,1.1877,1.187,1.187,1.1857,1.1857,1.1823,1.1748,1.1742,1.1687,1.1647,1.1619,1.1619,1.1619,1.1619,1.1619,1.1548,1.1404,1.1188,1.0894,1.0462,1.0095,0.9807,0.9518,0.9302,0.9302,0.9302,0.9302,0.9307,0.9378,0.9372,0.9318,0.9313,0.9351,0.9394,0.9416,0.9443,0.9481,0.9503,0.9503,0.9514,0.9514,0.9503,0.9503,0.9514,0.9514,0.9508,0.947,0.9481,0.9492,0.9541,0.9601,0.9639,0.9677,0.9677,0.9677,0.9758,0.9878,0.9932,0.996,0.9992,1.0014,1.0019,1.0019,1.0019,1.0019,1.0019,1.0019,1.0019,1.0025,1.0041,1.0128,1.0134,1.0155,1.0182,1.0221,1.0264,1.0297,1.0269,1.0226,1.0215,1.021,1.0193,1.0172,1.0144,1.0117,1.0041,1.0041,1.4648,1.3964,1.3153,1.2881,1.2766,1.2766,1.2766,1.2774,1.2889,1.2905,1.2879,1.2949,1.2717,1.239,1.2021,1.1741,1.1463,1.1606,1.166,1.1721,1.1803,1.1884,1.1918,1.2006,1.2067,1.2196,1.2121,1.2135,1.2169,1.2162,1.2135,1.2067,1.2013,1.1986,1.1918,1.1877,1.183,1.1701,1.1687,1.1667,1.1626,1.1619,1.1548,1.1404,1.1188,1.09,1.0678,1.0239,0.9951,0.9663,0.9446,0.9302,0.9302,0.9345,0.9362,0.9389,0.9465,0.9497,0.9449,0.9432,0.9449,0.9497,0.9536,0.9563,0.9628,0.9666,0.9666,0.9639,0.9639,0.965,0.9666,0.9655,0.9639,0.9628,0.9639,0.9661,0.9677,0.9693,0.9715,0.9748,0.9791,0.9856,0.9862,0.9873,0.9927,0.9998,1.0019,1.0019,1.0019,1.0019,1.0019,1.0019,1.0019,1.0019,1.0019,1.0025,1.003,1.0079,1.0161,1.0226,1.0253,1.0297,1.0346,1.0384,1.0422,1.0454,1.0449,1.0416,1.0378,1.0318,1.0269,1.0259,1.0221,1.0139,1.009,1.5107,1.4285,1.3431,1.3019,1.2815,1.2766,1.279,1.2946,1.3043,1.3116,1.3114,1.2877,1.2735,1.2429,1.2094,1.181,1.1619,1.1748,1.1803,1.187,1.1959,1.2033,1.2067,1.2101,1.2162,1.2257,1.2277,1.2338,1.242,1.2393,1.2277,1.2108,1.2142,1.2088,1.2033,1.2013,1.1945,1.1843,1.1816,1.1742,1.1681,1.1568,1.1417,1.1116,1.0972,1.0678,1.0023,0.9879,0.9752,0.9463,0.9401,0.9351,0.9378,0.9432,0.947,0.9497,0.959,0.9628,0.9617,0.9595,0.9633,0.9655,0.9671,0.9688,0.9726,0.9693,0.9677,0.9709,0.9737,0.972,0.9699,0.9677,0.9726,0.9742,0.9764,0.9758,0.978,0.9807,0.9829,0.9851,0.9889,0.9943,0.996,0.9954,0.9949,1.0008,1.0019,1.0019,1.0019,1.0019,1.0019,1.0019,1.0019,1.0019,1.0025,1.0041,1.0085,1.0155,1.0237,1.0307,1.0362,1.0416,1.0492,1.0514,1.0552,1.0612,1.0645,1.0563,1.0481,1.0411,1.0373,1.0356,1.034,1.028,1.0231,1.5263,1.435,1.3959,1.3652,1.349,1.349,1.349,1.3498,1.3563,1.366,1.3679,1.3199,1.2884,1.2779,1.2313,1.1976,1.1891,1.1938,1.1972,1.2026,1.2115,1.2189,1.2223,1.2284,1.2372,1.2406,1.242,1.2433,1.2481,1.2501,1.2461,1.2359,1.2305,1.2264,1.2223,1.2128,1.204,1.1999,1.1959,1.1898,1.1782,1.1669,1.149,1.1044,1.075,1.0462,0.9951,0.9663,0.949,0.9467,0.941,0.9449,0.9497,0.9568,0.959,0.9612,0.9709,0.9764,0.9758,0.9726,0.9699,0.9786,0.9835,0.9878,0.9856,0.9878,0.9883,0.9889,0.9873,0.9851,0.9878,0.9883,0.99,0.9889,0.9873,0.9862,0.9873,0.99,0.9916,0.9927,0.9954,0.9998,1.0008,1.0008,1.0008,1.0019,1.0019,1.0019,1.0019,1.0019,1.0019,1.0019,1.0019,1.0041,1.0047,1.009,1.0144,1.0237,1.0324,1.04,1.0481,1.0585,1.065,1.0661,1.0655,1.0683,1.0683,1.0645,1.0601,1.0558,1.0503,1.0454,1.0433,1.0411,1.0373,1.5311,1.4578,1.4456,1.4213,1.3928,1.3904,1.3904,1.3912,1.3953,1.4019,1.4034,1.3374,1.2986,1.2858,1.2426,1.2115,1.2054,1.2094,1.2121,1.2189,1.2271,1.2338,1.2386,1.2427,1.2467,1.2501,1.2501,1.2501,1.2501,1.2501,1.2481,1.2481,1.2494,1.242,1.2359,1.2257,1.2169,1.2142,1.2121,1.2054,1.1925,1.1898,1.1583,1.1053,1.0754,1.0389,0.9956,0.9674,0.9549,0.9519,0.9552,0.9584,0.9644,0.9693,0.9715,0.9758,0.9813,0.9807,0.9867,0.984,0.9813,0.9894,0.9949,0.9992,1.0019,1.0019,0.9987,0.9998,1.0003,1.0019,1.0019,0.9992,0.9981,0.996,0.9965,0.9954,0.996,0.9981,0.9992,0.9998,1.0019,1.0019,1.0019,1.0019,1.0019,1.0019,1.0019,1.0019,1.0019,1.0019,1.0019,1.0019,1.0019,1.0047,1.0074,1.0139,1.0215,1.0367,1.0454,1.0525,1.0612,1.0699,1.0737,1.071,1.071,1.0732,1.0715,1.0688,1.0699,1.0715,1.0645,1.0568,1.0579,1.0558,1.0503,1.5335,1.496,1.5004,1.4538,1.4002,1.392,1.3945,1.4042,1.4156,1.409,1.387,1.3424,1.3051,1.27,1.236,1.221,1.2155,1.2237,1.2284,1.2318,1.2393,1.2467,1.2481,1.2494,1.2501,1.2501,1.2501,1.2501,1.2501,1.2501,1.2501,1.2501,1.2501,1.2494,1.2488,1.2488,1.2413,1.2305,1.2284,1.2196,1.2094,1.206,1.1661,1.1169,1.086,1.0476,0.9956,0.9739,0.9612,0.9655,0.9661,0.9688,0.9726,0.9802,0.9829,0.9845,0.9943,0.9998,1.0003,1.0003,0.9992,0.9981,1.0008,1.0014,1.0019,1.0019,1.0019,1.0019,1.0019,1.0019,1.0019,1.0019,1.0019,1.0019,1.0019,1.0019,1.0019,1.0019,1.0019,1.0019,1.0019,1.0019,1.0019,1.0019,1.0019,1.0019,1.0019,1.0019,1.0019,1.0019,1.0019,1.0041,1.0041,1.0095,1.0139,1.0199,1.0291,1.0454,1.0568,1.0623,1.0666,1.0715,1.0737,1.0737,1.0737,1.0737,1.0737,1.0732,1.0737,1.0737,1.0737,1.0693,1.071,1.0693,1.0623,1.5352,1.5045,1.5045,1.483,1.4619,1.4611,1.4603,1.4619,1.4676,1.4506,1.4182,1.3733,1.3344,1.2887,1.2567,1.2332,1.2352,1.2379,1.2433,1.2433,1.2481,1.2494,1.2501,1.2501,1.2501,1.2501,1.2501,1.2501,1.2501,1.2501,1.2501,1.2501,1.2501,1.2501,1.2501,1.2501,1.2461,1.244,1.242,1.2366,1.2237,1.221,1.1943,1.1339,1.1039,1.0664,1.0069,0.9849,0.9726,0.9775,0.978,0.9813,0.9862,0.9943,0.9949,0.9954,1.0014,1.0019,1.0019,1.0014,1.0014,1.0019,1.0019,1.0019,1.0019,1.0019,1.0019,1.0019,1.0019,1.0019,1.0019,1.0019,1.0019,1.0019,1.0019,1.0019,1.0019,1.0019,1.0019,1.0019,1.0019,1.0019,1.0019,1.0019,1.0019,1.0019,1.0019,1.0019,1.0019,1.0019,1.0019,1.0057,1.0085,1.0144,1.0204,1.0297,1.0384,1.0525,1.0628,1.0693,1.0726,1.0737,1.0737,1.0737,1.0737,1.0737,1.0737,1.0737,1.0737,1.0737,1.0737,1.0737,1.0726,1.0721,1.0704,1.5198,1.5045,1.5045,1.5045,1.5045,1.5045,1.5045,1.5045,1.4968,1.4661,1.4122,1.3814,1.3344,1.2958,1.2656,1.2501,1.2501,1.2501,1.2501,1.2501,1.2501,1.2501,1.2501,1.2501,1.2501,1.2501,1.2501,1.2501,1.2501,1.2501,1.2501,1.2501,1.2501,1.2501,1.2501,1.2501,1.2494,1.2488,1.2474,1.2454,1.2386,1.2276,1.2089,1.165,1.1245,1.0866,1.0404,1.0106,0.9818,0.9878,0.9911,0.9938,0.9998,1.0019,1.0019,1.0019,1.0019,1.0019,1.0019,1.0019,1.0019,1.0019,1.0019,1.0019,1.0019,1.0019,1.0019,1.0019,1.0019,1.0019,1.0019,1.0019,1.0019,1.0019,1.0019,1.0019,1.0019,1.0019,1.0019,1.0019,1.0019,1.0019,1.0019,1.0019,1.0019,1.0019,1.0019,1.0025,1.003,1.0036,1.0052,1.0101,1.0161,1.0237,1.0329,1.0438,1.0525,1.0606,1.0672,1.0732,1.0737,1.0737,1.0737,1.0737,1.0737,1.0737,1.0737,1.0737,1.0737,1.0737,1.0737,1.0737,1.0737,1.0737,1.0737,1.5045,1.5045,1.5045,1.5045,1.5045,1.5045,1.5045,1.5045,1.5045,1.4507,1.3744,1.3744,1.3281,1.2656,1.2501,1.2501,1.2501,1.2501,1.2501,1.2501,1.2501,1.2501,1.2501,1.2501,1.2501,1.2501,1.2501,1.2501,1.2501,1.2501,1.2501,1.2501,1.2501,1.2501,1.2501,1.2501,1.2501,1.2501,1.2494,1.2488,1.2454,1.2467,1.2293,1.1952,1.1574,1.1118,1.0732,1.0357,1.0059,0.9998,1.0008,1.0014,1.0019,1.0019,1.0019,1.0019,1.0019,1.0019,1.0019,1.0019,1.0019,1.0019,1.0019,1.0019,1.0019,1.0019,1.0019,1.0019,1.0019,1.0019,1.0019,1.0019,1.0019,1.0019,1.0019,1.0019,1.0019,1.0019,1.0019,1.0019,1.0019,1.0019,1.0019,1.0019,1.0036,1.0036,1.0047,1.0079,1.0079,1.0074,1.0106,1.0172,1.0242,1.034,1.0438,1.0541,1.0606,1.0672,1.0688,1.0737,1.0737,1.0737,1.0737,1.0737,1.0737,1.0737,1.0737,1.0737,1.0737,1.0737,1.0737,1.0737,1.0737,1.0737,1.0737,1.5045,1.5045,1.5045,1.5045,1.5045,1.5045,1.5045,1.5045,1.4968,1.4507,1.3667,1.3667,1.3281,1.2501,1.2501,1.2501,1.2501,1.2501,1.2501,1.2501,1.2501,1.2501,1.2501,1.2501,1.2501,1.2501,1.2501,1.2501,1.2501,1.2501,1.2501,1.2501,1.2501,1.2501,1.2501,1.2501,1.2501,1.2501,1.2501,1.2501,1.2501,1.2501,1.2347,1.2192,1.1882,1.1417,1.1029,1.0641,1.033,1.0019,1.0019,1.0019,1.0019,1.0019,1.0019,1.0019,1.0019,1.0019,1.0019,1.0019,1.0019,1.0019,1.0019,1.0019,1.0019,1.0019,1.0019,1.0019,1.0019,1.0019,1.0019,1.0019,1.0019,1.0019,1.0019,1.0019,1.0019,1.0019,1.0019,1.0019,1.0019,1.0036,1.0036,1.0047,1.0057,1.0057,1.0079,1.0123,1.015,1.015,1.0193,1.0259,1.034,1.0443,1.052,1.0617,1.0677,1.0643,1.0732,1.0737,1.0737,1.0737,1.0737,1.0737,1.0737,1.0737,1.0737,1.0737,1.0737,1.0737,1.0737,1.0737,1.0737,1.0737,1.0737,1.5045,1.5045,1.5045,1.5045,1.5045,1.5045,1.5045,1.5045,1.5045,1.4584,1.3975,1.3821,1.3358,1.2811,1.2579,1.2501,1.2501,1.2501,1.2501,1.2501,1.2501,1.2501,1.2501,1.2501,1.2501,1.2501,1.2501,1.2501,1.2501,1.2501,1.2501,1.2501,1.2501,1.2501,1.2501,1.2501,1.2501,1.2501,1.2501,1.2501,1.2501,1.2501,1.2501,1.2424,1.2114,1.1727,1.134,1.0874,1.0408,1.0097,1.0019,1.0019,1.0019,1.0019,1.0019,1.0019,1.0019,1.0019,1.0019,1.0019,1.0019,1.0019,1.0019,1.0019,1.0019,1.0019,1.0019,1.0019,1.0019,1.0019,1.0019,1.0019,1.0019,1.0019,1.0019,1.0019,1.0019,1.0019,1.0019,1.0019,1.0036,1.0057,1.0068,1.0079,1.0123,1.0193,1.0231,1.0253,1.0275,1.0275,1.0324,1.0394,1.0471,1.0634,1.0623,1.0672,1.0704,1.0732,1.0732,1.0737,1.0737,1.0737,1.0737,1.0737,1.0737,1.0742,1.0753,1.0737,1.0737,1.0748,1.0764,1.0759,1.0753,1.0737,1.0737,1.5045,1.5045,1.5045,1.5045,1.5045,1.5045,1.5045,1.5045,1.5045,1.4745,1.4361,1.3898,1.3513,1.2965,1.2656,1.2501,1.2501,1.2501,1.2501,1.2501,1.2501,1.2501,1.2501,1.2501,1.2501,1.2501,1.2501,1.2501,1.2501,1.2501,1.2501,1.2501,1.2501,1.2501,1.2501,1.2501,1.2501,1.2501,1.2501,1.2501,1.2501,1.2501,1.2501,1.2424,1.2114,1.1805,1.134,1.0952,1.0486,1.0175,1.0019,1.0019,1.0019,1.0019,1.0019,1.0019,1.0019,1.0019,1.0019,1.0019,1.0019,1.0019,1.0019,1.0019,1.0019,1.0019,1.0019,1.0019,1.0019,1.0019,1.0019,1.0019,1.0019,1.0019,1.0019,1.0019,1.0019,1.0041,1.0085,1.0095,1.0139,1.0161,1.0199,1.0215,1.0226,1.0329,1.0384,1.0394,1.0411,1.0411,1.0524,1.0596,1.0574,1.0628,1.0672,1.071,1.0721,1.0737,1.0737,1.082,1.0904,1.0904,1.082,1.0915,1.1009,1.0859,1.078,1.0802,1.0835,1.084,1.084,1.0797,1.078,1.0786,1.0742,1.5045,1.5045,1.5045,1.5045,1.5045,1.5045,1.5045,1.5045,1.5045,1.4814,1.4361,1.3898,1.3505,1.312,1.2733,1.2579,1.2501,1.2501,1.2501,1.2501,1.2501,1.2501,1.2501,1.2501,1.2501,1.2501,1.2501,1.2501,1.2501,1.2501,1.2501,1.2501,1.2501,1.2501,1.2501,1.2501,1.2501,1.2501,1.2501,1.2501,1.2501,1.2501,1.2501,1.2501,1.2269,1.2114,1.1727,1.134,1.0874,1.0563,1.0175,1.0019,1.0019,1.0019,1.0019,1.0019,1.0019,1.0019,1.0019,1.0019,1.0025,1.003,1.003,1.0025,1.0019,1.0019,1.0025,1.0025,1.0019,1.0019,1.0019,1.0019,1.0019,1.0019,1.003,1.003,1.0036,1.0095,1.0155,1.0199,1.0242,1.028,1.0324,1.0346,1.0356,1.0411,1.0481,1.0601,1.0634,1.0639,1.0792,1.0766,1.0655,1.0704,1.0732,1.0737,1.0737,1.0737,1.082,1.0987,1.1153,1.132,1.1409,1.136,1.1299,1.1238,1.1126,1.0971,1.0992,1.096,1.0954,1.0933,1.0927,1.0933,1.084,1.5045,1.5045,1.5045,1.5045,1.5045,1.5045,1.5045,1.5045,1.5045,1.4891,1.4592,1.4207,1.3744,1.3351,1.2965,1.2656,1.2579,1.2501,1.2501,1.2501,1.2579,1.2501,1.2501,1.2579,1.2501,1.2501,1.2501,1.2501,1.2501,1.2501,1.2501,1.2501,1.2501,1.2501,1.2501,1.2501,1.2501,1.2501,1.2501,1.2501,1.2501,1.2501,1.2501,1.2501,1.2424,1.2269,1.2037,1.165,1.1184,1.0719,1.0253,1.0019,1.0019,1.0019,1.0019,1.0019,1.0019,1.0019,1.0025,1.0036,1.0057,1.0085,1.0101,1.0117,1.021,1.021,1.0112,1.0101,1.003,1.0019,1.0019,1.0019,1.0019,1.0019,1.0095,1.0144,1.0188,1.0253,1.0286,1.0297,1.034,1.0378,1.0416,1.046,1.0487,1.0568,1.0628,1.087,1.0903,1.0997,1.1074,1.108,1.0959,1.0809,1.0732,1.0737,1.0737,1.0737,1.0904,1.1237,1.157,1.1819,1.1998,1.1873,1.1759,1.1643,1.1549,1.1412,1.1171,1.1133,1.1063,1.1079,1.1079,1.1069,1.0987,1.5045,1.5045,1.5045,1.5045,1.5045,1.5045,1.5045,1.5045,1.5045,1.5045,1.4968,1.4592,1.4207,1.3744,1.3358,1.2965,1.2811,1.2888,1.2811,1.2733,1.2733,1.2888,1.2811,1.2733,1.2733,1.2656,1.2579,1.2501,1.2501,1.2501,1.2501,1.2501,1.2501,1.2501,1.2501,1.2501,1.2501,1.2501,1.2501,1.2501,1.2501,1.2501,1.2501,1.2501,1.2501,1.2269,1.2114,1.1805,1.1417,1.0952,1.0408,1.0175,1.0019,1.0019,1.0019,1.0025,1.0063,1.0063,1.0068,1.0101,1.0155,1.0199,1.0215,1.0269,1.0356,1.0335,1.0237,1.0182,1.0112,1.0079,1.0079,1.0074,1.0074,1.009,1.0182,1.0253,1.0324,1.0394,1.0405,1.0411,1.0449,1.0487,1.0601,1.0645,1.07,1.0704,1.0904,1.1153,1.1314,1.1463,1.1535,1.1535,1.1469,1.1231,1.0987,1.0987,1.107,1.1237,1.1403,1.1736,1.2069,1.2401,1.2509,1.2315,1.2203,1.2143,1.1904,1.175,1.1491,1.1334,1.1291,1.1237,1.1204,1.1188,1.1145,1.5045,1.5045,1.5045,1.5045,1.5045,1.5045,1.5045,1.5045,1.5045,1.5045,1.4968,1.4968,1.4669,1.4207,1.3744,1.3436,1.3358,1.3358,1.3436,1.3513,1.3281,1.3351,1.3428,1.3204,1.3197,1.2965,1.2733,1.2501,1.2501,1.2501,1.2501,1.2501,1.2501,1.2501,1.2501,1.2501,1.2501,1.2501,1.2501,1.2501,1.2501,1.2501,1.2501,1.2501,1.2501,1.2424,1.2347,1.2037,1.1882,1.1495,1.0952,1.0486,1.0253,1.0097,1.0103,1.0146,1.0185,1.015,1.0166,1.0226,1.0291,1.0335,1.0351,1.0362,1.0416,1.0422,1.0367,1.0367,1.0318,1.0297,1.0291,1.028,1.0275,1.0291,1.0356,1.0373,1.0411,1.0481,1.0607,1.0639,1.0678,1.0793,1.0821,1.0926,1.1009,1.107,1.1237,1.1486,1.1819,1.1902,1.1986,1.1986,1.1986,1.1902,1.1819,1.1653,1.1736,1.1819,1.1902,1.2152,1.2567,1.2982,1.3022,1.2856,1.275,1.2717,1.2471,1.219,1.1834,1.1599,1.1467,1.14,1.1357,1.1308,1.1264]}]]